[[{"header":{"parameterUnit":"m.s-1","parameterCategory":1,"la1":30.6,"la2":28.766,"lo1":-90.7593,"lo2":-88.6598,"dy":0.0162,"dx":0.0183,"nx":116,"ny":114,"refTime":"2023-05-06T00:00:00:Z","depth":0,"parameterNumber":2,"parameterNumberName":"U-component_of_WINDS"},"data":[0.0,0.0,0.0,0.0,0.0,0.0,0.0,0.0,0.0,0.0,0.0,0.0,0.0,0.0,0.0,0.0,0.0,0.0,0.0,0.0,0.0,0.0,0.0,0.0,0.0,0.0,0.0,0.0,0.0,0.0,0.0,0.0,0.0,0.0,0.0,0.0,0.0,0.0,0.0,0.0,0.0,0.0,0.0,0.0,0.0,0.0,0.0,0.0,0.0,0.0,0.0,0.0,0.0,0.0,0.0,0.0,0.0,0.0,0.0,0.0,0.0,0.0,0.0,0.0,0.0,0.0,0.0,0.0,0.0,0.0,0.0,0.0,0.0,0.0,0.0,0.0,0.0,0.0,0.0,0.0,0.0,0.0,0.0,0.0,0.0,0.0,0.0,0.0,0.0,0.0,0.0,0.0,0.0,0.0,0.0,0.0,0.0,0.0,0.0,0.0,0.0,0.0,0.0,0.0,0.0,0.0,0.0,0.0,0.0,0.0,0.0,0.0,0.0,0.0,0.0,0.0,0.0,0.0,0.0,0.0,0.0,0.0,0.0,0.0,0.0,0.0,0.0,0.0,0.0,0.0,0.0,0.0,0.0,0.0,0.0,0.0,0.0,0.0,0.0,0.0,0.0,0.0,0.0,0.0,0.0,0.0,0.0,0.0,0.0,0.0,0.0,0.0,0.0,0.0,0.0,0.0,0.0,0.0,0.0,0.0,0.0,0.0,0.0,0.0,0.0,0.0,0.0,0.0,0.0,0.0,0.0,0.0,0.0,0.0,0.0,0.0,0.0,0.0,0.0,0.0,0.0,0.0,0.0,0.0,0.0,0.0,0.0,0.0,0.0,0.0,0.0,0.0,0.0,0.0,0.0,0.0,0.0,0.0,0.0,0.0,0.0,0.0,0.0,0.0,0.0,0.0,0.0,0.0,0.0,0.0,0.0,0.0,0.0,0.0,0.0,0.0,0.0,0.0,0.0,0.0,0.0,0.0,0.0,0.0,0.0,0.0,0.0,0.0,0.0,0.0,0.0,0.0,0.0,0.0,0.0,0.0,0.0,0.0,0.0,0.0,0.0,0.0,0.0,0.0,0.0,0.0,0.0,0.0,0.0,0.0,0.0,0.0,0.0,0.0,0.0,0.0,0.0,0.0,0.0,0.0,0.0,0.0,0.0,0.0,0.0,0.0,0.0,0.0,0.0,0.0,0.0,0.0,0.0,0.0,0.0,0.0,0.0,0.0,0.0,0.0,0.0,0.0,0.0,0.0,0.0,0.0,0.0,0.0,0.0,0.0,0.0,0.0,0.0,0.0,0.0,0.0,0.0,0.0,0.0,0.0,0.0,0.0,0.0,0.0,0.0,0.0,0.0,0.0,0.0,0.0,0.0,0.0,0.0,0.0,0.0,0.0,0.0,0.0,0.0,0.0,0.0,0.0,0.0,0.0,0.0,0.0,0.0,0.0,0.0,0.0,0.0,0.0,0.0,0.0,0.0,0.0,0.0,0.0,0.0,0.0,0.0,0.0,0.0,0.0,0.0,0.0,0.0,0.0,0.0,0.0,0.0,0.0,0.0,0.0,0.0,0.0,0.0,0.0,0.0,0.0,0.0,0.0,0.0,0.0,0.0,0.0,0.0,0.0,0.0,0.0,0.0,0.0,0.0,0.0,0.0,0.0,0.0,0.0,0.0,0.0,0.0,0.0,0.0,0.0,0.0,0.0,0.0,0.0,0.0,0.0,0.0,0.0,0.0,0.0,0.0,0.0,0.0,0.0,0.0,0.0,0.0,0.0,0.0,0.0,0.0,0.0,0.0,0.0,0.0,0.0,0.0,0.0,0.0,0.0,0.0,0.0,0.0,0.0,0.0,0.0,0.0,0.0,0.0,0.0,0.0,0.0,0.0,0.0,0.0,0.0,0.0,0.0,0.0,0.0,0.0,0.0,0.0,0.0,0.0,0.0,0.0,0.0,0.0,0.0,0.0,0.0,0.0,0.0,0.0,0.0,0.0,0.0,0.0,0.0,0.0,0.0,0.0,0.0,0.0,0.0,0.0,0.0,0.0,0.0,0.0,0.0,0.0,0.0,0.0,0.0,0.0,0.0,0.0,0.0,0.0,0.0,0.0,0.0,0.0,0.0,0.0,0.0,0.0,0.0,0.0,0.0,0.0,0.0,0.0,0.0,0.0,0.0,0.0,0.0,0.0,0.0,0.0,0.0,0.0,0.0,0.0,0.0,0.0,0.0,0.0,0.0,0.0,0.0,0.0,0.0,0.0,0.0,0.0,0.0,0.0,0.0,0.0,0.0,0.0,0.0,0.0,0.0,0.0,0.0,0.0,0.0,0.0,0.0,0.0,0.0,0.0,0.0,0.0,0.0,0.0,0.0,0.0,0.0,0.0,0.0,0.0,0.0,0.0,0.0,0.0,0.0,0.0,0.0,0.0,0.0,0.0,0.0,0.0,0.0,0.0,0.0,0.0,0.0,0.0,0.0,0.0,0.0,0.0,0.0,0.0,0.0,0.0,0.0,0.0,0.0,0.0,0.0,0.0,0.0,0.0,0.0,0.0,0.0,0.0,0.0,0.0,0.0,0.0,0.0,0.0,0.0,0.0,0.0,0.0,0.0,0.0,0.0,0.0,0.0,0.0,0.0,0.0,0.0,0.0,0.0,0.0,0.0,0.0,0.0,0.0,0.0,0.0,0.0,0.0,0.0,0.0,0.0,0.0,0.0,0.0,0.0,0.0,0.0,0.0,0.0,0.0,0.0,0.0,0.0,0.0,0.0,0.0,0.0,0.0,0.0,0.0,0.0,0.0,0.0,0.0,0.0,0.0,0.0,0.0,0.0,0.0,0.0,0.0,0.0,0.0,0.0,0.0,0.0,0.0,0.0,0.0,0.0,0.0,0.0,0.0,0.0,0.0,0.0,0.0,0.0,0.0,0.0,0.0,0.0,0.0,0.0,0.0,0.0,0.0,0.0,0.0,0.0,0.0,0.0,0.0,0.0,0.0,0.0,0.0,0.0,0.0,0.0,0.0,0.0,0.0,0.0,0.0,0.0,0.0,0.0,0.0,0.0,0.0,0.0,0.0,0.0,0.0,0.0,0.0,0.0,0.0,0.0,0.0,0.0,0.0,0.0,0.0,0.0,0.0,0.0,0.0,0.0,0.0,0.0,0.0,0.0,0.0,0.0,0.0,0.0,0.0,0.0,0.0,0.0,0.0,0.0,0.0,0.0,0.0,0.0,0.0,0.0,0.0,0.0,0.0,0.0,0.0,0.0,0.0,0.0,0.0,0.0,0.0,0.0,0.0,0.0,0.0,0.0,0.0,0.0,0.0,0.0,0.0,0.0,0.0,0.0,0.0,0.0,0.0,0.0,0.0,0.0,0.0,0.0,0.0,0.0,0.0,0.0,0.0,0.0,0.0,0.0,0.0,0.0,0.0,0.0,0.0,0.0,0.0,0.0,0.0,0.0,0.0,0.0,0.0,0.0,0.0,0.0,0.0,0.0,0.0,0.0,0.0,0.0,0.0,0.0,0.0,0.0,0.0,0.0,0.0,0.0,0.0,0.0,0.0,0.0,0.0,0.0,0.0,0.0,0.0,0.0,0.0,0.0,0.0,0.0,0.0,0.0,0.0,0.0,0.0,0.0,0.0,0.0,0.0,0.0,0.0,0.0,0.0,0.0,0.0,0.0,0.0,0.0,0.0,0.0,0.0,0.0,0.0,0.0,0.0,0.0,0.0,0.0,0.0,0.0,0.0,0.0,0.0,0.0,0.0,0.0,0.0,0.0,0.0,0.0,0.0,0.0,0.0,0.0,0.0,0.0,0.0,0.0,0.0,0.0,0.0,0.0,0.0,0.0,0.0,0.0,0.0,0.0,0.0,0.0,0.0,0.0,0.0,0.0,0.0,0.0,0.0,0.0,0.0,0.0,0.0,0.0,0.0,0.0,0.0,0.0,0.0,0.0,0.0,0.0,0.0,0.0,0.0,0.0,0.0,0.0,0.0,0.0,0.0,0.0,0.0,0.0,0.0,0.0,0.0,0.0,0.0,0.0,0.0,0.0,0.0,0.0,0.0,0.0,0.0,0.0,0.0,0.0,0.0,0.0,0.0,0.0,0.0,0.0,0.0,0.0,0.0,0.0,0.0,0.0,0.0,0.0,0.0,0.0,0.0,0.0,0.0,0.0,0.0,0.0,0.0,0.0,0.0,0.0,0.0,0.0,0.0,0.0,0.0,0.0,0.0,0.0,0.0,0.0,0.0,0.0,0.0,0.0,0.0,0.0,0.0,0.0,0.0,0.0,0.0,0.0,0.0,0.0,0.0,0.0,0.0,0.0,0.0,0.0,0.0,0.0,0.0,0.0,0.0,0.0,0.0,0.0,0.0,0.0,0.0,0.0,0.0,0.0,0.0,0.0,0.0,0.0,0.0,0.0,0.0,0.0,0.0,0.0,0.0,0.0,0.0,0.0,0.0,0.0,0.0,0.0,0.0,0.0,0.0,0.0,0.0,0.0,0.0,0.0,0.0,0.0,0.0,0.0,0.0,0.0,0.0,0.0,0.0,0.0,0.0,0.0,0.0,0.0,0.0,0.0,0.0,0.0,0.0,0.0,0.0,0.0,0.0,0.0,0.0,0.0,0.0,0.0,0.0,0.0,0.0,0.0,0.0,0.0,0.0,0.0,0.0,0.0,0.0,0.0,0.0,0.0,0.0,0.0,0.0,0.0,0.0,0.0,0.0,0.0,0.0,0.0,0.0,0.0,0.0,0.0,0.0,0.0,0.0,0.0,0.0,0.0,0.0,0.0,0.0,0.0,0.0,0.0,0.0,0.0,0.0,0.0,0.0,0.0,0.0,0.0,0.0,0.0,0.0,0.0,0.0,0.0,0.0,0.0,0.0,0.0,0.0,0.0,0.0,0.0,0.0,0.0,0.0,0.0,0.0,0.0,0.0,0.0,0.0,0.0,0.0,0.0,0.0,0.0,0.0,0.0,0.0,0.0,0.0,0.0,0.0,0.0,0.0,0.0,0.0,0.0,0.0,0.0,0.0,0.0,0.0,0.0,0.0,0.0,0.0,0.0,0.0,0.0,0.0,0.0,0.0,0.0,0.0,0.0,0.0,0.0,0.0,0.0,0.0,0.0,0.0,0.0,0.0,0.0,0.0,0.0,0.0,0.0,0.0,0.0,0.0,0.0,0.0,0.0,0.0,0.0,0.0,0.0,0.0,0.0,0.0,0.0,0.0,0.0,0.0,0.0,0.0,0.0,0.0,0.0,0.0,0.0,0.0,0.0,0.0,0.0,0.0,0.0,0.0,0.0,0.0,0.0,0.0,0.0,0.0,0.0,0.0,0.0,0.0,0.0,0.0,0.0,0.0,0.0,0.0,0.0,0.0,0.0,0.0,0.0,0.0,0.0,0.0,0.0,0.0,0.0,0.0,0.0,0.0,0.0,0.0,0.0,0.0,0.0,0.0,0.0,0.0,0.0,0.0,0.0,0.0,0.0,0.0,0.0,0.0,0.0,0.0,0.0,0.0,0.0,0.0,0.0,0.0,0.0,0.0,0.0,0.0,0.0,0.0,0.0,0.0,0.0,0.0,0.0,0.0,0.0,0.0,0.0,0.0,0.0,0.0,0.0,0.0,0.0,0.0,0.0,0.0,0.0,0.0,0.0,0.0,0.0,0.0,0.0,0.0,0.0,0.0,0.0,0.0,0.0,0.0,0.0,0.0,0.0,0.0,0.0,0.0,0.0,0.0,0.0,0.0,0.0,0.0,0.0,0.0,0.0,0.0,0.0,0.0,0.0,0.0,0.0,0.0,0.0,0.0,0.0,0.0,0.0,0.0,0.0,0.0,0.0,0.0,0.0,0.0,0.0,0.0,0.0,0.0,0.0,0.0,0.0,0.0,0.0,0.0,0.0,0.0,0.0,0.0,0.0,0.0,0.0,0.0,0.0,0.0,0.0,0.0,0.0,0.0,0.0,0.0,0.0,0.0,0.0,0.0,0.0,0.0,0.0,0.0,0.0,0.0,0.0,0.0,0.0,0.0,0.0,0.0,0.0,0.0,0.0,0.0,0.0,0.0,0.0,0.0,0.0,0.0,0.0,0.0,0.0,-3.4525,-3.4212,0.0,0.0,0.0,0.0,0.0,0.0,0.0,0.0,0.0,0.0,0.0,0.0,0.0,0.0,0.0,0.0,0.0,0.0,0.0,0.0,0.0,0.0,0.0,0.0,0.0,0.0,0.0,0.0,0.0,0.0,0.0,0.0,0.0,0.0,0.0,0.0,0.0,0.0,-2.4926,-2.5959,-2.7205,-2.7721,-2.7675,-2.7268,0.0,0.0,0.0,0.0,0.0,0.0,0.0,0.0,0.0,0.0,0.0,0.0,0.0,0.0,0.0,0.0,0.0,0.0,0.0,0.0,0.0,0.0,0.0,0.0,0.0,0.0,0.0,0.0,0.0,0.0,0.0,0.0,0.0,0.0,0.0,0.0,0.0,0.0,0.0,0.0,0.0,0.0,0.0,0.0,0.0,0.0,0.0,0.0,0.0,0.0,0.0,0.0,0.0,0.0,0.0,0.0,0.0,0.0,0.0,0.0,0.0,0.0,0.0,0.0,0.0,0.0,0.0,0.0,0.0,0.0,-3.4906,-3.4521,0.0,0.0,0.0,0.0,0.0,0.0,0.0,0.0,0.0,0.0,0.0,0.0,0.0,0.0,0.0,0.0,0.0,0.0,0.0,0.0,0.0,0.0,0.0,0.0,-2.5844,-2.6143,-2.6211,-2.5974,0.0,0.0,0.0,0.0,0.0,0.0,0.0,-2.3623,-2.3804,-2.4014,-2.5482,-2.7168,-2.9051,-2.9566,-2.8962,-2.7509,-2.7544,0.0,0.0,0.0,0.0,0.0,0.0,0.0,0.0,0.0,0.0,0.0,0.0,0.0,0.0,0.0,0.0,0.0,0.0,0.0,0.0,0.0,0.0,0.0,0.0,0.0,0.0,0.0,0.0,0.0,0.0,0.0,0.0,0.0,0.0,0.0,0.0,0.0,0.0,0.0,0.0,0.0,0.0,0.0,0.0,0.0,0.0,0.0,0.0,0.0,0.0,0.0,0.0,0.0,0.0,0.0,0.0,0.0,0.0,0.0,0.0,0.0,0.0,0.0,-3.3932,-3.4043,-3.4043,-3.4255,-3.4355,-3.4441,-3.599,-3.5315,-3.3245,-3.416,0.0,0.0,0.0,0.0,0.0,0.0,0.0,0.0,0.0,0.0,0.0,0.0,0.0,0.0,0.0,0.0,0.0,0.0,0.0,0.0,0.0,-2.4866,-2.4983,-2.4869,-2.5018,-2.4808,0.0,0.0,0.0,0.0,0.0,0.0,-2.1521,-2.2102,-2.2975,-2.4096,-2.7013,-2.89,-2.9679,-2.9754,-2.9679,-2.9428,-2.9757,-2.9418,-2.8637,0.0,0.0,0.0,0.0,0.0,0.0,0.0,0.0,0.0,0.0,0.0,0.0,0.0,0.0,0.0,0.0,0.0,0.0,0.0,0.0,0.0,0.0,0.0,0.0,0.0,0.0,0.0,0.0,0.0,0.0,0.0,0.0,0.0,0.0,0.0,0.0,0.0,0.0,0.0,0.0,0.0,-3.4846,-3.2527,0.0,0.0,0.0,0.0,0.0,0.0,0.0,0.0,0.0,0.0,0.0,0.0,0.0,-3.322,-3.3862,-3.4046,-3.4168,-3.421,-3.5262,-3.5769,-3.5799,-3.6868,-3.7323,-3.7388,-3.8138,0.0,-3.377,-3.358,0.0,0.0,0.0,0.0,0.0,0.0,0.0,0.0,0.0,0.0,0.0,0.0,0.0,0.0,0.0,0.0,0.0,0.0,0.0,0.0,0.0,-2.4654,-2.5503,-2.5609,-2.6627,-2.6566,-2.4929,-2.4798,0.0,0.0,0.0,-2.2096,-2.1121,-2.279,-2.4595,-2.6517,-2.7664,-2.8674,-2.9569,-2.974,-3.0091,-3.0608,-3.0913,-3.0446,-2.9351,-2.874,0.0,0.0,0.0,0.0,0.0,0.0,0.0,0.0,0.0,0.0,0.0,0.0,0.0,0.0,0.0,0.0,0.0,0.0,0.0,0.0,0.0,0.0,0.0,0.0,0.0,0.0,0.0,0.0,0.0,0.0,0.0,0.0,0.0,0.0,0.0,0.0,0.0,0.0,0.0,-3.3589,-3.3275,-3.0627,-3.0687,-3.03,0.0,0.0,0.0,0.0,0.0,0.0,0.0,0.0,0.0,-3.2518,-3.3849,-3.4665,-3.4968,-3.5678,-3.6041,-3.6056,-3.6579,-3.6818,-3.6848,-3.7387,-3.7609,-3.7643,-3.8016,-3.7383,-3.6022,-3.5856,-3.4946,-3.3642,0.0,0.0,0.0,0.0,-3.3169,-3.3617,0.0,0.0,0.0,0.0,0.0,0.0,0.0,0.0,0.0,0.0,0.0,0.0,-2.3003,-2.4981,-2.6378,-2.66,-2.789,-2.7671,-2.5299,-2.5154,0.0,0.0,-2.1831,-2.1388,-2.0664,-2.311,-2.5547,-2.7874,-2.8059,-2.8578,-2.9407,-2.959,-3.0079,-3.0765,-3.0968,-3.0603,-2.9829,-2.9188,-2.8625,-2.804,0.0,0.0,0.0,0.0,0.0,0.0,0.0,0.0,0.0,0.0,0.0,0.0,0.0,0.0,0.0,0.0,0.0,0.0,0.0,0.0,0.0,0.0,0.0,0.0,0.0,0.0,0.0,0.0,0.0,0.0,0.0,0.0,0.0,0.0,0.0,0.0,0.0,-3.2572,-3.2557,-2.9924,-3.0597,-3.0761,0.0,0.0,0.0,0.0,0.0,0.0,-3.2004,-3.329,-3.4083,-3.4262,-3.5549,-3.6327,-3.6507,-3.7449,-3.7913,-3.7913,-3.7913,-3.7913,-3.7913,-3.7913,-3.7913,-3.7928,-3.8082,-3.8116,-3.8084,-3.753,-3.6205,-3.4509,-3.4119,-3.3724,-3.3409,-3.3372,-3.3624,-3.4045,0.0,0.0,0.0,0.0,0.0,0.0,0.0,0.0,0.0,0.0,0.0,-2.3886,-2.4352,-2.6221,-2.7347,-2.7179,-2.7418,-2.6536,-2.4073,-2.4026,-2.3309,-2.1521,-2.0848,-2.0161,-1.9398,-2.1933,-2.4349,-2.6518,-2.841,-2.9351,-2.9407,-2.9407,-2.9453,-2.9498,-2.9498,-2.9694,-3.0049,-3.0868,-3.0075,-2.8258,-2.804,0.0,0.0,0.0,0.0,0.0,0.0,0.0,0.0,0.0,0.0,0.0,0.0,0.0,0.0,0.0,0.0,0.0,0.0,0.0,0.0,0.0,0.0,0.0,0.0,0.0,0.0,0.0,0.0,0.0,0.0,0.0,0.0,0.0,0.0,0.0,0.0,0.0,0.0,-3.2632,-3.2916,0.0,0.0,0.0,0.0,-3.32,-3.3365,-3.3395,-3.3395,-3.4681,-3.5684,-3.6312,-3.7584,-3.8556,-3.9179,-3.9254,-3.932,-3.932,-3.932,-3.932,-3.932,-3.932,-3.932,-3.932,-3.932,-3.932,-3.9161,-3.7051,-3.6102,-3.5827,-3.4052,-3.3609,-3.3881,-3.3264,-3.3282,-3.3595,0.0,0.0,0.0,0.0,0.0,0.0,0.0,0.0,-2.119,-2.119,-2.2725,-2.3851,-2.4026,-2.6706,-2.8457,-2.8364,-2.9511,-2.9343,-2.7289,-2.6261,-2.4957,-2.3147,-2.1881,-2.181,-2.3058,-2.3289,-2.4537,-2.6915,-2.6962,-2.702,-2.702,-2.72,-2.7615,-2.8272,-2.8391,-2.8519,-2.8701,-2.9597,-2.966,-2.907,-2.859,-2.8163,0.0,0.0,0.0,0.0,0.0,0.0,0.0,0.0,0.0,0.0,0.0,0.0,0.0,0.0,0.0,0.0,0.0,0.0,0.0,0.0,0.0,0.0,0.0,0.0,0.0,0.0,0.0,0.0,0.0,0.0,0.0,0.0,0.0,0.0,0.0,0.0,0.0,-3.3948,-3.4382,0.0,-3.3514,-3.3425,-3.3799,-3.4726,-3.5549,-3.6013,-3.6013,-3.7285,-3.8138,-3.8362,-3.8811,-3.917,-3.9388,-3.9388,-3.9388,-3.9388,-3.9388,-3.9388,-3.9388,-3.9388,-3.9388,-3.9388,-3.9388,-3.9388,-3.9349,-3.8532,-3.7955,-3.7477,-3.6511,-3.6234,-3.6333,-3.5769,-3.5645,-3.5704,0.0,0.0,0.0,0.0,0.0,0.0,0.0,0.0,-2.147,-2.2055,-2.3664,-2.4978,-2.5507,-2.8139,-2.9917,-2.9917,-3.1004,-3.0716,-2.8378,-2.7308,-2.5707,-2.3386,-2.2279,-2.2764,-2.5076,-2.4085,-2.4552,-2.6686,-2.6004,-2.5693,-2.5693,-2.5868,-2.6332,-2.6935,-2.7105,-2.7142,-2.7195,-2.8117,-2.873,-2.901,-2.8865,-2.8385,-2.7681,0.0,0.0,0.0,0.0,0.0,0.0,0.0,0.0,0.0,0.0,0.0,0.0,0.0,0.0,0.0,0.0,0.0,0.0,0.0,0.0,0.0,0.0,0.0,0.0,0.0,0.0,0.0,0.0,0.0,0.0,0.0,0.0,0.0,0.0,-3.531,-3.5893,-3.5267,-3.5744,-3.5968,-3.5504,-3.5459,-3.5848,-3.6761,-3.7614,-3.8078,-3.8078,-3.8931,-3.9514,-3.9738,-3.9753,-3.9858,-4.0083,-4.0083,-4.0083,-4.0083,-4.0083,-3.9963,-3.9753,-3.9753,-3.9634,-3.9388,-3.9388,-3.9388,-3.9388,-3.9388,-3.9155,-3.8661,-3.8157,-3.7936,-3.788,-3.7334,-3.7126,-3.7035,0.0,0.0,0.0,0.0,0.0,0.0,0.0,-2.1388,-2.201,-2.3779,-2.555,-2.7281,-2.8826,-3.0625,-3.1705,-3.1705,-3.1705,-3.0296,-2.6997,-2.6834,-2.5433,-2.2107,-2.1929,-2.2868,-2.4988,-2.4088,-2.4297,-2.5693,-2.5693,-2.5693,-2.5703,-2.5703,-2.5713,-2.5732,-2.5732,-2.5723,-2.5801,-2.6754,-2.7426,-2.7932,-2.8849,-2.8374,-2.7105,0.0,0.0,0.0,0.0,0.0,0.0,0.0,0.0,0.0,0.0,0.0,0.0,0.0,0.0,0.0,0.0,0.0,0.0,0.0,0.0,0.0,0.0,0.0,0.0,0.0,0.0,0.0,0.0,0.0,0.0,0.0,0.0,0.0,-3.506,-3.6574,-3.7191,-3.6608,-3.7071,-3.7479,-3.7494,-3.7494,-3.8048,-3.9343,-3.9448,-3.9448,-3.9448,-3.9448,-3.9768,-4.0412,-4.0427,-4.0726,-4.1407,-4.1422,-4.1422,-4.1422,-4.1422,-4.1055,-4.0427,-4.0427,-4.0083,-3.9448,-3.9454,-3.9454,-3.9454,-3.9388,-3.9388,-3.9349,-3.8676,-3.8422,-3.8347,-3.7689,-3.7419,-3.733,0.0,0.0,0.0,0.0,0.0,0.0,0.0,-2.1336,-2.1978,-2.3652,-2.5525,-2.7281,-2.8826,-3.0625,-3.1705,-3.1705,-3.1528,-3.0505,-2.8371,-2.703,-2.5461,-2.3506,-2.5165,-2.6063,-2.5968,-2.6078,-2.5999,-2.5693,-2.5693,-2.5849,-2.6211,-2.6211,-2.6367,-2.667,-2.667,-2.6494,-2.6211,-2.6488,-2.6486,-2.6446,-2.8294,-2.8452,-2.7583,0.0,0.0,0.0,0.0,0.0,0.0,0.0,0.0,0.0,0.0,0.0,0.0,0.0,0.0,0.0,0.0,0.0,0.0,0.0,0.0,0.0,0.0,0.0,0.0,0.0,0.0,0.0,0.0,0.0,0.0,0.0,-3.1508,-3.2804,-3.4388,-3.5992,-3.7085,-3.7405,-3.8292,-3.905,-3.9529,-3.9574,-3.9933,-4.0786,-4.0846,-4.0846,-4.0846,-4.0846,-4.092,-4.1115,-4.1115,-4.119,-4.1422,-4.1422,-4.1422,-4.1422,-4.1422,-4.128,-4.1115,-4.1115,-4.101,-4.0816,-4.0337,-4.0127,-4.0098,-3.9619,-3.9388,-3.9394,-3.9215,-3.914,-3.905,-3.8377,-3.7823,-3.7389,0.0,0.0,0.0,0.0,0.0,0.0,0.0,-2.1368,-2.2276,-2.4708,-2.6002,-2.7571,-2.9869,-3.1064,-3.1661,-3.1528,-3.0755,-2.9444,-2.7446,-2.5733,-2.5148,-2.5894,-2.6938,-2.7342,-2.6969,-2.6926,-2.6408,-2.5333,-2.5333,-2.5603,-2.6018,-2.6018,-2.629,-2.6858,-2.6858,-2.6773,-2.665,-2.665,-2.6406,-2.6104,-2.7414,-2.7782,-2.7633,-2.8364,-2.8433,-2.8255,-2.8478,-2.8887,-2.9176,-2.8647,0.0,0.0,0.0,0.0,0.0,0.0,0.0,0.0,0.0,0.0,0.0,0.0,0.0,0.0,0.0,0.0,0.0,0.0,0.0,0.0,0.0,0.0,0.0,0.0,-3.189,-3.3077,-3.3991,-3.5749,-3.7084,-3.7466,-3.8616,-3.9536,-4.0032,-4.0448,-4.0905,-4.1354,-4.1422,-4.1422,-4.1422,-4.1422,-4.1542,-4.1826,-4.1826,-4.1923,-4.2192,-4.2207,-4.2207,-4.2207,-4.2207,-4.2058,-4.1826,-4.1826,-4.1677,-4.1392,-4.098,-4.0816,-4.0756,-4.0113,-3.9828,-3.9798,0.0,0.0,0.0,0.0,-3.8392,-3.7823,0.0,0.0,0.0,0.0,0.0,0.0,0.0,-2.142,-2.2723,-2.6441,-2.6786,-2.7996,-3.1475,-3.1749,-3.1572,-3.1306,-2.9752,-2.7775,-2.5431,-2.4211,-2.5051,-2.8398,-2.7881,-2.7646,-2.7891,-2.7094,-2.6071,-2.4883,-2.4883,-2.5119,-2.5563,-2.5563,-2.5971,-2.6685,-2.6737,-2.6872,-2.7039,-2.7039,-2.6816,-2.6387,-2.6536,-2.6826,-2.7325,-2.8436,-2.8962,-2.9076,-2.9328,-2.942,-2.9447,-2.9534,0.0,0.0,0.0,0.0,0.0,0.0,0.0,0.0,0.0,0.0,0.0,0.0,0.0,0.0,0.0,0.0,0.0,0.0,0.0,0.0,0.0,0.0,0.0,0.0,-3.212,-3.3165,-3.3865,-3.568,-3.6962,-3.7016,-3.8262,-3.9235,-3.9522,-4.0348,-4.1006,-4.1388,-4.1426,-4.1479,-4.1609,-4.1594,0.0,0.0,0.0,-4.2746,-4.329,-4.329,-4.329,-4.329,-4.329,-4.303,-4.2515,-4.2515,-4.2186,-4.1594,-4.1519,-4.1527,-4.1482,-4.0786,-4.0472,-4.0337,-3.9679,-3.9388,-3.9388,-3.9388,-3.9035,-3.8497,0.0,0.0,0.0,0.0,0.0,0.0,0.0,-2.1628,-2.306,-2.7702,-2.736,-2.8258,-3.2301,-3.212,-3.1572,-3.1306,-2.9557,-2.754,-2.5365,-2.6416,-2.7458,-2.8182,-2.9497,-2.9489,-2.7913,-2.7735,-2.6713,-2.4883,-2.4883,-2.532,-2.6049,-2.6049,-2.6508,-2.7239,-2.7506,-2.7473,-2.7197,-2.7425,-2.709,-2.6486,-2.7298,-2.6972,-2.6215,-2.8039,-2.8743,-2.8981,-3.0632,-3.1319,-3.1314,-3.0687,-3.0597,-3.0614,-2.9739,-2.8837,0.0,0.0,0.0,0.0,0.0,0.0,0.0,0.0,0.0,0.0,0.0,0.0,0.0,0.0,0.0,0.0,0.0,0.0,0.0,-3.1025,-3.2559,-3.389,-3.4442,-3.5276,-3.5993,-3.6403,-3.7479,-3.8408,-3.8978,-3.9201,-3.9967,-4.1444,-4.157,-4.1964,-4.2877,-4.2916,-4.2976,-4.3135,-4.315,-4.317,-4.329,-4.329,-4.329,-4.329,-4.329,0.0,-4.315,-4.315,-4.3075,-4.2925,-4.2402,-4.2216,-4.2156,-4.1459,-4.0876,-4.0337,-3.9679,-3.9388,-3.9388,-3.9388,-3.9298,-3.923,0.0,0.0,0.0,0.0,0.0,0.0,0.0,-2.25,-2.3527,-2.6773,-2.6396,-2.7115,-3.0452,-2.9731,-2.9063,-2.9145,-2.7497,-2.6074,-2.525,-2.6673,-2.8035,-2.9088,-3.0093,-2.9886,-2.8319,-2.8319,-2.7568,-2.6061,-2.5548,-2.5737,-2.6564,-2.6017,-2.6312,-2.7215,-2.7368,-2.7416,-2.7323,-2.7651,-2.7324,-2.6588,-2.7721,-2.75,-2.66,-2.8132,-2.9004,-2.9555,-3.0588,-3.1339,-3.1809,-3.1448,-3.1437,-3.138,-3.0542,-2.9851,-2.9204,0.0,0.0,0.0,0.0,0.0,0.0,0.0,0.0,0.0,0.0,0.0,0.0,0.0,0.0,-2.9477,-2.9911,0.0,-3.1985,-3.2439,-3.3734,-3.4768,-3.5044,-3.5604,-3.5928,-3.591,-3.7047,-3.8017,-3.8475,-3.8926,-3.9612,-4.0675,-4.0746,-4.1183,-4.2222,-4.2319,-4.2496,-4.297,-4.301,-4.301,-4.301,-4.301,-4.301,-4.301,-4.301,-4.305,-4.3155,-4.3155,-4.321,-4.3275,-4.2985,-4.2851,-4.2806,-4.2147,-4.1294,-4.0367,-4.0038,-3.9709,-3.9388,-3.9388,-3.9388,-3.9388,0.0,0.0,0.0,0.0,0.0,0.0,0.0,-2.3344,-2.3954,-2.5884,-2.5553,-2.609,-2.853,-2.7471,-2.6504,-2.6294,-2.5569,-2.5126,-2.5216,-2.6728,-2.8388,-3.0102,-3.0216,-2.9749,-2.8724,-2.8678,-2.82,-2.7189,-2.6398,-2.6369,-2.7029,-2.6125,-2.6212,-2.7138,-2.7321,-2.752,-2.7789,-2.8227,-2.7999,-2.7379,-2.8473,-2.8372,-2.7605,-2.8634,-2.9464,-3.0215,-3.0396,-3.0829,-3.1384,-3.1833,-3.1848,-3.1556,-3.1143,-3.0871,-3.0376,-2.8797,-2.8929,0.0,0.0,0.0,0.0,0.0,0.0,0.0,0.0,-2.9616,-3.0231,-3.1185,-3.1474,-3.1687,-3.2127,-3.2767,-3.3382,-3.3822,-3.4781,-3.5533,-3.5646,-3.6081,-3.6194,-3.5708,-3.6767,-3.7566,-3.7756,-3.8456,-3.9081,-3.9492,-3.9536,-3.9972,-4.0986,-4.1029,-4.138,-4.2129,-4.217,-4.2252,-4.243,-4.243,-4.2511,-4.2688,-4.2688,-4.2769,-4.2955,-4.2955,-4.3036,-4.317,-4.321,-4.325,-4.3205,-4.2626,-4.1728,-4.0666,-4.0502,-4.0046,-3.9516,-3.9433,-3.9388,-3.9388,0.0,0.0,0.0,0.0,0.0,0.0,0.0,0.0,-2.4227,-2.7354,-2.6505,-2.662,-2.9306,-2.8205,-2.631,-2.3918,-2.5949,-2.6714,-2.5306,-2.8097,-2.9941,-3.0204,-3.0216,-2.9749,-2.8724,-2.8678,-2.82,-2.7189,-2.7094,-2.7266,-2.7682,-2.703,-2.7011,-2.7495,-2.8447,-2.888,-2.8956,-3.0051,-3.0177,-2.9759,-3.0295,-2.9736,-2.8634,-2.9658,-3.0125,-3.0306,-3.1193,-3.0874,-3.0228,-3.1535,-3.1307,-3.061,-3.1816,-3.154,-3.0535,-2.9646,-2.8526,-2.737,-2.6468,-2.709,-2.8026,-2.8385,-2.9135,-2.9905,0.0,-3.047,-3.0683,-3.1273,-3.1775,-3.2139,-3.2202,-3.3081,-3.3822,-3.3884,-3.4781,-3.5671,-3.6194,-3.6367,-3.638,-3.6329,-3.6461,-3.6593,-3.6581,-3.6675,-3.7196,-3.8198,-3.8289,-3.8827,-3.9986,-4.0073,-4.0116,-4.0202,-4.0202,-4.0603,-4.1463,-4.1463,-4.1867,-4.2688,-4.2688,-4.2729,-4.2729,-4.2729,-4.2729,-4.2769,-4.2955,-4.3036,-4.2976,-4.2587,-4.219,-4.1727,-4.0771,-4.0256,-3.9973,-3.9561,-3.9388,-3.9388,0.0,0.0,0.0,0.0,0.0,0.0,0.0,0.0,0.0,-2.6183,-2.5555,-2.556,-2.7101,-2.5839,-2.4197,-2.2453,-2.4952,-2.6302,-2.5584,-2.8753,-3.0589,-3.0442,-3.0442,-3.0159,-2.9612,-2.9566,-2.9371,-2.8934,-2.8376,-2.8295,-2.8657,-2.7834,-2.7713,-2.8289,-2.8727,-2.9013,-2.9145,-2.981,-2.9802,-2.9493,-3.04,-3.0306,-2.9692,-3.0678,-3.1059,-3.0932,-3.0056,-2.975,0.0,-3.0505,-3.0404,-3.0224,-3.1554,-3.1155,-2.9989,-2.8942,-2.8223,-2.8059,-2.9062,-2.9383,-2.9705,-3.0826,-3.1442,-3.1763,-3.1989,-3.2051,-3.229,-3.3156,-3.3508,-3.3727,-3.4053,-3.4492,-3.4964,-3.5278,-3.5717,-3.6094,-3.6367,-3.6405,-3.6405,-3.6405,-3.6405,-3.6405,-3.6405,-3.6405,-3.6581,-3.7057,-3.7411,-3.8046,-3.9106,-3.9446,-3.9863,-4.0436,-4.0482,-4.0662,-4.1065,-4.0692,-4.0731,-4.1123,-4.1383,-4.1561,-4.1715,-4.2281,-4.2581,-4.2688,-4.2809,-4.285,-4.282,-4.2634,-4.2293,-4.1775,-4.132,-4.0654,-3.9876,-3.9518,-3.9388,-3.9388,0.0,0.0,0.0,0.0,0.0,0.0,0.0,0.0,0.0,0.0,-2.4878,-2.4821,-2.5188,-2.4076,-2.2864,-2.1834,-2.4119,-2.5648,-2.5785,-2.8791,-3.059,-3.0701,-3.0724,-3.0578,-3.0306,-3.0306,-3.0306,-3.0306,-2.96,-2.9411,-2.9755,-2.8833,-2.8682,-2.9136,-2.9362,-2.9563,-2.971,-3.0174,-3.0208,-2.9969,-3.0744,-3.088,-3.0678,-3.1427,-3.148,-3.0946,-2.9331,-2.8881,-2.9094,-2.9094,-2.8863,-2.8763,-3.0073,-2.9935,-2.9035,-2.7933,-2.7608,-2.8048,-3.0124,-3.0648,-3.0999,-3.2536,-3.322,-3.3533,-3.3533,-3.3646,-3.3985,-3.4743,-3.5064,-3.529,-3.5705,-3.5768,-3.5893,-3.6342,-3.6405,-3.6405,-3.6405,-3.6405,-3.6405,-3.6405,-3.6405,-3.6405,-3.6405,-3.6405,-3.6405,-3.6405,-3.692,-3.7511,-3.82,-3.8717,-3.9351,-4.0078,-4.0078,-4.022,-4.0489,-3.9899,-3.9728,-3.9988,-4.0145,-4.0432,-4.093,-4.1868,-4.2392,-4.2541,-4.2581,-4.2622,-4.2607,-4.2688,-4.2368,-4.1861,-4.1764,-4.0998,-3.9953,-3.9624,-3.9429,-3.9301,0.0,0.0,0.0,0.0,0.0,0.0,0.0,0.0,0.0,0.0,0.0,0.0,0.0,-2.4063,-2.3314,-2.2194,-2.3953,-2.5309,-2.5754,-2.8028,-2.9827,-3.0958,-3.0984,-3.0871,-3.0578,-3.0578,-3.0578,-3.0578,-3.0578,-3.0679,-3.0918,-3.0247,-2.9933,-3.0025,-3.078,-3.1137,-3.1199,-3.2052,-3.2412,-3.2364,-3.1857,-3.1673,-3.1661,-3.1705,-3.0937,-2.9857,-2.9791,-2.8692,-2.7294,-2.7294,-2.6467,-2.566,-2.6932,-2.7608,-2.7827,-2.7037,-2.6313,-2.6135,-2.7702,-2.9128,-3.0592,-3.2148,-3.3575,-3.4675,-3.4675,-3.5044,-3.5433,-3.547,-3.5943,-3.6367,-3.638,-3.638,-3.6392,-3.6405,-3.6405,-3.6405,-3.6405,-3.6405,-3.6405,-3.6405,-3.6405,-3.6405,-3.6405,-3.6405,-3.6405,-3.6405,-3.692,-3.7235,-3.7235,-3.775,-3.8052,-3.8101,-3.8101,-3.8517,-3.942,-3.8932,-3.9111,-3.9988,-3.9495,-3.9724,-4.0646,-4.1675,-4.2092,-4.2133,-4.231,-4.2392,-4.2433,-4.2622,-4.2566,-4.2345,-4.1901,-4.1146,-4.0329,-3.9929,-3.9506,-3.9104,0.0,0.0,0.0,0.0,0.0,0.0,0.0,0.0,0.0,0.0,0.0,0.0,0.0,0.0,0.0,0.0,-2.4904,-2.5576,-2.572,-2.8799,-3.045,-3.0103,-3.1374,-3.1681,-3.0871,-3.0883,-3.0883,-3.0883,-3.0883,-3.0927,-3.0984,-3.0763,-3.0742,-3.0867,-3.1133,-3.1397,-3.1567,-3.183,-3.1994,-3.1925,-3.1789,-3.1705,-3.1633,-3.075,-3.0174,-2.9588,0.0,-2.6722,-2.5861,-2.5548,-2.5112,-2.504,-2.6709,-2.6752,-2.6092,-2.5665,-2.6193,-2.7377,-2.9284,-3.1021,-3.2656,-3.4394,-3.5043,-3.5397,-3.5759,-3.5828,-3.5871,-3.6034,-3.5943,-3.5818,-3.5818,-3.5818,-3.5818,-3.5818,-3.6119,-3.6405,-3.6405,-3.6405,-3.6405,-3.6405,-3.6405,-3.6405,-3.6405,-3.6405,-3.6405,-3.6405,-3.692,-3.7186,-3.7186,-3.8078,-3.858,-3.858,-3.8931,-3.9095,-3.9054,-3.8481,-3.8191,-3.8127,-3.8254,-3.8765,-3.9681,-4.0014,-4.0503,-4.1113,-4.1184,-4.159,-4.2216,-4.2284,-4.2242,-4.2187,-4.205,-4.1514,-4.0804,-4.0227,-3.9739,-3.9312,0.0,0.0,0.0,0.0,0.0,0.0,0.0,0.0,0.0,0.0,0.0,0.0,0.0,0.0,0.0,0.0,0.0,-2.5525,-2.5681,-2.8187,-2.9503,-2.9196,-3.0409,-3.0724,-2.9985,-2.9967,-2.9967,-2.9954,-3.0363,-3.0596,-3.0695,-3.1063,-3.1318,-3.1439,-3.1439,-3.1528,-3.1705,-3.1761,-3.1588,-3.1238,-3.1226,-3.0953,-3.0458,-2.9565,-2.8911,0.0,-2.6472,-2.5303,-2.458,-2.4232,-2.4116,-2.4325,-2.5707,-2.5806,-2.5553,-2.6008,-2.6954,-2.845,-3.0942,-3.2466,-3.3734,-3.5445,-3.5716,-3.5716,-3.6133,-3.6098,-3.6098,-3.6323,-3.5768,-3.527,-3.5458,-3.5019,-3.4726,-3.4881,-3.509,-3.5361,-3.5717,-3.5768,-3.5918,-3.6367,-3.6405,-3.6405,-3.6405,-3.6405,-3.6405,-3.6405,-3.692,-3.7186,-3.7186,-3.8065,-3.8567,-3.8567,-3.8906,-3.8919,-3.8567,-3.8002,-3.7437,-3.6933,-3.7529,-3.8115,-3.872,-3.9033,-3.9505,-4.0116,-4.0461,-4.0972,-4.1577,-4.1953,-4.2092,-4.2092,-4.2092,-4.1686,-4.1047,-4.0612,-3.9993,-3.9317,0.0,0.0,0.0,0.0,0.0,0.0,0.0,0.0,0.0,0.0,0.0,0.0,0.0,0.0,0.0,0.0,0.0,0.0,-2.5655,-2.6349,-2.7249,-2.8325,-2.8409,-2.8338,-2.8195,-2.8176,-2.8176,-2.8099,-2.9136,-2.9749,-3.0025,-3.1079,-3.1548,-3.1548,-3.1548,-3.1548,-3.1548,-3.178,-3.1241,-3.0318,-3.0323,-2.9593,-2.851,-2.8239,-2.7282,-2.6019,-2.5445,-2.4486,-2.3442,-2.3384,-2.3442,-2.3661,-2.4213,-2.5087,-2.623,-2.8005,-2.8554,-2.9265,-3.2414,-3.3331,-3.3748,-3.5219,-3.5572,-3.562,-3.592,-3.5968,-3.6003,-3.6238,-3.5408,-3.4781,-3.5236,-3.4161,-3.3294,-3.3822,-3.3533,-3.3608,-3.4663,-3.4813,-3.519,-3.6279,-3.6405,-3.6405,-3.6405,-3.6405,-3.6405,-3.6405,-3.6895,-3.7149,-3.7149,-3.7663,-3.7965,-3.7965,-3.799,-3.799,-3.7965,-3.7412,-3.6872,-3.6405,-3.7315,-3.7717,-3.7763,-3.863,-3.9064,-3.9166,-4.0073,-4.0504,-4.0689,-4.1633,-4.2051,-4.2092,-4.2092,-4.17,-4.1149,-4.1105,-4.0307,-3.9199,0.0,0.0,0.0,0.0,0.0,0.0,0.0,0.0,0.0,0.0,0.0,0.0,0.0,0.0,0.0,0.0,0.0,0.0,-2.5175,-2.6731,-2.7755,-2.7949,-2.9363,-2.987,-2.9238,-2.9231,-2.8971,-2.8391,-2.8654,-2.8826,-2.8919,-2.9184,-2.9316,-2.9316,-2.9316,-2.9398,-2.9532,-2.9573,-2.9537,-2.9429,-2.9417,-2.9151,-2.8597,-2.7439,-2.6694,-2.6074,-2.4927,-2.4259,-2.389,-2.3133,-2.4022,-2.5582,-2.6683,-2.7735,-2.8721,-2.9562,-3.0481,-3.1499,-3.2671,-3.3671,-3.4535,-3.515,-3.5126,-3.5126,-3.562,-3.5572,-3.5306,-3.5032,-3.4363,-3.3667,-3.3274,-3.3489,-3.3734,-3.3872,-3.4813,-3.5663,-3.5952,-3.5943,-3.6044,-3.638,-3.6405,-3.6405,-3.6405,-3.6405,-3.6405,-3.6405,-3.6543,-3.6619,-3.6619,-3.7098,-3.7387,-3.7387,-3.7789,-3.7814,-3.74,-3.6895,-3.6556,-3.6405,-3.6628,-3.6769,-3.6769,-3.6989,-3.7487,-3.816,-3.8419,-3.9285,-4.0646,-4.0873,-4.1437,-4.2092,-4.2092,-4.199,-4.1787,-4.1279,-4.0583,-3.9784,0.0,0.0,0.0,0.0,0.0,0.0,0.0,0.0,0.0,0.0,0.0,0.0,0.0,0.0,0.0,0.0,0.0,0.0,0.0,-2.6507,-2.7193,-2.7003,-2.841,-2.8844,-2.81,-2.8371,-2.8045,-2.7103,-2.7803,-2.8072,-2.7929,-2.8412,-2.8669,-2.8736,-2.8736,-2.8828,-2.8946,-2.9037,-2.8846,0.0,0.0,-2.8135,-2.7444,-2.6528,-2.5932,-2.5528,-2.4735,-2.4707,-2.5136,-2.5686,-2.664,-2.7777,-2.8934,-2.9694,-3.0351,-3.1208,-3.1938,-3.2706,-3.3493,-3.427,-3.4823,-3.4981,-3.4932,-3.4812,-3.4919,-3.464,-3.4158,-3.3475,-3.245,-3.1651,-3.1461,-3.184,-3.2336,-3.2822,-3.4059,-3.5135,-3.5567,-3.5642,-3.5818,-3.6355,-3.6405,-3.6405,-3.6405,-3.6405,-3.6405,-3.6405,-3.6405,-3.6405,-3.6405,-3.6707,-3.687,-3.687,-3.7123,-3.7136,-3.687,-3.6568,-3.6405,-3.6405,-3.6405,-3.6405,-3.6405,-3.6405,-3.6675,-3.7222,-3.7625,-3.8419,-3.9417,-3.9812,-4.0317,-4.083,-4.083,-4.083,-4.0831,-4.0855,-4.0478,-3.9903,0.0,0.0,0.0,0.0,0.0,0.0,0.0,0.0,0.0,0.0,0.0,0.0,0.0,0.0,0.0,0.0,0.0,0.0,0.0,0.0,-2.6335,-2.6281,-2.6877,-2.6952,-2.6436,-2.6856,-2.6547,-2.5382,-2.6784,-2.7324,-2.7053,-2.7977,-2.8531,-2.8662,-2.8662,-2.87,-2.8739,-2.8918,-2.8449,-2.7617,-2.7629,-2.6949,-2.591,0.0,0.0,-2.4909,-2.4944,-2.5554,-2.6741,-2.9237,-2.9957,-2.9993,-3.108,-3.1516,-3.1752,-3.2851,-3.3172,-3.3362,-3.4486,-3.4775,-3.4775,-3.4775,-3.4775,-3.4667,-3.4066,-3.3573,-3.2899,-3.1685,-3.0332,-2.9429,-2.9742,-2.9926,-3.036,-3.1422,-3.258,-3.3715,-3.4788,-3.4939,-3.529,-3.6292,-3.6405,-3.6405,-3.6405,-3.6405,-3.6405,-3.6405,-3.6405,-3.6405,-3.6405,-3.6405,-3.6405,-3.6405,-3.6405,-3.6405,-3.6405,-3.6405,-3.6405,-3.6405,-3.6405,-3.6405,-3.6405,-3.6405,-3.6405,-3.6452,-3.7268,-3.7671,-3.7854,-3.8675,-3.9077,-3.921,-3.921,-3.921,-3.9285,-4.0246,-4.0224,-3.9731,0.0,0.0,0.0,0.0,0.0,0.0,0.0,0.0,0.0,0.0,-2.9066,-2.8512,0.0,0.0,0.0,0.0,0.0,0.0,0.0,0.0,0.0,-2.7647,-2.7732,-2.7733,-2.7677,-2.7259,-2.6633,-2.5793,-2.6095,-2.6181,-2.6122,-2.6306,-2.644,-2.6463,-2.6463,-2.6547,-2.6701,-2.6737,-2.6719,-2.6719,-2.6741,-2.6489,-2.6131,-2.591,0.0,0.0,-2.5781,-2.6645,-2.8002,-3.021,-3.1141,-3.1693,-3.3291,-3.4111,-3.4462,-3.445,-3.445,-3.4546,-3.4727,-3.4775,-3.4775,-3.4775,-3.4775,-3.4474,-3.3362,-3.3028,-3.2317,-3.0044,-2.9314,-2.8796,-2.781,-2.8966,-3.0415,-3.1508,-3.3271,-3.4901,-3.5934,-3.6128,-3.6191,-3.638,-3.6405,-3.6405,-3.6405,-3.6405,-3.6405,-3.6405,-3.6405,-3.6405,-3.6405,-3.6405,-3.6405,-3.6405,-3.6405,-3.6405,-3.6405,-3.6405,-3.6405,-3.6405,-3.6405,-3.6405,-3.6405,-3.6405,-3.6405,-3.6405,-3.6593,-3.7083,-3.7808,-3.7978,-3.8509,-3.921,-3.921,-3.921,-3.9285,-4.0246,-4.0224,-3.9802,0.0,0.0,0.0,0.0,0.0,0.0,0.0,-2.8899,-2.929,-3.0621,-3.0157,-2.969,-2.9682,-2.9391,-2.8799,0.0,0.0,0.0,0.0,0.0,0.0,0.0,-2.8194,-2.8375,-2.8422,-2.7762,-2.7095,-2.6414,0.0,-2.6211,-2.6062,-2.6062,-2.6119,-2.6223,-2.6223,-2.6258,-2.6374,-2.6374,-2.6396,-2.6499,-2.6499,-2.6606,-2.6726,0.0,0.0,0.0,-2.6022,-2.6927,-2.8195,-2.9428,-3.1095,-3.2975,-3.4524,-3.5125,-3.5175,-3.503,-3.4932,-3.4775,-3.4775,-3.4775,-3.4775,-3.4775,-3.4775,-3.439,-3.2734,-3.1918,-3.0835,-2.8289,-2.7283,-2.6691,-2.6073,-2.7412,-2.8913,-2.9989,-3.2335,-3.4304,-3.5105,-3.59,-3.6405,-3.6405,-3.6405,-3.6405,-3.6405,-3.6405,-3.6405,-3.6405,-3.6405,-3.6405,-3.6405,-3.6405,-3.6405,-3.6405,-3.6405,-3.6405,-3.6405,-3.6405,-3.6405,-3.6405,-3.6405,-3.6405,-3.6405,-3.6405,-3.6405,-3.6405,-3.6405,-3.6675,-3.7083,-3.7083,-3.7348,-3.7736,-3.7736,-3.7736,-3.7874,-3.881,-3.8945,-3.8894,0.0,0.0,0.0,0.0,0.0,0.0,0.0,-2.9557,-2.9957,-3.115,-3.1124,-3.0859,-3.0534,-3.033,-2.9907,0.0,0.0,0.0,0.0,0.0,0.0,0.0,0.0,0.0,-2.8532,0.0,0.0,-2.6812,-2.6714,0.0,0.0,0.0,0.0,0.0,-2.6624,-2.6624,-2.6624,-2.6624,-2.6555,0.0,0.0,-2.6927,-2.7231,0.0,0.0,0.0,0.0,-2.6968,-2.8131,-2.8675,-3.0589,-3.3008,-3.4315,-3.4999,-3.5223,-3.5003,-3.4896,-3.4823,-3.4884,-3.4823,-3.4775,-3.4775,-3.4775,-3.421,-3.2002,-3.0873,-2.9495,-2.6719,-2.5486,-2.4889,-2.4774,-2.5934,-2.7211,-2.8209,-3.0688,-3.2815,-3.3794,-3.5068,-3.6047,-3.638,-3.6405,-3.6405,-3.6405,-3.6405,-3.6405,-3.6405,-3.6405,-3.6405,-3.6405,-3.6405,-3.6405,-3.6405,-3.6405,-3.6405,-3.6405,-3.6405,-3.6405,-3.6405,-3.6405,-3.6405,-3.6405,-3.6405,-3.6405,-3.6405,-3.6405,-3.6405,-3.6405,-3.6405,-3.6405,-3.6405,-3.6405,-3.6405,-3.6499,-3.7441,-3.7808,-3.7971,0.0,0.0,0.0,0.0,0.0,0.0,0.0,-3.0801,-3.1432,-3.2185,-3.225,-3.2127,-3.1877,-3.1052,-3.0509,0.0,0.0,0.0,0.0,0.0,0.0,0.0,0.0,0.0,0.0,0.0,0.0,-2.6555,-2.6521,0.0,0.0,0.0,0.0,0.0,0.0,-2.6939,-2.6939,-2.6939,0.0,0.0,0.0,0.0,0.0,0.0,0.0,0.0,0.0,-2.7172,-2.8262,-2.9313,-2.9953,-3.0515,-3.1674,-3.3687,-3.5376,-3.4394,-3.4422,-3.4823,-3.5078,-3.4981,-3.4775,-3.4775,-3.4775,-3.4019,-3.108,-3.0355,-2.9284,-2.5785,-2.4981,-2.4774,-2.4338,-2.5133,-2.619,-2.7184,-2.8757,-3.0654,-3.3047,-3.3934,-3.4826,-3.6245,-3.6405,-3.6405,-3.6405,-3.6405,-3.6405,-3.6405,-3.6405,-3.6405,-3.6405,-3.6405,-3.6405,-3.6405,-3.6405,-3.6405,-3.6405,-3.6405,-3.6405,-3.6405,-3.6405,-3.6405,-3.6405,-3.6405,-3.6405,-3.6405,-3.6405,-3.6405,-3.6405,-3.6405,-3.6405,-3.6405,-3.6405,-3.6405,-3.6499,-3.7441,-3.7808,-3.7933,0.0,0.0,0.0,0.0,0.0,0.0,-3.0843,-3.1228,-3.1655,-3.2305,-3.2315,-3.2274,-3.2247,-3.185,-3.1432,-3.1177,0.0,0.0,0.0,0.0,0.0,0.0,0.0,0.0,0.0,0.0,-2.7095,-2.7095,-2.6679,0.0,0.0,0.0,0.0,0.0,0.0,-2.6871,-2.6679,-2.6679,0.0,0.0,0.0,0.0,0.0,0.0,0.0,0.0,0.0,0.0,-2.8085,-2.7977,-2.9065,-3.0302,-2.9203,-3.0622,-3.2729,-3.3195,-3.347,-3.3863,-3.4896,-3.4981,-3.4775,-3.4775,-3.4018,-3.2741,-3.0761,-2.9233,-2.7626,-2.5367,-2.4682,-2.443,-2.4235,-2.4533,-2.5033,-2.5695,-2.7395,-2.9065,-3.0344,-3.1804,-3.3273,-3.4826,-3.5009,-3.5397,-3.6295,-3.6405,-3.6405,-3.6405,-3.6405,-3.6405,-3.6405,-3.6405,-3.6405,-3.6405,-3.6405,-3.6405,-3.6405,-3.6405,-3.6405,-3.6405,-3.6405,-3.6405,-3.6405,-3.6405,-3.6405,-3.6405,-3.6405,-3.6405,-3.6405,-3.6405,-3.6405,-3.6405,-3.6405,-3.6405,-3.6452,-3.6815,-3.6956,-3.7083,0.0,0.0,0.0,0.0,0.0,-3.0304,-3.127,-3.1578,-3.1859,-3.2281,-3.2274,-3.2219,-3.2274,-3.2191,-3.2023,-3.1724,-3.1289,0.0,0.0,0.0,0.0,0.0,0.0,0.0,0.0,0.0,-2.7471,-2.7196,-2.6714,-2.6499,0.0,0.0,-2.6871,-2.6692,0.0,0.0,0.0,0.0,0.0,0.0,0.0,0.0,0.0,0.0,0.0,0.0,0.0,0.0,0.0,0.0,0.0,-2.956,-2.7631,-2.8012,-2.9552,-3.1167,-3.2138,-3.2944,-3.4123,-3.4619,-3.4775,-3.4775,-3.3504,-3.1805,-3.0406,-2.8427,-2.6481,-2.5021,-2.443,-2.42,-2.42,-2.42,-2.4303,-2.4648,-2.6163,-2.7582,-2.8374,-3.0024,-3.1709,-3.3248,-3.3428,-3.3982,-3.5441,-3.6028,-3.6323,-3.6405,-3.6405,-3.6405,-3.6405,-3.6405,-3.6405,-3.6405,-3.6405,-3.6405,-3.6405,-3.6405,-3.6405,-3.6405,-3.6405,-3.6405,-3.6405,-3.6405,-3.6405,-3.6405,-3.6405,-3.6405,-3.6405,-3.6405,-3.6405,-3.6405,-3.6405,-3.6405,-3.6405,-3.6405,-3.6405,-3.6499,0.0,0.0,0.0,0.0,0.0,0.0,-3.1409,-3.1951,-3.2342,-3.2219,-3.2191,-3.215,-3.2025,-3.1996,-3.2038,-3.2163,-3.2066,0.0,0.0,0.0,0.0,0.0,0.0,0.0,0.0,0.0,-2.7445,-2.6499,-2.6499,-2.6499,-2.6499,-2.685,-2.7007,-2.704,0.0,0.0,0.0,0.0,0.0,0.0,0.0,0.0,0.0,0.0,0.0,0.0,0.0,0.0,0.0,0.0,0.0,0.0,0.0,-2.6417,-2.614,-2.8076,-3.0325,-3.2275,-3.256,-3.3692,-3.4775,-3.4775,-3.3504,-3.1743,-2.9922,-2.8157,-2.6388,-2.4595,-2.42,-2.42,-2.42,-2.42,-2.42,-2.42,-2.5061,-2.6278,-2.778,-2.8887,-3.0086,-3.1629,-3.1805,-3.2317,-3.3613,-3.5135,-3.6098,-3.6358,-3.6405,-3.6405,-3.6405,-3.6405,-3.6405,-3.6405,-3.6405,-3.6405,-3.6405,-3.6405,-3.6405,-3.6405,-3.6405,-3.6405,-3.6405,-3.6405,-3.6405,-3.6405,-3.6405,-3.6405,-3.6405,-3.6405,-3.6405,-3.6405,-3.6405,-3.6405,-3.6405,-3.6405,-3.6405,-3.6405,0.0,0.0,0.0,0.0,0.0,0.0,0.0,-3.2259,-3.2398,-3.2342,-3.2274,-3.2191,-3.215,-3.2038,-3.2025,-3.2066,-3.201,0.0,0.0,0.0,0.0,0.0,0.0,0.0,0.0,-2.8396,-2.7966,-2.685,-2.685,-2.6952,-2.7201,-2.757,-2.749,-2.704,-2.749,-2.7302,0.0,0.0,0.0,0.0,0.0,0.0,-2.9729,0.0,0.0,0.0,0.0,0.0,0.0,0.0,0.0,0.0,0.0,0.0,0.0,-2.5992,-2.749,-2.9298,-3.0467,-3.0974,-3.1166,-3.1166,-2.9874,-2.8433,-2.7847,-2.6353,-2.4886,-2.4328,-2.42,-2.42,-2.42,-2.42,-2.4236,-2.4381,-2.5263,-2.6105,-2.6752,-2.8333,-2.9988,-3.1529,-3.3314,-3.4583,-3.4973,-3.5614,-3.6063,-3.6098,-3.6323,-3.6405,-3.6405,-3.6405,-3.6405,-3.6405,-3.6405,-3.6405,-3.6405,-3.6405,-3.6405,-3.6405,-3.6405,-3.6405,-3.6405,-3.6405,-3.6405,-3.6405,-3.6405,-3.6405,-3.6405,-3.6405,-3.6405,-3.6405,-3.6405,-3.6405,-3.6405,-3.6405,-3.6405,-3.6405,0.0,0.0,0.0,0.0,0.0,0.0,0.0,-3.2398,-3.237,-3.2342,-3.2247,-3.2163,-3.215,-3.2038,-3.1996,-3.1996,-3.194,0.0,0.0,0.0,0.0,0.0,0.0,0.0,-2.9491,-2.9704,-2.9075,-2.7532,-2.7532,-2.753,-2.749,-2.7914,-2.7769,-2.7209,-2.757,-2.7452,0.0,0.0,0.0,0.0,0.0,0.0,-2.9754,0.0,0.0,0.0,0.0,0.0,0.0,0.0,0.0,0.0,0.0,0.0,0.0,0.0,-2.5578,-2.6702,-2.8309,-2.9106,-2.9513,-2.9513,-2.8193,-2.6897,-2.6897,-2.5518,-2.4236,-2.4309,-2.4309,-2.4345,-2.4418,-2.4418,-2.4454,-2.461,-2.545,-2.632,-2.6823,-2.8328,-2.9914,-3.1264,-3.3327,-3.4615,-3.471,-3.5327,-3.5764,-3.5968,-3.6051,-3.6181,-3.6405,-3.6323,-3.6323,-3.6405,-3.6405,-3.6405,-3.6405,-3.6405,-3.6405,-3.6405,-3.6405,-3.6405,-3.6405,-3.6405,-3.6405,-3.6405,-3.6405,-3.6405,0.0,-3.6405,-3.6405,-3.6405,-3.6405,-3.6405,-3.6405,-3.6405,-3.6405,-3.6405,0.0,0.0,0.0,0.0,0.0,0.0,0.0,-3.2398,-3.2342,-3.2247,-3.2219,-3.2163,-3.2025,-3.1996,-3.2012,-3.2029,0.0,0.0,0.0,0.0,0.0,0.0,0.0,0.0,-3.0874,-3.134,-3.0602,-2.8507,-2.8541,-2.8253,-2.7655,-2.8033,-2.7954,-2.7536,-2.7921,-2.8043,-2.7927,-2.8597,-2.8913,-2.9001,-2.9578,-2.9792,0.0,0.0,0.0,0.0,0.0,0.0,0.0,0.0,0.0,0.0,0.0,0.0,0.0,0.0,0.0,0.0,0.0,-2.7882,-2.914,-2.914,-2.7906,-2.6694,-2.6694,-2.5399,0.0,-2.4454,-2.449,-2.4574,-2.4754,-2.479,-2.4801,-2.4873,-2.5696,-2.6709,-2.7832,-2.8975,-3.0083,-3.1121,-3.233,-3.3111,-3.3403,-3.4485,-3.5428,-3.592,-3.5716,-3.58,-3.631,-3.6146,-3.6098,-3.6358,-3.6405,-3.6405,-3.6405,-3.6405,-3.6405,-3.6405,-3.6405,-3.6405,-3.6405,-3.6405,-3.6405,-3.6405,-3.6405,-3.6405,-3.6405,-3.6405,-3.6405,-3.6405,-3.6405,-3.6405,-3.6405,-3.6405,-3.6405,-3.6405,0.0,0.0,0.0,0.0,0.0,0.0,0.0,0.0,0.0,0.0,-3.2342,-3.2274,-3.2025,-3.1996,-3.2108,0.0,0.0,0.0,0.0,0.0,0.0,0.0,0.0,0.0,-3.2008,-3.2041,-3.1208,-2.9467,-2.9936,-2.9774,-2.9033,-2.9133,-2.8559,-2.7516,-2.8028,-2.8402,-2.866,-2.8812,-2.9189,-2.9603,-2.9741,-2.9792,0.0,0.0,0.0,0.0,-2.9428,-2.9302,0.0,0.0,0.0,0.0,0.0,0.0,0.0,0.0,-2.5153,-2.474,-2.4802,0.0,-2.5446,-2.5446,-2.5142,-2.4839,0.0,-2.4489,-2.4273,-2.4454,-2.449,-2.4574,-2.4754,-2.479,-2.4955,-2.549,-2.6119,-2.7082,-2.8733,-3.0953,-3.2773,-3.3815,-3.415,-3.4354,-3.4451,-3.4921,-3.5271,-3.538,-3.5524,-3.5668,-3.58,-3.5908,-3.6015,-3.6098,-3.6275,-3.6405,-3.6405,-3.6405,-3.6405,-3.6405,-3.6405,-3.6405,-3.6405,-3.6405,-3.6405,-3.6405,-3.6405,-3.6405,-3.6405,-3.6405,-3.6405,-3.6405,-3.6405,-3.6405,-3.6405,-3.6405,-3.6405,-3.6405,0.0,0.0,0.0,0.0,0.0,0.0,0.0,0.0,0.0,0.0,0.0,-3.2342,-3.2191,-3.2191,0.0,0.0,0.0,0.0,0.0,0.0,0.0,0.0,0.0,-3.4196,-3.3719,-3.2918,-3.1961,-3.0848,-3.0576,-3.014,-2.9652,-2.974,-2.9308,-2.8428,-2.8711,-2.8873,-2.8913,-2.9214,-2.9503,-2.9792,-2.9792,0.0,0.0,0.0,0.0,0.0,-2.9289,-2.9202,0.0,-2.9289,-2.8973,-2.851,0.0,0.0,0.0,0.0,-2.5337,-2.4809,-2.4326,-2.42,-2.42,-2.42,-2.42,-2.42,-2.42,-2.4273,-2.4381,-2.461,-2.4706,-2.4849,-2.4981,-2.5218,-2.554,-2.5887,-2.6997,-2.8451,-3.0158,-3.1625,-3.2935,-3.3994,-3.4126,-3.4306,-3.4787,-3.492,-3.5078,-3.5175,-3.5223,-3.532,-3.5572,-3.562,-3.5764,-3.5968,-3.6003,-3.6133,-3.6405,-3.6405,-3.6323,-3.6228,-3.6228,-3.6133,-3.6038,-3.6038,-3.6086,-3.6228,-3.6228,-3.6275,-3.6405,-3.6405,-3.6405,-3.6405,-3.6405,-3.6405,-3.6405,-3.6405,-3.6405,-3.6405,0.0,0.0,0.0,0.0,0.0,0.0,0.0,0.0,0.0,0.0,0.0,0.0,0.0,0.0,0.0,0.0,0.0,0.0,0.0,0.0,0.0,0.0,-3.5415,-3.5332,-3.4889,-3.3761,-3.2766,-3.1944,-3.0978,-3.0304,-2.9957,-3.0119,-2.9957,-2.956,-2.9411,-2.92,-2.9051,-2.9578,-2.9792,-2.9792,-2.9792,0.0,0.0,0.0,0.0,0.0,0.0,0.0,0.0,-2.8762,-2.8639,-2.8362,-2.8407,0.0,0.0,0.0,0.0,0.0,-2.4349,-2.4397,-2.4561,-2.4258,-2.4225,-2.4236,-2.4236,-2.4381,-2.461,-2.479,-2.4992,-2.5171,-2.5385,-2.5793,-2.6154,-2.6322,-2.821,-3.0194,-3.1741,-3.209,-3.2491,-3.3416,-3.3525,-3.3861,-3.4691,-3.4775,-3.4872,-3.5126,-3.492,-3.4981,-3.5464,-3.532,-3.5416,-3.586,-3.5716,-3.58,-3.6263,-3.6275,-3.6181,-3.592,-3.592,-3.5824,-3.562,-3.562,-3.5716,-3.5968,-3.5968,-3.6146,-3.6323,-3.6358,-3.6358,-3.6323,-3.6323,-3.6323,-3.6323,-3.6323,-3.6358,-3.6405,0.0,0.0,0.0,0.0,0.0,0.0,0.0,0.0,0.0,0.0,0.0,0.0,0.0,0.0,0.0,0.0,0.0,0.0,0.0,0.0,0.0,-3.5996,-3.5802,-3.4999,-3.3525,-3.4064,-3.328,-3.118,-3.1916,-3.1706,-3.0557,-3.0592,-3.0292,-2.9736,-2.8924,-2.8961,-2.9666,-2.9754,-2.9792,-2.9792,-2.9792,0.0,0.0,0.0,0.0,0.0,0.0,0.0,0.0,-2.82,-2.8151,-2.7843,-2.794,0.0,0.0,0.0,0.0,0.0,-2.4453,-2.5318,-2.6116,-2.4595,-2.4345,-2.4454,-2.4454,-2.461,-2.4825,-2.5016,-2.5087,-2.5278,-2.5865,-2.6045,-2.6394,-2.732,-2.9629,-3.1753,-3.2875,-3.3789,-3.4402,-3.4571,-3.4595,-3.4655,-3.4763,-3.4775,-3.4835,-3.4884,-3.4823,-3.4823,-3.4932,-3.5078,-3.5223,-3.532,-3.5512,-3.562,-3.5704,-3.5704,-3.5704,-3.5668,-3.5668,-3.562,-3.562,-3.562,-3.562,-3.5668,-3.5908,-3.6015,-3.6098,-3.6323,-3.6275,-3.6051,-3.6051,-3.6051,-3.6051,-3.6051,-3.6181,-3.6405,0.0,0.0,0.0,0.0,0.0,0.0,0.0,0.0,0.0,0.0,0.0,0.0,0.0,0.0,0.0,0.0,0.0,0.0,0.0,0.0,-3.5425,-3.5192,-3.4923,-3.4518,-3.3918,-3.3475,-3.2726,-3.1576,-3.1722,-3.16,-3.1183,-3.1096,-3.0877,-3.0592,-2.9826,-2.9706,-3.0113,-2.9908,-2.9792,-2.9792,0.0,0.0,0.0,0.0,0.0,0.0,0.0,0.0,0.0,0.0,-2.7782,-2.7735,-2.7837,0.0,0.0,0.0,0.0,0.0,-2.3947,-2.4247,-2.4941,-2.4977,-2.6092,-2.7191,-2.7191,-2.7349,-2.7269,-2.6491,-2.6436,-2.6403,-2.6154,-2.6815,-2.8138,-3.0362,-3.1252,-3.209,-3.314,-3.3188,-3.3344,-3.3921,-3.3994,-3.421,-3.4727,-3.4775,-3.4775,-3.4775,-3.4775,-3.4775,-3.4775,-3.4932,-3.5078,-3.5223,-3.5175,-3.5223,-3.5368,-3.5223,-3.5223,-3.5368,-3.5368,-3.532,-3.5175,-3.5175,-3.5271,-3.5368,-3.5512,-3.5668,-3.5812,-3.5895,-3.5908,-3.5764,-3.5764,-3.5764,-3.5812,-3.5968,-3.6098,-3.6193,0.0,0.0,0.0,0.0,0.0,0.0,0.0,0.0,0.0,0.0,0.0,0.0,0.0,0.0,0.0,0.0,0.0,0.0,0.0,-3.5734,-3.5746,-3.4838,-3.4507,-3.4167,-3.3824,-3.2682,-3.1979,-3.1771,-3.1351,-3.1162,-3.1249,-3.0942,-3.0906,-3.0987,-3.054,-3.0392,-3.052,-3.0126,-2.9934,-2.9934,0.0,0.0,0.0,0.0,0.0,0.0,0.0,0.0,0.0,0.0,0.0,0.0,0.0,0.0,0.0,-2.6014,-2.5549,-2.509,-2.3488,-2.3354,-2.3908,-2.5167,-2.685,-2.8439,-2.9336,-2.9451,-2.9075,-2.8199,-2.8151,-2.7981,-2.7019,-2.7957,-2.9761,-3.2466,-3.2464,-3.2418,-3.3501,-3.2935,-3.2719,-3.3549,-3.3645,-3.3958,-3.4751,-3.4775,-3.4775,-3.4775,-3.4775,-3.4775,-3.4775,-3.4775,-3.4872,-3.5078,-3.4932,-3.4884,-3.5126,-3.4872,-3.4872,-3.5126,-3.5126,-3.4981,-3.4775,-3.4775,-3.4932,-3.5126,-3.5175,-3.532,-3.5524,-3.5572,-3.5572,-3.5524,-3.5524,-3.5524,-3.5524,-3.5812,-3.592,-3.592,0.0,0.0,0.0,0.0,0.0,0.0,0.0,0.0,0.0,0.0,0.0,0.0,0.0,0.0,0.0,0.0,0.0,0.0,0.0,-3.5983,-3.643,-3.6352,-3.5661,-3.4177,-3.1792,-3.196,-3.1667,-3.0797,-3.1299,-3.1093,-3.0189,-2.9689,-2.9702,-3.0187,-3.015,-3.0414,-3.0949,-3.052,-3.0368,-3.033,-2.9934,0.0,0.0,0.0,0.0,0.0,0.0,0.0,0.0,0.0,0.0,0.0,0.0,0.0,-2.6984,-2.6014,-2.5177,-2.4387,-2.3515,-2.3913,-2.4665,-2.4965,-2.4687,-2.5248,-2.8935,-2.8781,-2.8242,-2.9629,-2.9917,-2.9737,-2.9172,-2.9569,-3.0374,-3.1633,-3.2608,-3.3537,-3.4571,-3.4655,-3.4631,-3.4655,-3.4667,-3.4691,-3.4775,-3.4775,-3.4775,-3.4775,-3.4775,-3.4775,-3.4775,-3.4775,-3.4823,-3.4835,-3.4823,-3.4823,-3.4835,-3.4823,-3.4823,-3.4835,-3.4835,-3.4835,-3.4775,-3.4775,-3.4823,-3.4823,-3.5078,-3.5223,-3.5271,-3.5524,-3.5464,-3.5223,-3.5223,-3.5223,-3.5271,-3.5524,-3.562,-3.562,0.0,0.0,0.0,0.0,0.0,0.0,0.0,0.0,0.0,0.0,0.0,0.0,0.0,0.0,0.0,0.0,0.0,0.0,0.0,-3.6213,-3.5996,-3.5288,-3.4127,-3.3024,-3.201,-3.2512,-3.2055,-3.0521,-3.0751,-3.0455,-2.9754,-3.0175,-2.997,-2.9238,-2.9855,-3.0045,-2.9931,-2.973,-2.9783,-3.0011,-2.9869,-2.9792,0.0,0.0,0.0,0.0,0.0,0.0,0.0,0.0,-2.6565,-2.6794,-2.68,-2.6799,-2.6611,-2.5922,-2.4875,-2.3809,-2.2816,-2.3588,-2.462,-2.4332,-2.4494,-2.583,-2.9808,-3.0341,-3.0039,-3.0435,-3.1122,-3.1324,-3.0446,-3.1264,-3.2214,-3.2611,-3.3561,-3.4378,-3.4727,-3.4775,-3.4775,-3.4775,-3.4775,-3.4775,-3.4775,-3.4775,-3.4775,-3.4775,-3.4775,-3.4775,-3.4775,-3.4775,-3.4775,-3.4775,-3.4775,-3.4775,-3.4775,-3.4775,-3.4775,-3.4775,-3.4775,-3.4775,-3.4775,-3.4775,-3.4775,-3.4835,-3.4932,-3.4932,-3.4981,-3.5078,-3.503,-3.4932,-3.4932,-3.5078,-3.5223,-3.532,-3.5368,-3.5368,0.0,0.0,0.0,0.0,0.0,0.0,0.0,0.0,0.0,0.0,0.0,0.0,0.0,0.0,0.0,0.0,0.0,0.0,-3.6107,-3.626,-3.584,-3.482,-3.3832,-3.2973,-3.23,-3.279,-3.2208,-3.0586,-3.0138,-2.973,-2.9323,-3.0027,-2.9812,-2.8904,-2.9741,-2.9945,-2.9632,-2.9314,-2.936,-2.9593,-2.9366,-2.9264,0.0,0.0,0.0,0.0,0.0,0.0,0.0,0.0,-2.6469,-2.6569,-2.6559,-2.6407,-2.6129,-2.5612,-2.4729,-2.376,-2.2939,-2.3246,-2.3923,-2.4324,-2.4686,-2.6041,-3.0319,-3.0641,-3.0331,-3.1373,-3.1657,-3.161,-3.121,-3.2013,-3.2747,-3.2747,-3.3899,-3.4775,-3.4775,-3.4775,-3.4775,-3.4775,-3.4775,-3.4775,-3.4775,-3.4775,-3.4775,-3.4775,-3.4775,-3.4775,-3.4775,-3.4775,-3.4775,-3.4775,-3.4775,-3.4775,-3.4775,-3.4775,-3.4775,-3.4775,-3.4775,-3.4775,-3.4775,-3.4775,-3.4775,-3.4775,-3.4775,-3.4775,-3.4775,-3.4775,-3.4775,-3.4775,-3.4775,-3.4932,-3.5066,-3.5066,-3.5066,-3.5066,0.0,0.0,0.0,0.0,0.0,0.0,0.0,0.0,0.0,0.0,0.0,0.0,0.0,0.0,0.0,0.0,0.0,0.0,-3.5521,-3.6122,-3.6179,-3.5432,-3.5385,-3.4405,-3.2348,-3.247,-3.204,-3.1003,-2.96,-2.8911,-2.8877,-2.8884,-2.8986,-2.9194,-2.982,-3.0206,-3.0336,-2.9517,-2.9187,-2.9129,-2.8388,-2.8109,-2.8047,0.0,0.0,0.0,0.0,0.0,0.0,0.0,-2.5983,-2.6032,-2.5641,-2.5594,-2.5601,-2.5073,-2.4711,-2.4436,-2.4078,-2.3006,-2.2572,-2.5128,-2.4984,-2.5401,-3.0228,-2.924,-2.8464,-3.2385,-3.1466,-3.0301,-3.141,-3.1613,-3.1613,-3.1601,-3.3395,-3.4775,-3.4775,-3.4775,-3.4775,-3.4775,-3.4775,-3.4775,-3.4775,-3.4775,-3.4775,-3.4775,-3.4775,-3.4775,-3.4775,-3.4775,-3.4775,-3.4775,-3.4775,-3.4775,-3.4775,-3.4775,-3.4775,-3.4775,-3.4775,-3.4775,-3.4775,-3.4775,-3.4775,-3.4775,-3.4775,-3.4775,-3.4775,-3.4775,-3.4775,-3.4775,-3.4775,-3.4775,-3.4775,-3.4775,-3.4775,-3.4775,0.0,0.0,0.0,0.0,0.0,0.0,0.0,0.0,0.0,0.0,0.0,0.0,0.0,0.0,0.0,0.0,0.0,0.0,-3.6153,-3.6384,-3.6383,-3.6179,-3.4358,-3.327,-3.3091,-3.1338,-3.0301,-3.0079,-2.9238,-2.8662,-2.8345,-2.8879,-2.8638,-2.7852,-2.883,-2.9074,-2.8799,-2.8773,-2.8786,-2.8759,-2.8556,-2.8303,-2.8084,0.0,0.0,0.0,0.0,0.0,0.0,0.0,0.0,0.0,-2.602,-2.5759,-2.5468,-2.5033,-2.4303,-2.3663,-2.3728,-2.5149,-2.6437,-2.5634,-2.7318,-2.9534,-3.0951,-3.0664,-3.0697,-3.275,-3.1436,-3.0035,-3.0411,-3.1097,-3.1329,-3.0606,-3.229,-3.3659,-3.3659,-3.4323,-3.4775,-3.4775,-3.4775,-3.4775,-3.4775,-3.4775,-3.4775,-3.4775,-3.4775,-3.4775,-3.4775,-3.4775,-3.4775,-3.4775,-3.4775,-3.4775,-3.4775,-3.4775,-3.4775,-3.4775,-3.4775,-3.4775,-3.4775,-3.4775,-3.4775,-3.4775,-3.4775,-3.4775,-3.4775,-3.4775,-3.4775,-3.4775,-3.4775,-3.4775,-3.4775,-3.4775,-3.4775,-3.4775,0.0,0.0,0.0,0.0,0.0,0.0,0.0,0.0,0.0,0.0,-3.5891,0.0,0.0,0.0,0.0,0.0,0.0,0.0,0.0,-3.5997,-3.558,-3.5281,-3.3235,-3.2047,-3.1933,-3.0154,-2.9247,-2.9345,-2.8925,-2.849,-2.8125,-2.8538,-2.8332,-2.7603,-2.8272,-2.8464,-2.8283,-2.8384,-2.831,-2.816,-2.802,-2.7751,-2.7457,0.0,0.0,0.0,0.0,0.0,0.0,0.0,0.0,0.0,-2.5889,-2.5527,-2.5162,-2.4966,-2.457,-2.4438,-2.529,-2.681,-2.8188,-2.8311,-2.9834,-3.1553,-3.25,-3.2048,-3.1517,-3.1844,-3.0484,-2.9402,-2.9867,-3.0472,-3.0715,-3.0059,-3.1795,-3.3201,-3.3201,-3.4115,-3.4775,-3.4775,-3.4775,-3.4775,-3.4775,-3.4775,-3.4775,-3.4775,-3.4775,-3.4775,-3.4775,-3.4775,-3.4775,-3.4775,-3.4775,-3.4775,-3.4775,-3.4775,-3.4775,-3.4775,-3.4775,-3.4775,-3.4775,-3.4775,-3.4775,-3.4775,-3.4775,-3.4775,-3.4775,-3.4775,-3.4775,-3.4775,-3.4775,-3.4775,-3.4775,-3.4775,-3.4775,-3.4775,0.0,0.0,0.0,0.0,0.0,0.0,0.0,0.0,0.0,0.0,-3.6492,-3.6492,0.0,0.0,0.0,0.0,0.0,0.0,0.0,-3.5304,-3.4312,-3.3522,-3.2198,-3.0889,-2.9646,-2.9053,-2.878,-2.878,-2.8651,-2.8438,-2.8112,-2.8112,-2.8112,-2.8112,-2.8112,-2.8308,-2.8587,-2.8276,-2.7901,-2.7536,-2.7209,-2.6884,-2.6589,-2.6568,0.0,0.0,0.0,0.0,0.0,0.0,0.0,0.0,-2.55,-2.5123,-2.4836,-2.4865,-2.5329,-2.62,-2.783,-2.8107,-2.8738,-3.206,-3.2218,-3.2113,-3.4052,-3.3001,-3.1319,-3.0287,-2.9112,-2.8601,-2.9565,-2.9765,-2.9765,-2.9765,-3.1615,-3.3051,-3.3051,-3.4066,-3.4775,-3.4775,-3.4775,-3.4775,-3.4775,-3.4775,-3.4775,-3.4775,-3.4775,-3.4775,-3.4775,-3.4775,-3.4775,-3.4775,-3.4775,-3.4775,-3.4775,-3.4775,-3.4775,-3.4775,-3.4775,-3.4775,-3.4775,-3.4775,-3.4775,-3.4775,-3.4775,-3.4775,-3.4775,-3.4775,-3.4775,-3.4775,-3.4775,-3.4775,-3.4775,-3.4775,-3.4775,-3.4775,0.0,0.0,0.0,0.0,0.0,0.0,0.0,0.0,0.0,0.0,0.0,0.0,0.0,0.0,0.0,0.0,0.0,0.0,0.0,-3.5916,-3.5493,-3.4161,-3.244,-3.0661,-2.8869,-2.8719,-2.8651,-2.8651,-2.8716,-2.8522,-2.8112,-2.8373,-2.8341,-2.8112,-2.8373,-2.8522,-2.8587,-2.8346,-2.8151,-2.7947,-2.7723,-2.749,-2.7268,-2.6985,-2.6871,0.0,0.0,0.0,0.0,0.0,0.0,0.0,-2.5898,-2.55,-2.5135,-2.4907,-2.577,-2.6859,-2.7277,-2.9378,-3.1624,-3.2378,-3.3301,-3.3763,-3.2571,-3.1931,-3.1524,-3.1268,-2.9681,-2.8398,-2.8601,-2.8644,-2.8644,-2.8644,-3.0494,-3.1931,-3.1931,-3.361,-3.4775,-3.4775,-3.4775,-3.4775,-3.4775,-3.4775,-3.4775,-3.4775,-3.4775,-3.4775,-3.4775,-3.4775,-3.4775,-3.4775,-3.4775,-3.4775,-3.4775,-3.4775,-3.4775,-3.4775,-3.4775,-3.4775,-3.4775,-3.4775,-3.4775,-3.4775,-3.4775,-3.4775,-3.4775,-3.4775,-3.4775,-3.4775,-3.4775,-3.4775,-3.4775,-3.4775,-3.4775,-3.4775,0.0,0.0,0.0,0.0,0.0,0.0,0.0,0.0,0.0,0.0,0.0,0.0,0.0,0.0,0.0,0.0,0.0,0.0,0.0,0.0,-3.4224,-3.252,-3.1219,-3.0077,-2.9067,-2.8736,-2.8587,-2.8587,-2.8651,-2.8392,-2.7802,-2.7822,-2.7756,-2.759,-2.7756,-2.802,-2.836,-2.8249,-2.8164,-2.8079,-2.8,-2.7769,-2.7503,-2.7323,-2.7142,-2.6973,-2.6816,0.0,0.0,0.0,0.0,0.0,0.0,0.0,-2.5513,-2.5217,-2.5793,-2.6786,-2.8244,-3.0074,-3.1911,-3.325,-3.4222,-3.4519,-3.34,-3.2739,-3.2235,-3.1728,-2.9828,-2.8237,-2.8121,-2.8237,-2.8237,-2.813,-2.9618,-3.0805,-3.0805,-3.2639,-3.4017,-3.4017,-3.447,-3.4775,-3.4775,-3.4775,-3.4775,-3.4775,-3.4775,-3.4775,-3.4775,-3.4775,-3.4775,-3.4775,-3.4775,-3.4775,-3.4775,-3.4775,-3.4775,-3.4775,-3.4775,-3.4775,-3.4775,-3.4775,-3.4775,-3.4775,-3.4775,-3.4775,-3.4775,-3.4775,-3.4775,-3.4775,-3.4775,-3.4775,-3.4775,-3.4775,-3.4775,-3.4775,0.0,0.0,0.0,0.0,0.0,0.0,0.0,0.0,0.0,0.0,0.0,0.0,0.0,0.0,0.0,0.0,0.0,0.0,0.0,0.0,0.0,-3.0808,-3.0133,-2.9719,-2.9515,-2.8994,-2.8695,-2.8587,-2.8522,-2.8164,-2.749,-2.7289,-2.7142,-2.7074,-2.7074,-2.7404,-2.7933,-2.79,-2.7899,-2.7883,-2.7838,-2.7696,-2.7512,-2.7379,-2.7232,-2.7074,-2.6939,-2.6748,-2.6499,-2.6499,0.0,0.0,0.0,0.0,-2.5856,-2.5563,-2.5774,-2.6681,-2.9088,-3.0328,-3.1547,-3.4174,-3.4775,-3.4726,-3.458,-3.3857,-3.2901,-3.183,-2.9984,-2.8441,-2.8067,-2.8121,-2.8237,-2.8014,-2.9049,-2.9922,-2.9922,-3.1666,-3.2901,-3.2901,-3.3869,-3.4519,-3.4519,-3.4677,-3.4775,-3.4775,-3.4775,-3.4775,-3.4775,-3.4775,-3.4775,-3.4775,-3.4775,-3.4775,-3.4775,-3.4775,-3.4775,-3.4775,-3.4775,-3.4775,-3.4775,-3.4775,-3.4775,-3.4775,-3.4775,-3.4775,-3.4775,-3.4775,-3.4775,-3.4775,-3.4775,-3.4775,-3.4775,-3.4775,-3.4775,-3.4775,0.0,0.0,0.0,0.0,0.0,0.0,0.0,0.0,0.0,0.0,-3.6492,-3.6492,0.0,0.0,0.0,0.0,0.0,0.0,0.0,0.0,0.0,-3.2059,-3.1405,-3.0554,-2.9529,-2.9434,-2.9135,-2.8587,-2.8308,-2.7947,-2.749,-2.7802,-2.7769,-2.7423,-2.7423,-2.7394,-2.7301,-2.7146,-2.7013,-2.6975,-2.6781,-2.709,-2.7593,-2.6946,-2.7013,-2.7356,-2.6794,-2.6521,-2.6499,-2.6499,-2.6499,0.0,0.0,0.0,-2.5805,-2.5431,-2.6332,-2.7442,-2.7494,-2.982,-3.2649,-3.4354,-3.4775,-3.458,-3.361,-3.33,-3.2901,-3.183,-3.0598,-2.9418,-2.8441,-2.8291,-2.8291,-2.8237,-2.9154,-2.9922,-2.9922,-3.1,-3.183,-3.183,-3.2739,-3.34,-3.34,-3.4274,-3.4775,-3.4775,-3.4775,-3.4775,-3.4775,-3.4775,-3.4775,-3.4775,-3.4775,-3.4775,-3.4775,-3.4775,-3.4775,-3.4775,-3.4775,-3.4775,-3.4775,-3.4775,-3.4775,-3.4775,-3.4775,-3.4775,-3.4775,-3.4775,-3.4775,-3.4775,-3.4775,-3.4775,-3.4775,-3.4775,-3.4775,-3.4775,0.0,0.0,0.0,0.0,0.0,0.0,0.0,0.0,0.0,0.0,0.0,-3.6352,0.0,0.0,0.0,0.0,0.0,0.0,0.0,0.0,0.0,-3.2246,-3.1627,-3.1042,-3.0513,-2.9922,-2.9446,-2.9122,-2.8828,-2.836,-2.7848,-2.7901,-2.7603,-2.693,-2.693,-2.6992,-2.7065,-2.6687,-2.6594,-2.6738,-2.685,-2.7442,-2.8211,-2.7851,-2.8093,-2.8489,-2.742,-2.6952,-2.6748,-2.6555,-2.6499,-2.6499,-2.6499,0.0,0.0,0.0,-2.6045,-2.6841,-2.8215,-3.0508,-3.2875,-3.439,-3.4775,-3.4677,-3.4213,-3.4115,-3.3808,-3.2739,-3.2072,-3.1195,-2.9303,-2.8591,-2.8237,-2.8121,-2.8591,-2.9006,-2.9006,-2.9932,-3.065,-3.065,-3.1626,-3.2538,-3.3151,-3.361,-3.4164,-3.4726,-3.4775,-3.4775,-3.4775,-3.4775,-3.4775,-3.4775,-3.4775,-3.4775,-3.4775,-3.4775,-3.4775,-3.4775,-3.4775,-3.4775,-3.4775,-3.4775,-3.4775,-3.4775,-3.4775,-3.4775,-3.4775,-3.4775,-3.4775,-3.4775,-3.4775,-3.4775,-3.4775,-3.4775,-3.4775,-3.4775,0.0,0.0,0.0,0.0,0.0,0.0,0.0,0.0,0.0,0.0,0.0,0.0,0.0,0.0,0.0,0.0,0.0,0.0,0.0,0.0,0.0,-3.2205,-3.1762,-3.1382,-3.1083,-3.0276,-2.9697,-2.9318,-2.8998,-2.8554,-2.8013,-2.7723,-2.7209,-2.6499,-2.6499,-2.6603,-2.6729,-2.6191,-2.6116,-2.6414,-2.6927,-2.7702,-2.8618,-2.8758,-2.9199,-2.9548,-2.8129,-2.7532,-2.7348,-2.6889,-2.67,-2.67,-2.67,-2.6612,0.0,0.0,0.0,-2.6226,-2.8675,-3.035,-3.189,-3.3741,-3.4234,-3.4342,-3.4691,-3.4775,-3.458,-3.3758,-3.34,-3.2627,-3.0773,-2.9503,-2.8538,-2.8067,-2.8184,-2.8291,-2.8291,-2.9006,-2.9513,-2.9513,-3.0494,-3.1462,-3.2275,-3.2639,-3.325,-3.4323,-3.4372,-3.4519,-3.4775,-3.4775,-3.4775,-3.4775,-3.4775,-3.4775,-3.4775,-3.4775,-3.4775,-3.4775,-3.4775,-3.4775,-3.4775,-3.4775,-3.4775,-3.4775,-3.4775,-3.4775,-3.4775,-3.4775,-3.4775,-3.4775,-3.4775,-3.4775,-3.4775,-3.4775,-3.4775,-3.4775,0.0,0.0,0.0,0.0,0.0,0.0,0.0,0.0,0.0,0.0,0.0,0.0,-3.438,-3.4346,-3.4346,-3.4312,-3.3665,0.0,0.0,0.0,0.0,-3.2218,-3.2191,0.0,-3.0473,-3.0391,-2.9862,-2.8835,-2.8387,-2.8033,-2.7809,-2.7276,-2.685,-2.6499,-2.6499,-2.6367,-2.6107,-2.5576,-2.5382,-2.5555,-2.6501,-2.7495,-2.8404,-2.9154,-2.9808,-3.0145,-2.845,-2.8187,-2.8487,-2.7561,-2.7278,-2.7278,-2.7278,-2.6914,-2.643,0.0,0.0,0.0,-2.7711,-2.8311,-2.9193,-3.193,-3.2623,-3.3008,-3.445,-3.4775,-3.4775,-3.4726,-3.3918,-3.3151,-3.3051,-3.1257,-2.946,-2.8451,-2.8291,-2.8291,-2.8291,-2.8344,-2.8398,-2.8398,-2.9313,-3.0026,-3.0078,-3.1062,-3.2134,-3.3201,-3.33,-3.3709,-3.4726,-3.4775,-3.4775,-3.4775,-3.4775,-3.4775,-3.4775,-3.4775,-3.4775,-3.4775,-3.4775,-3.4775,-3.4775,-3.4775,-3.4775,-3.4775,-3.4775,-3.4775,-3.4775,-3.4775,-3.4775,-3.4775,-3.4775,-3.4775,-3.4775,-3.4775,-3.4775,-3.4775,0.0,0.0,0.0,0.0,0.0,0.0,0.0,0.0,0.0,0.0,0.0,0.0,0.0,-3.2497,-3.2311,-3.1852,-3.1903,0.0,0.0,0.0,0.0,-3.2218,-3.2218,-3.2015,-3.1544,-3.0875,-3.031,-2.9821,-2.8882,-2.8131,-2.759,-2.7276,-2.6905,-2.6474,-2.6109,-2.6068,-2.6278,-2.5,-2.4874,-2.5659,-2.7135,-2.8521,-2.9807,-3.0648,-3.1883,-3.287,-3.0799,-2.9954,-2.9676,-2.8864,-2.7919,-2.7074,-2.6949,-2.6775,-2.6577,-2.6302,-2.6233,-2.6524,-2.794,-2.8231,-2.8614,-3.0749,-3.191,-3.2647,-3.3212,-3.4102,-3.4775,-3.4775,-3.3967,-3.3001,-3.2286,-3.0949,-2.9765,-2.9418,-2.8751,-2.8291,-2.8291,-2.8291,-2.8291,-2.8291,-2.8654,-2.9154,-2.9817,-3.0287,-3.0949,-3.2083,-3.2185,-3.2336,-3.275,-3.34,-3.3758,-3.3758,-3.4421,-3.4775,-3.4775,-3.4775,-3.4775,-3.4775,-3.4115,-3.3758,-3.3758,-3.3758,-3.3758,-3.3808,-3.447,-3.4775,-3.4775,-3.4775,-3.4775,-3.4775,-3.4775,-3.4775,-3.4775,-3.4775,-3.4775,-3.4775,0.0,0.0,0.0,0.0,0.0,0.0,0.0,0.0,0.0,-3.0477,0.0,0.0,0.0,0.0,-3.1447,-3.0752,-3.107,-3.1463,-3.1857,-3.1884,-3.2001,-3.2205,-3.2218,-3.2123,-3.1884,-3.0998,-3.0419,-3.0161,-2.8891,-2.802,-2.759,-2.7142,-2.6816,-2.6461,-2.5674,-2.5749,-2.6411,-2.5084,-2.501,-2.5949,-2.7998,-2.9576,-3.0736,-3.1657,-3.2933,-3.3925,-3.1781,-3.0917,-3.0775,-3.0407,-2.9593,-2.8638,-2.7948,-2.7265,-2.6679,-2.6611,-2.6645,-2.6873,-2.7674,-2.7791,-2.8027,-2.9484,-3.0474,-3.1342,-3.2295,-3.3296,-3.4186,-3.4667,-3.4213,-3.3411,-3.2336,-3.1206,-3.0235,-2.946,-2.8751,-2.8291,-2.8291,-2.8291,-2.8291,-2.8291,-2.8291,-2.8601,-2.9313,-2.9365,-2.9828,-3.0959,-3.1011,-3.1216,-3.1575,-3.2639,-3.3362,-3.3709,-3.4421,-3.4775,-3.4775,-3.4775,-3.4628,-3.4274,-3.356,-3.3001,-3.27,-3.3051,-3.3201,-3.325,-3.4323,-3.4775,-3.4775,-3.4775,-3.4775,-3.4775,-3.4775,-3.4775,-3.4775,-3.4775,-3.458,-3.4274,0.0,0.0,0.0,0.0,0.0,0.0,0.0,0.0,-2.8743,-2.8428,0.0,0.0,0.0,0.0,0.0,-3.1314,-3.1273,-3.126,-3.126,-3.126,-3.1517,-3.2137,0.0,0.0,-3.1287,-3.069,-3.0113,-2.9668,-2.8213,-2.759,-2.7756,-2.6871,-2.6461,-2.6424,-2.531,-2.5423,-2.6436,-2.5799,-2.5785,-2.6343,-2.9045,-3.0445,-3.1068,-3.211,-3.2869,-3.3145,-3.1228,-3.1074,-3.1837,-3.2149,-3.2202,-3.1838,-3.0245,-2.8344,-2.676,-2.6943,-2.7146,-2.7201,0.0,0.0,0.0,-2.8039,-2.8282,-2.8998,-3.1737,-3.2394,-3.2875,-3.439,-3.4715,-3.4374,-3.335,-3.2286,-3.0856,-2.8654,-2.8291,-2.8291,-2.8291,-2.8291,-2.8291,-2.8291,-2.8291,-2.8291,-2.8291,-2.8291,-2.8751,-2.9765,-2.9869,-3.0338,-3.1421,-3.2538,-3.361,-3.4726,-3.4726,-3.4775,-3.4775,-3.4775,-3.4213,-3.3201,-3.3151,-3.2538,-3.1575,-3.2639,-3.3101,-3.3151,-3.4225,-3.4726,-3.4726,-3.4775,-3.4775,-3.4775,-3.4775,-3.4775,-3.4775,-3.4775,-3.4115,-3.3201,0.0,0.0,0.0,0.0,0.0,-2.9108,-2.8882,-2.8297,-2.7859,0.0,0.0,0.0,-2.8431,-2.9236,-2.9931,-3.0177,-3.0475,-3.0649,-3.0649,-3.0649,-3.073,-3.0893,-3.0907,-3.0825,-3.0649,-2.9766,-2.9248,-2.9121,-2.7785,-2.7175,-2.7196,-2.6295,-2.5837,-2.5799,-2.5121,-2.5197,-2.5808,-2.4833,-2.5199,-2.6636,-2.958,-3.1312,-3.2314,-3.4117,-3.53,-3.5882,-3.4689,-3.4108,-3.3898,-3.3763,-3.2168,-2.9974,-2.8306,-2.7476,-2.7167,-2.7302,-2.7335,-2.7302,-2.7289,0.0,0.0,0.0,0.0,0.0,-2.9276,-3.0138,-3.1216,-3.2815,-3.25,-3.1903,-3.2046,-3.1114,-2.9932,-2.8548,-2.8291,-2.8291,-2.8291,-2.8291,-2.8291,-2.8291,-2.8291,-2.8291,-2.8291,-2.8291,-2.8398,-2.8698,-2.8751,-2.8857,-2.9217,-3.0235,-3.1666,-3.356,-3.3659,-3.4017,-3.4775,-3.4017,-3.3511,-3.3201,-3.1564,-3.0639,-3.039,-3.0691,-3.0794,-3.0897,-3.1982,-3.2488,-3.26,-3.4164,-3.4775,-3.4775,-3.4775,-3.4775,-3.4775,-3.4775,-3.4115,-3.3201,0.0,0.0,0.0,0.0,0.0,-2.9186,-2.8412,-2.8105,-2.7752,0.0,0.0,0.0,-2.8255,-2.8947,-2.9341,-2.9209,-2.9417,-2.9636,-2.9773,-2.976,-2.9949,-3.0391,-3.0405,-3.0405,-3.0405,-2.9395,-2.8905,-2.8905,-2.7616,-2.7007,-2.6994,-2.6304,-2.5824,-2.5573,-2.5059,-2.4963,-2.5234,-2.4607,-2.5159,-2.6751,-2.9909,-3.1595,-3.245,-3.4257,-3.5436,-3.6058,-3.5226,-3.4809,-3.4686,-3.506,-3.3166,-3.0444,-2.9324,-2.8472,-2.7821,-2.7512,-2.7572,-2.7735,-2.7568,-2.7255,-2.7019,-2.7007,0.0,0.0,-2.9008,-2.9809,-3.0925,-3.2996,-3.2924,-3.2301,-3.1726,-3.1062,-3.0078,-2.8548,-2.8291,-2.8291,-2.8291,-2.8291,-2.8291,-2.8291,-2.8291,-2.8291,-2.8291,-2.8291,-2.8291,-2.8291,-2.8291,-2.8504,-2.8953,-2.9565,-3.0691,-3.2499,-3.2951,-3.3511,-3.4115,-3.3511,-3.3001,-3.2488,-3.0742,-2.967,-2.926,-2.9723,-2.9922,-2.9974,-3.1114,-3.1575,-3.1677,-3.2951,-3.3461,-3.3511,-3.3967,-3.4115,-3.4115,-3.4115,-3.3461,-3.2437,0.0,0.0,-3.0101,-2.9693,-2.9603,-2.9252,-2.8172,-2.82,-2.7936,0.0,-2.7554,-2.8517,-2.919,-2.966,-2.9539,-2.8499,-2.8477,-2.8602,-2.8896,-2.893,-2.9293,-3.0146,-3.0227,-3.024,-3.0173,-2.932,-2.8836,-2.8769,-2.7613,-2.7003,-2.6939,-2.6582,-2.6097,-2.5485,-2.4988,-2.4788,-2.48,-2.4958,-2.5674,-2.704,-3.0131,-3.1637,-3.2117,-3.3607,-3.4527,-3.491,-3.4395,-3.4382,-3.4781,-3.5781,-3.4449,-3.2307,-3.1678,-3.0394,-2.8818,-2.7803,-2.804,-2.8495,-2.7855,-2.7686,-2.7605,-2.7258,-2.713,0.0,-2.9722,-3.0163,-3.088,-3.3556,-3.4089,-3.3492,-3.1623,-3.1256,-3.0549,-2.8366,-2.8137,-2.8231,-2.8271,-2.8291,-2.8291,-2.8291,-2.8291,-2.8291,-2.8291,-2.8291,-2.8291,-2.8291,-2.8291,-2.8698,-2.967,-2.9713,-3.0235,-3.137,-3.2336,-3.2889,-3.3001,-3.2889,-3.2336,-3.1421,-3.0287,-2.9207,-2.8344,-2.9313,-2.9713,-2.9775,-3.0805,-3.1216,-3.1216,-3.1216,-3.137,-3.1677,-3.265,-3.3001,-3.3001,-3.3001,-3.2336,-3.1268,0.0,-2.8748,-2.9026,-2.8511,-2.8436,-2.821,-2.7544,-2.7138,-2.6795,-2.6524,-2.7069,-2.7908,-2.8872,-2.8976,-2.8862,-2.8582,-2.8853,-2.9065,-2.9136,-2.9136,-2.9013,-2.8707,-2.9175,-2.9201,-2.8707,-2.8672,-2.8444,-2.8014,-2.7507,-2.7031,-2.6577,-2.6009,-2.5485,-2.4938,-2.4838,-2.4788,-2.485,-2.5762,-2.703,-2.8624,-3.0595,-3.198,-3.3066,-3.5123,-3.5974,-3.6067,-3.5974,-3.5974,-3.5856,-3.4758,-3.4022,-3.3199,-3.1036,-3.0696,-3.0775,-2.9166,-2.9378,-2.9971,-2.9174,-2.8935,-2.8817,-2.8252,-2.7894,0.0,-2.7685,-2.7452,-2.7667,-2.926,-2.9585,-2.9472,-2.9155,-2.9105,-2.8464,-2.6455,-2.7013,-2.7854,-2.8251,-2.8291,-2.8291,-2.8291,-2.8291,-2.8291,-2.8291,-2.8291,-2.8291,-2.8291,-2.8291,-2.8398,-2.8601,-2.8601,-2.9112,-3.0182,-3.0432,-3.1,-3.188,-3.1,-3.0432,-3.0235,-2.9112,-2.8495,-2.8291,-2.8495,-2.8601,-2.8601,-2.8857,-2.8963,-2.8963,-2.8963,-2.9984,-3.1626,-3.183,-3.1931,-3.1931,-3.1931,-3.1206,-3.0182,-2.7695,-2.836,-2.88,-2.8561,-2.8988,-2.9026,-2.8015,-2.7839,-2.7594,-2.6853,-2.7221,-2.7652,-2.7921,-2.8112,-2.8139,-2.7822,-2.7983,-2.8157,-2.8248,-2.8248,-2.8165,-2.79,-2.8195,-2.8221,-2.79,-2.7851,-2.7677,-2.7396,-2.7075,-2.6763,-2.6487,-2.6197,-2.5921,-2.5624,-2.5335,-2.5372,-2.5661,-2.5946,-2.7318,-2.9503,-3.1148,-3.2478,-3.3696,-3.5676,-3.6405,-3.6405,-3.6405,-3.6405,-3.6279,-3.5449,-3.4399,-3.3338,-3.229,-3.183,-3.1407,-2.9922,-3.0238,-3.0763,-2.9486,-2.9216,-2.9244,-2.893,-2.8456,0.0,0.0,-2.8219,-2.8257,-2.9506,-2.9735,-2.9516,-2.887,-2.8752,-2.8179,-2.6506,-2.7013,-2.7435,-2.7031,-2.773,-2.8291,-2.8291,-2.8291,-2.8291,-2.8291,-2.8291,-2.8291,-2.8291,-2.8291,-2.8291,-2.8291,-2.8291,-2.8548,-2.9112,-2.9618,-3.0182,-3.0753,-3.0182,-2.9922,-2.9869,-2.8804,-2.8291,-2.8291,-2.8291,-2.8291,-2.8291,-2.8291,-2.8291,-2.8291,-2.8291,-2.8963,-2.9984,-3.0546,-3.0753,-3.0753,-3.0753,-3.039,-2.9817,-2.7324,-2.803,-2.8686,-2.8686,-2.9428,-2.9669,-2.8464,-2.8551,-2.8395,-2.7297,-2.7639,-2.7783,-2.7327,-2.794,-2.8221,-2.7729,-2.7882,-2.7979,-2.7936,-2.7958,-2.7855,-2.7517,-2.7608,-2.7608,-2.7538,-2.7323,-2.7139,-2.7071,-2.6788,-2.66,-2.6499,-2.6499,-2.6499,-2.6487,-2.6302,-2.6377,-2.665,-2.6578,-2.7996,-3.0382,-3.18,-3.3056,-3.4223,-3.5814,-3.6405,-3.6405,-3.6405,-3.6405,-3.638,-3.6166,-3.4909,-3.3395,-3.3407,-3.2877,-3.1997,-3.0467,-3.0879,-3.1486,-2.9794,-2.9434,-2.9526,-2.934,-2.8943,-2.8786,0.0,0.0,0.0,-3.0207,-3.0405,-2.9995,-2.8674,-2.8416,-2.7949,-2.6505,-2.6718,-2.6651,-2.5427,-2.6594,-2.7549,-2.7549,-2.7988,-2.8193,-2.7949,-2.792,-2.8027,-2.8271,-2.8066,-2.8037,-2.8281,-2.8291,-2.8291,-2.8291,-2.9154,-2.9565,-2.9565,-2.9565,-2.9565,-2.9565,-2.8698,-2.8291,-2.8291,-2.8291,-2.8291,-2.8291,-2.8291,-2.8291,-2.8291,-2.8291,-2.8291,-2.8398,-2.926,-2.9565,-2.9565,-2.9565,-2.9565,-2.9471,-2.7024,-2.7531,-2.7927,-2.7927,-2.8042,-2.8068,-2.7899,-2.7527,-2.7374,-2.769,-2.8228,-2.8503,-2.8272,-2.9606,-3.0467,-3.0234,-3.105,-3.1241,-3.0284,-3.0404,-2.963,-2.7682,-2.8041,-2.8079,-2.7605,-2.7849,-2.7742,-2.7264,-2.7228,-2.6977,-2.6499,-2.6499,-2.6499,-2.6549,-2.7921,-2.8047,-2.7318,-2.9227,-3.0783,-3.2001,-3.2704,-3.3646,-3.4751,-3.5918,-3.6405,-3.6405,-3.6405,-3.6405,-3.6267,-3.524,-3.4751,-3.4198,-3.2277,-3.2905,-3.379,-3.0949,-3.1561,-3.2804,-3.0984,-3.0504,-3.0332,-2.95,-2.9258,-2.8948,-2.8009,0.0,-2.7673,-2.7511,0.0,-2.7237,-2.6403,0.0,0.0,-2.4599,-2.4849,-2.4892,-2.4032,-2.4431,-2.4853,-2.4853,-2.6894,-2.7851,-2.6719,-2.6602,-2.707,-2.8203,-2.7246,-2.71,-2.8232,-2.8291,-2.8291,-2.8291,-2.8398,-2.8495,-2.8495,-2.8495,-2.8495,-2.8495,-2.8344,-2.8291,-2.8291,-2.8291,-2.8291,-2.8291,-2.8291,-2.8291,-2.8291,-2.8291,-2.8291,-2.8291,-2.8451,-2.8495,-2.8495,-2.8495,-2.8495,-2.8441,-2.676,-2.7331,-2.7806,-2.7806,-2.8039,-2.819,-2.8022,-2.7597,-2.7441,-2.7928,-2.8177,-2.8389,-2.8494,-2.9157,-2.9808,-3.0367,-3.0849,-3.0733,-2.9871,-2.9846,-2.9036,-2.7044,-2.7183,-2.7195,-2.6955,-2.7112,-2.7065,-2.6839,-2.6839,-2.676,-2.6624,-2.6624,-2.6978,-2.766,-2.8621,-2.9139,-2.9264,-2.988,-3.0934,-3.2227,-3.2478,-3.3445,-3.4839,-3.599,-3.6405,-3.6405,-3.6405,-3.6405,-3.6342,-3.583,-3.4826,-3.3822,-3.4218,-3.3583,-3.2641,-3.2025,-3.2095,-3.2057,-3.0292,-3.0637,-3.1151,-2.9904,-3.0084,-3.0279,-2.9229,-2.8778,-2.8404,-2.7915,0.0,0.0,0.0,0.0,0.0,0.0,-2.4885,-2.4591,-2.2847,-2.3637,-2.4414,-2.4414,-2.5381,-2.6133,-2.6367,-2.6387,-2.6924,-2.8193,-2.7109,-2.6953,-2.8223,-2.8291,-2.8291,-2.8291,-2.8291,-2.8291,-2.8291,-2.8291,-2.8291,-2.8291,-2.8291,-2.8291,-2.8291,-2.8291,-2.8291,-2.8291,-2.8291,-2.8291,-2.8291,-2.8291,-2.8291,-2.8291,-2.8291,-2.8291,-2.8291,-2.8291,-2.8291,-2.8291,-2.6551,-2.7164,-2.7657,-2.7726,-2.8026,-2.8254,-2.8127,-2.7863,-2.7798,-2.8195,-2.8379,-2.8566,-2.8735,-2.9565,-3.0458,-3.122,-3.1996,-3.1787,-3.0365,-3.0176,-2.9302,-2.7538,-2.6883,-2.6769,-2.7223,-2.6911,-2.6713,-2.6713,-2.676,-2.6788,-2.6809,-2.6797,-2.7341,-2.8397,-2.9112,-2.996,-3.0914,-3.0773,-3.1549,-3.2905,-3.2905,-3.359,-3.4839,-3.599,-3.6405,-3.6405,-3.6405,-3.6405,-3.6367,-3.6065,-3.4851,-3.3759,-3.5097,-3.4054,-3.2403,-3.2918,-3.2844,-3.2133,-3.0366,-3.0877,-3.1519,-2.9902,-3.0223,-3.07,-2.9783,-2.9399,-2.9082,-2.8503,-2.8235,0.0,0.0,0.0,-2.623,-2.4791,0.0,-2.4193,-2.2244,-2.2783,-2.3359,-2.3359,-2.3682,-2.4404,-2.5723,-2.5537,-2.5957,-2.748,-2.6406,-2.6338,-2.7861,-2.7939,-2.7939,-2.7939,-2.8057,-2.8125,-2.8125,-2.8232,-2.8291,-2.8291,-2.8291,-2.8291,-2.8291,-2.8291,-2.8291,-2.8291,-2.8291,-2.8291,-2.8291,-2.8291,-2.8291,-2.8291,-2.8291,-2.8291,-2.8291,-2.8291,-2.8291,-2.8291,-2.6415,-2.6907,-2.7361,-2.7496,-2.7529,-2.7657,-2.8032,-2.811,-2.8221,-2.8549,-2.9089,-2.941,-2.9212,-3.2092,-3.3971,-3.3803,-3.6207,-3.637,-3.3187,-3.2596,-3.163,-2.9961,-2.7832,-2.744,-2.9086,-2.7904,-2.7256,-2.7256,-2.7493,-2.7412,-2.7089,-2.7012,-2.746,-2.8359,-2.9478,-3.0607,-3.1706,-3.2613,-3.3621,-3.4638,-3.4638,-3.4675,-3.4839,-3.599,-3.6405,-3.6405,-3.6405,-3.6405,-3.6241,-3.514,-3.4726,-3.45,-3.3495,-3.3847,-3.4412,-3.3382,-3.3809,-3.418,-3.2174,-3.1658,-3.1244,-2.9242,-2.9151,-2.9329,-2.8363,-2.8601,-2.8905,-2.8469,-2.784,-2.7067,-2.6099,-2.5931,-2.5546,-2.4406,-2.3849,0.0,0.0,-2.1399,-2.0723,-2.0723,-2.1807,-2.3076,-2.4355,-2.3359,-2.3516,-2.5606,-2.4609,-2.4805,-2.6943,-2.7051,-2.7051,-2.7051,-2.7461,-2.7738,-2.7738,-2.8086,-2.8291,-2.8291,-2.8291,-2.8291,-2.8291,-2.8291,-2.8291,-2.8291,-2.8291,-2.8291,-2.8291,-2.8291,-2.8291,-2.8291,-2.8291,-2.8291,-2.8291,-2.8291,-2.8291,-2.8291,-2.5919,-2.5941,-2.5994,-2.6426,-2.6401,-2.6394,-2.6651,-2.7201,-2.8102,-2.9611,-3.0484,-3.1458,-3.2676,-3.3847,-3.4828,-3.5512,-3.6383,-3.5981,-3.3759,-3.3192,-3.2327,-3.0964,-2.8483,-2.7891,-2.9567,-2.7754,-2.6554,-2.6156,-2.6239,-2.6248,-2.615,-2.5851,-2.6372,-2.7693,-2.9042,-3.013,-3.1021,-3.2623,-3.3408,-3.3646,-3.3644,-3.4161,-3.4931,-3.5173,-3.5278,-3.5366,-3.6153,-3.6405,-3.6355,-3.5931,-3.5328,-3.4788,-3.514,-3.4544,-3.3709,-3.406,-3.341,-3.2349,-3.1284,-3.1268,-3.1151,-2.9523,-3.0056,-3.0769,-2.9857,-2.9775,-2.9646,-2.8766,-2.8515,-2.7924,-2.6335,-2.6139,-2.5662,-2.4022,-2.361,-2.3047,0.0,-2.1031,-2.0605,-2.0605,-2.1719,-2.2676,-2.3115,-2.3281,-2.4023,-2.5567,-2.5049,-2.5332,-2.6934,-2.7012,-2.7012,-2.7012,-2.7158,-2.7373,-2.7718,-2.7803,-2.8018,-2.8291,-2.8291,-2.8291,-2.8291,-2.8291,-2.8291,-2.8291,-2.8291,-2.8291,-2.8291,-2.8291,-2.8291,-2.8291,-2.8291,-2.8291,-2.8291,-2.8291,-2.8291,-2.8291,-2.5241,-2.4948,-2.487,-2.5602,-2.562,-2.5646,-2.5927,-2.6864,-2.8067,-2.9635,-3.0735,-3.1919,-3.3305,-3.3999,-3.4665,-3.5393,-3.6383,-3.5985,-3.3728,-3.3605,-3.3062,-3.1736,-2.9387,-2.8919,-3.058,-2.8266,-2.683,-2.6457,-2.5925,-2.5636,-2.5567,-2.5277,-2.5775,-2.7035,-2.8007,-2.9268,-3.0666,-3.1877,-3.2668,-3.309,-3.2426,-3.2668,-3.3371,-3.3248,-3.3629,-3.4429,-3.5862,-3.6156,-3.5918,-3.6263,-3.5893,-3.5429,-3.6179,-3.5424,-3.4431,-3.509,-3.4047,-3.2508,-3.172,-3.147,-3.1134,-2.9601,-3.0158,-3.091,-3.0179,-3.0156,-2.9918,-2.8643,-2.8473,-2.7866,-2.5787,-2.5662,-2.5346,-2.361,-2.3305,-2.275,0.0,-2.076,-2.0605,-2.0605,-2.1309,-2.1943,-2.2266,-2.25,-2.3242,-2.466,-2.4551,-2.4883,-2.6025,-2.6387,-2.6562,-2.6562,-2.6709,-2.6924,-2.7207,-2.7571,-2.7855,-2.8066,-2.8223,-2.8291,-2.8291,-2.8291,-2.8291,-2.8291,-2.8291,-2.8291,-2.8291,-2.8291,-2.8291,-2.8291,-2.8291,-2.8291,-2.8291,-2.8291,-2.8291,-2.8291,-2.4456,-2.4083,-2.4083,-2.5004,-2.5204,-2.5334,-2.5756,-2.6933,-2.8056,-2.8754,-3.001,-3.1009,-3.1422,-3.2889,-3.3794,-3.3794,-3.6279,-3.6473,-3.3302,-3.4007,-3.3899,-3.2374,-3.0617,-3.0439,-3.2101,-2.9404,-2.7962,-2.7939,-2.6467,-2.5604,-2.5326,-2.5273,-2.5626,-2.6404,-2.6529,-2.8096,-3.0606,-3.0506,-3.1483,-3.2929,-3.1182,-3.0498,-3.0543,-3.0544,-3.1663,-3.3506,-3.5521,-3.5571,-3.4872,-3.5918,-3.6263,-3.6263,-3.631,-3.631,-3.631,-3.631,-3.5571,-3.445,-3.3337,-3.2253,-3.1045,-2.9455,-2.9466,-2.9792,-2.9427,-2.9701,-2.9661,-2.8187,-2.7792,-2.6966,-2.4613,-2.4645,-2.4597,-2.3224,-2.292,-2.2339,-2.0828,-2.0605,-2.0605,-2.0605,-2.0605,-2.0938,-2.1779,-2.1143,-2.1328,-2.2974,-2.3091,-2.3491,-2.4434,-2.5187,-2.5645,-2.5693,-2.6143,-2.6367,-2.6387,-2.7217,-2.7699,-2.7718,-2.8096,-2.8291,-2.8291,-2.8291,-2.8291,-2.8291,-2.8291,-2.8291,-2.8291,-2.8291,-2.8291,-2.8291,-2.8291,-2.8291,-2.8291,-2.8291,-2.8291,-2.8291,-2.396,-2.3611,-2.3352,-2.3628,-2.3846,-2.4033,-2.4292,-2.5332,-2.7001,-2.9368,-3.0714,-3.2339,-3.4687,-3.5329,-3.5558,-3.5558,-3.6237,-3.5915,-3.422,-3.4012,-3.3942,-3.3892,-3.1502,-3.1006,-3.2673,-2.9385,-2.736,-2.6737,-2.5339,-2.4705,-2.473,-2.4319,-2.4809,-2.6038,-2.6308,-2.6978,-2.7966,-2.9404,-3.0634,-3.1562,-3.0797,-3.0576,-3.0769,-3.1136,-3.1149,-3.1298,-3.3313,-3.3845,-3.3648,-3.3944,-3.4042,-3.4141,-3.4981,-3.5223,-3.5223,-3.5223,-3.4434,-3.338,-3.2261,-3.1214,-3.028,-2.9774,-2.9781,-2.9869,-2.9792,-2.9843,-2.9725,-2.8854,-2.8796,-2.8094,-2.5656,-2.5457,-2.5068,-2.3277,-2.2467,-2.1825,-2.1156,-2.0809,-2.0605,-2.0605,-2.0605,-2.0693,-2.0918,-2.1339,-2.1992,-2.3013,-2.3154,-2.3809,-2.5274,-2.4943,-2.5011,-2.5664,-2.5801,-2.6064,-2.6387,-2.6914,-2.7344,-2.7718,-2.8096,-2.8291,-2.8291,-2.8291,-2.8291,-2.8291,-2.8291,-2.8291,-2.8291,-2.8291,-2.8291,-2.8291,-2.8291,-2.8291,-2.8291,-2.8291,-2.8291,-2.8291,-2.3484,-2.3276,-2.3091,-2.3091,-2.3717,-2.4246,-2.4351,-2.4904,-2.6201,-2.8617,-2.9938,-3.1385,-3.3257,-3.3955,-3.4269,-3.4269,-3.488,-3.4644,-3.3293,-3.3729,-3.388,-3.3447,-3.2115,-3.1867,-3.2788,-3.0128,-2.8239,-2.7302,-2.5828,-2.4894,-2.4486,-2.4399,-2.4712,-2.5319,-2.5716,-2.6245,-2.7022,-2.9176,-3.0154,-3.0323,-3.0381,-3.0489,0.0,-3.0855,-3.0758,-3.0563,-3.1717,-3.2283,-3.2588,-3.3051,-3.3201,-3.33,-3.3895,-3.4091,-3.4091,-3.4091,-3.3338,-3.2387,-3.1779,-3.0836,-2.9974,-2.9944,-2.9958,-2.9953,-2.9888,-2.9902,-2.9635,-2.8689,-2.8757,-2.8319,-2.6055,-2.5639,-2.4889,-2.2816,-2.1959,-2.1387,-2.1002,-2.0722,-2.0605,-2.0605,-2.0605,-2.0605,-2.0605,-2.1055,-2.167,-2.2529,-2.2598,-2.3027,-2.4004,-2.4287,-2.4602,-2.5099,-2.5109,-2.5557,-2.6387,-2.6435,-2.6865,-2.7718,-2.8096,-2.8291,-2.8291,-2.8291,-2.8291,-2.8291,-2.8291,-2.8291,-2.8291,-2.8291,-2.8291,-2.8291,-2.8291,-2.8291,-2.8291,-2.8291,-2.8291,-2.8291,-2.3091,-2.3091,-2.3091,-2.3091,-2.4209,-2.5194,-2.5419,-2.5416,-2.5972,-2.7542,-2.8734,-2.9608,-3.0089,-3.116,-3.1787,-3.1787,-3.296,-3.3095,-3.1646,-3.3167,-3.3472,-3.2062,-3.2344,-3.2555,-3.2555,-3.1042,-2.9629,-2.8421,-2.6891,-2.5529,-2.4523,-2.4914,-2.4947,-2.4702,-2.5115,-2.5916,-2.7112,-2.9174,-2.9726,-2.9377,-3.0024,-3.0308,-3.0318,-3.0391,-3.0578,-3.077,-3.077,-3.1043,-3.1534,-3.2448,-3.2801,-3.2801,-3.2951,-3.3001,-3.3001,-3.3001,-3.2336,-3.1575,-3.1432,-3.0692,-2.9994,-2.9994,-2.9994,-2.9984,-2.9913,-2.9919,-2.9564,-2.8305,-2.8394,-2.8163,-2.6268,-2.5433,-2.4355,-2.2302,-2.1639,-2.1261,-2.0968,-2.0948,-2.0909,-2.0791,-2.0781,0.0,-2.0615,-2.0605,-2.0967,-2.1816,-2.1777,-2.1865,-2.2197,-2.3506,-2.4355,-2.458,-2.459,-2.5088,-2.6123,-2.5977,-2.6416,-2.7422,-2.8008,-2.8291,-2.8291,-2.8291,-2.8291,-2.8291,-2.8291,-2.8291,-2.8291,-2.8291,-2.8291,-2.8291,-2.8291,-2.8291,-2.8291,-2.8291,-2.8291,-2.8291,-2.3091,-2.3091,-2.3091,-2.3091,-2.4209,-2.5595,-2.7043,-2.7112,-2.7482,-2.887,-2.9423,-3.0099,-3.1351,-3.1657,-3.1787,-3.1787,-3.2018,-3.2078,-3.1787,-3.2105,-3.2136,-3.1834,-3.1886,-3.196,-3.196,-3.0555,-2.9091,-2.7631,-2.6233,-2.5166,-2.4408,-2.4481,-2.4928,-2.5578,-2.5661,-2.6343,-2.7489,-2.7898,-2.8568,-2.9349,-3.0034,-3.0308,-3.0391,-3.1004,-3.1239,-3.1257,-3.1257,-3.0869,-3.0297,-3.0495,-3.0547,-3.0692,-3.1586,-3.188,-3.188,-3.188,-3.1728,-3.1432,-3.0536,-3.0141,-2.9994,-2.9994,-2.9994,-3.0005,-2.9995,-2.9953,-2.9829,-2.9363,-2.9363,-2.894,-2.74,-2.5379,-2.3701,-2.2979,-2.2523,-2.2379,-2.2631,-2.2695,-2.2494,-2.1779,-2.166,-2.1407,-2.0674,-2.0605,-2.0967,-2.1816,-2.1251,-2.1728,-2.3857,-2.3603,-2.4033,-2.5411,-2.546,-2.5216,-2.4766,-2.6113,-2.6553,-2.6094,-2.7588,-2.8291,-2.8291,-2.8291,-2.8291,-2.8291,-2.8291,-2.8291,-2.8291,-2.8291,-2.8291,-2.8291,-2.8291,-2.8291,-2.8291,-2.8291,-2.8291,-2.8291,-2.3754,-2.3754,-2.3968,-2.4707,-2.5889,-2.7246,-2.875,-2.9496,-2.9892,-2.9813,-2.9915,-3.0208,-3.0908,-3.1592,-3.1919,-3.1691,-3.1789,-3.1806,-3.1576,-3.1672,-3.1787,-3.1787,-3.1787,-3.1787,-3.1787,-3.1154,-2.989,-2.8137,-2.7486,-2.6441,-2.5145,-2.5372,-2.5454,-2.5462,-2.6164,-2.6809,-2.7434,-2.8715,-2.958,-3.0118,-3.0812,-3.1072,-3.1113,-3.1452,-3.1472,-3.1258,-3.1258,-3.0884,-3.0442,-3.0376,-3.0356,-3.041,-3.0662,-3.0785,-3.0785,-3.0785,-3.0785,-3.064,-3.0141,-2.9994,-2.9994,-2.9994,-2.9994,-2.9994,-2.9994,-2.9879,-2.9722,-2.9396,-2.9248,-2.8739,-2.7441,-2.5665,-2.4295,-2.3844,-2.3043,-2.2633,-2.311,-2.3154,-2.3008,-2.2588,-2.2148,-2.1719,-2.1339,-2.0879,-2.0781,-2.1212,-2.085,-2.1349,-2.3008,-2.3144,-2.375,-2.4962,-2.5273,-2.5508,-2.5762,-2.6377,-2.6816,-2.707,-2.79,-2.8291,-2.8291,-2.8291,-2.8291,-2.8291,-2.8291,-2.8291,-2.8291,-2.8291,-2.8237,-2.813,-2.8237,-2.8237,-2.813,-2.8237,-2.8291,-2.8291,-2.4785,-2.4609,-2.4922,-2.6514,-2.7627,-2.875,-3.0137,-3.1455,-3.1894,-3.0762,-3.0615,-3.0615,-3.0615,-3.1543,-3.2031,-3.168,-3.1889,-3.1821,-3.1386,-3.158,-3.1714,-3.1624,-3.1624,-3.1624,-3.1624,-3.1624,-3.069,-2.8812,-2.8672,-2.7591,-2.5783,-2.6064,-2.5959,-2.5538,-2.6623,-2.7302,-2.7863,-2.9779,-3.0792,-3.1091,-3.1563,-3.1787,-3.1787,-3.1787,-3.1566,-3.1254,-3.1254,-3.1202,-3.106,-3.084,-3.0735,-3.0626,-3.0263,-3.0077,-2.9994,-2.9994,-2.9994,-2.9994,-2.9994,-2.9994,-2.9994,-2.9994,-2.9942,-2.9931,-2.9931,-2.9722,-2.9396,-2.9079,-2.8824,-2.8298,-2.7182,-2.6113,-2.52,-2.4645,-2.3708,-2.3174,-2.356,-2.3697,-2.3633,-2.3393,-2.2676,-2.2158,-2.2158,-2.1231,-2.0683,-2.0869,-2.0889,-2.123,-2.2109,-2.2836,-2.3594,-2.4521,-2.4893,-2.5518,-2.6455,-2.6592,-2.707,-2.7891,-2.8164,-2.8291,-2.8291,-2.8291,-2.8291,-2.8291,-2.8291,-2.8291,-2.8291,-2.8291,-2.813,-2.7906,-2.8121,-2.8014,-2.7799,-2.8023,-2.813,-2.813,-2.5967,-2.5234,-2.5195,-2.7685,-2.8213,-2.8867,-3.0566,-3.1914,-3.2559,-3.2051,-3.1982,-3.1982,-3.1982,-3.209,-3.2148,-3.2109,-3.217,-3.1984,-3.1484,-3.1514,-3.1348,-3.1015,-3.1005,-3.1005,-3.1005,-3.1005,-3.0319,-2.8908,-2.8143,-2.7065,-2.5702,-2.5377,-2.5819,-2.6828,-2.6945,-2.8032,-2.9739,-3.0002,-3.0707,-3.1734,-3.1757,-3.1787,-3.1787,-3.1787,-3.1767,-3.1727,-3.1727,-3.1754,-3.1654,-3.12,-3.0911,-3.0677,-3.0636,-3.0336,-2.9994,-2.9994,-2.9994,-2.9994,-2.9994,-2.9994,-2.9994,-2.9994,-2.9827,-2.9659,-2.9659,-2.9396,-2.9079,-2.8781,-2.8514,-2.807,-2.717,-2.6582,-2.6026,-2.5183,-2.493,-2.4891,-2.493,-2.5244,-2.5148,-2.4394,-2.3555,-2.309,-2.309,-2.1584,-2.0938,-2.1699,-2.1758,-2.2129,-2.2925,-2.3105,-2.3775,-2.5018,-2.5096,-2.4932,-2.4668,-2.6582,-2.7217,-2.6582,-2.7744,-2.8291,-2.8291,-2.8291,-2.8291,-2.8291,-2.8291,-2.8291,-2.8291,-2.8291,-2.813,-2.7906,-2.7906,-2.7745,-2.7431,-2.7485,-2.7485,-2.7485,-2.8193,-2.7871,-2.8086,-2.9912,-3.0225,-3.0723,-3.2187,-3.2842,-3.3105,-3.2939,-3.292,-3.292,-3.292,-3.292,-3.2822,-3.2568,-3.2549,-3.2363,-3.1934,-3.167,-3.1445,-3.1269,-3.1025,-3.0889,-3.0889,-3.0889,-3.0371,-2.9307,-2.8457,-2.751,-2.6504,-2.6318,-2.6787,-2.7803,-2.832,-2.899,-2.9777,-3.0317,-3.0797,-3.1286,-3.1286,-3.1286,-3.1286,-3.1286,-3.1286,-3.1286,-3.1286,-3.1334,-3.1478,-3.1299,-3.1113,-3.0882,-3.0608,-3.0221,-2.9865,-2.9865,-2.9672,-2.9459,-2.9459,-2.9459,-2.9459,-2.9459,-2.9396,-2.929,-2.929,-2.9089,-2.8834,-2.8727,-2.8514,-2.8184,-2.7842,-2.7226,-2.6738,-2.6691,-2.6201,-2.5859,-2.5859,-2.6016,-2.5703,-2.4551,-2.3662,-2.3154,-2.3208,-2.1623,-2.0967,-2.1816,-2.1437,-2.1475,-2.2344,-2.2881,-2.356,-2.4277,-2.5566,-2.6035,-2.5605,-2.7226,-2.7871,-2.7539,-2.8047,-2.8291,-2.8291,-2.8291,-2.8291,-2.8291,-2.8291,-2.8291,-2.8291,-2.813,-2.7853,-2.7584,-2.7584,-2.7422,-2.7152,-2.7323,-2.7377,-2.7377,-3.0068,-2.9834,-3.0098,-3.1787,-3.1768,-3.1953,-3.3223,-3.3418,-3.3418,-3.3418,-3.3418,-3.3418,-3.3418,-3.3418,-3.3301,-3.3008,-3.2978,-3.2803,-3.2383,-3.207,-3.1777,-3.1533,-3.123,-3.1016,-3.0889,-3.0889,-3.0586,-2.9961,-2.9092,-2.8291,-2.7568,-2.7324,-2.7734,-2.8691,-2.9307,-2.9717,-3.0,-3.0625,-3.0889,-3.0889,-3.0889,-3.0889,-3.0889,-3.0889,-3.0889,-3.0889,-3.0889,-3.0995,-3.116,-3.116,-3.1126,-3.1017,-3.068,-3.0349,-2.9987,-2.9987,-2.9675,-2.9323,-2.9323,-2.9232,-2.9079,-2.9079,-2.9026,-2.8983,-2.8983,-2.8771,-2.8568,-2.8568,-2.8451,-2.8291,-2.8291,-2.7803,-2.7412,-2.7461,-2.707,-2.668,-2.6426,-2.6387,-2.5947,-2.4746,-2.3695,-2.3198,-2.3506,-2.1973,-2.1416,-2.2549,-2.1867,-2.1642,-2.2227,-2.2993,-2.3662,-2.4336,-2.5967,-2.6748,-2.6572,-2.7715,-2.8291,-2.8291,-2.8291,-2.8291,-2.8291,-2.8291,-2.8237,-2.8184,-2.8184,-2.8184,-2.8184,-2.7853,-2.7593,-2.726,-2.726,-2.7107,-2.689,-2.7107,-2.7171,-2.7171,-3.124,-3.0459,-3.0381,-3.2949,-3.2353,-3.1953,-3.3223,-3.3418,-3.3418,-3.3418,-3.3418,-3.3418,-3.3418,-3.3418,-3.3418,-3.3418,-3.3418,-3.3232,-3.2812,-3.2783,-3.2402,-3.1553,-3.1514,-3.1318,-3.0898,-3.0889,-3.0889,-3.0869,-2.999,-2.9326,-2.8877,-2.8047,-2.8393,-2.9551,-2.9626,-3.0059,-3.0869,-3.0889,-3.0889,-3.0889,-3.0889,-3.0889,-3.0889,-3.0889,-3.0889,-3.0889,-3.0889,-3.0889,-3.0889,-3.0889,-3.0889,-3.0917,-3.1027,-3.0746,-3.0384,-3.0384,-3.0128,-2.9796,-2.9796,-2.9464,-2.9079,-2.9079,-2.8877,-2.8684,-2.8684,-2.8514,-2.8291,-2.8291,-2.8291,-2.8291,-2.8291,-2.8281,-2.7998,-2.7158,-2.7373,-2.7405,-2.6504,-2.6387,-2.6055,-2.5213,-2.3926,-2.3422,-2.4316,-2.2861,-2.2568,-2.4258,-2.3603,-2.3178,-2.3188,-2.3555,-2.4375,-2.5625,-2.6162,-2.6592,-2.7002,-2.7861,-2.8291,-2.8291,-2.8291,-2.8291,-2.8291,-2.8291,-2.8184,-2.7906,-2.7906,-2.7906,-2.7906,-2.753,-2.7269,-2.6989,-2.6989,-2.6836,-2.6591,-2.6591,-2.6591,-2.6591,-3.2734,-3.248,-3.2461,-3.3281,-3.3086,-3.2949,-3.3359,-3.3418,-3.3418,-3.3418,-3.3418,-3.3418,-3.3418,-3.3418,-3.3418,-3.3418,-3.3418,-3.3369,-3.3232,-3.2949,-3.2676,-3.2402,-3.1836,-3.1455,-3.1318,-3.1035,-3.0889,-3.0889,-3.001,-2.9502,-2.9355,-2.9147,-2.9502,-3.0469,-3.0469,-3.0625,-3.0889,-3.0889,-3.0889,-3.0889,-3.0889,-3.0889,-3.0889,-3.0889,-3.0889,-3.0889,-3.0889,-3.0889,-3.0889,-3.0889,-3.0889,-3.0927,-3.0954,-3.0648,-3.0273,-3.0273,-2.9977,-2.9573,-2.9277,-2.909,-2.8913,-2.8627,-2.8504,-2.8408,-2.8408,-2.8344,-2.8291,-2.8291,-2.8291,-2.8291,-2.8291,-2.8291,-2.8203,-2.793,-2.8008,-2.79,-2.7334,-2.6758,-2.584,-2.4375,-2.332,-2.2939,-2.3506,-2.2549,-2.2353,-2.3521,-2.3037,-2.2978,-2.3564,-2.4268,-2.4853,-2.5273,-2.6562,-2.7178,-2.7012,-2.7693,-2.8014,-2.8014,-2.7809,-2.7701,-2.7701,-2.7701,-2.7638,-2.7584,-2.7584,-2.7584,-2.7539,-2.726,-2.7098,-2.6989,-2.6791,-2.6691,-2.6591,-2.6591,-2.6591,-2.6591,-3.3418,-3.3418,-3.3418,-3.3418,-3.3418,-3.3418,-3.3418,-3.3418,-3.3418,-3.3418,-3.3418,-3.3418,-3.3418,-3.3418,-3.3418,-3.3418,-3.3418,-3.3418,-3.3418,-3.3174,-3.2959,-3.2803,-3.2285,-3.1846,-3.1523,-3.126,-3.1055,-3.0889,-3.0342,-3.0068,-3.0068,-3.0068,-3.0361,-3.0889,-3.0889,-3.0889,-3.0889,-3.0889,-3.0889,-3.0889,-3.0889,-3.0889,-3.0889,-3.0889,-3.0889,-3.0889,-3.0889,-3.0889,-3.0889,-3.0889,-3.0889,-3.0889,-3.0889,-3.0693,-3.0459,-3.0459,-3.0146,-2.9746,-2.9473,-2.916,-2.8857,-2.8594,-2.8408,-2.8291,-2.8291,-2.8291,-2.8291,-2.8291,-2.8291,-2.8291,-2.8291,-2.8291,-2.8291,-2.8291,-2.8291,-2.8096,-2.75,-2.6826,-2.5859,-2.4443,-2.3516,-2.3223,-2.3863,-2.3443,-2.3437,-2.4352,-2.4268,-2.4502,-2.5205,-2.5184,-2.5419,-2.6074,-2.7307,-2.7721,-2.7334,-2.7699,-2.7853,-2.7691,-2.7485,-2.7377,-2.726,-2.7368,-2.7377,-2.7269,-2.7269,-2.7269,-2.7215,-2.6944,-2.6836,-2.6845,-2.6691,-2.6591,-2.6591,-2.6591,-2.6591,-2.6591,-3.3418,-3.3418,-3.3418,-3.3418,-3.3418,-3.3418,-3.3418,-3.3418,-3.3418,-3.3418,-3.3418,-3.3418,-3.3418,-3.3418,-3.3418,-3.3418,-3.3418,-3.3418,-3.3418,-3.3418,-3.3242,-3.2861,-3.2812,-3.2422,-3.1621,-3.1543,-3.1309,-3.0889,-3.0889,-3.0889,-3.0889,-3.0889,-3.0889,-3.0889,-3.0889,-3.0889,-3.0889,-3.0889,-3.0889,-3.0889,-3.0889,-3.0889,-3.0889,-3.0889,-3.0889,-3.0889,-3.0889,-3.0889,-3.0889,-3.0889,-3.0889,-3.0889,-3.0889,-3.0889,-3.0889,-3.0889,-3.0586,-3.0234,-3.0205,-2.9619,-2.8994,-2.8935,-2.8603,-2.8291,-2.8291,-2.8291,-2.8291,-2.8291,-2.8291,-2.8291,-2.8291,-2.8291,-2.8291,-2.8291,-2.8242,-2.793,-2.7129,-2.6631,-2.6025,-2.5213,-2.4365,-2.4199,-2.5077,-2.5165,-2.5459,-2.6279,-2.6738,-2.7148,-2.7611,-2.6114,-2.5967,-2.7656,-2.8086,-2.813,-2.7853,-2.7853,-2.7691,-2.7323,-2.7323,-2.7215,-2.6989,-2.7215,-2.7215,-2.6989,-2.6989,-2.6989,-2.6935,-2.6691,-2.6591,-2.6591,-2.6591,-2.6591,-2.6591,-2.6591,-2.6591,-2.6591,-3.3418,-3.3418,-3.3418,-3.3418,-3.3418,-3.3418,-3.3418,-3.3418,-3.3418,-3.3418,-3.3418,-3.3418,-3.3418,-3.3418,-3.3418,-3.3418,-3.3418,-3.3418,-3.3418,-3.3418,-3.3379,-3.3281,-3.2969,-3.2705,-3.25,-3.1855,-3.1309,-3.0889,-3.0889,-3.0889,-3.0889,-3.0889,-3.0889,-3.0889,-3.0889,-3.0889,-3.0889,-3.0889,-3.0889,-3.0889,-3.0889,-3.0889,-3.0889,-3.0889,-3.0889,-3.0889,-3.0889,-3.0889,-3.0889,-3.0889,-3.0889,-3.0889,-3.0889,-3.0889,-3.0889,-3.0889,-3.081,-3.0644,-3.0293,-3.0049,-2.9736,-2.9082,-2.8603,-2.8291,-2.8291,-2.8291,-2.8291,-2.8291,-2.8291,-2.8291,-2.8291,-2.8291,-2.8291,-2.8291,-2.7744,-2.7246,-2.7041,-2.6367,-2.5693,-2.5184,-2.494,-2.498,-2.5527,-2.5586,-2.5615,-2.583,-2.6289,-2.6582,-2.668,-2.6602,-2.6939,-2.7839,-2.7965,-2.7853,-2.7539,-2.7314,-2.7053,-2.68,-2.68,-2.6745,-2.6691,-2.6745,-2.6745,-2.6691,-2.6691,-2.6691,-2.6691,-2.6646,-2.6591,-2.6591,-2.6591,-2.6591,-2.6591,-2.6591,-2.6591,-2.6591,-3.3418,-3.3418,-3.3418,-3.3418,-3.3418,-3.3418,-3.3418,-3.3418,-3.3418,-3.3418,-3.3418,-3.3418,-3.3418,-3.3418,-3.3418,-3.3418,-3.3418,-3.3418,-3.3418,-3.3418,-3.3418,-3.3418,-3.3203,-3.2998,-3.2803,-3.2344,-3.1797,-3.1172,-3.0986,-3.0889,-3.0889,-3.0889,-3.0889,-3.0889,-3.0889,-3.0889,-3.0889,-3.0889,-3.0889,-3.0889,-3.0889,-3.0889,-3.0889,-3.0889,-3.0889,-3.0889,-3.0889,-3.0889,-3.0889,-3.0889,-3.0889,-3.0889,-3.0889,-3.0889,-3.0889,-3.0889,-3.0889,-3.083,-3.0586,-3.0361,-2.999,-2.9131,-2.875,-2.8525,-2.834,-2.8291,-2.8291,-2.8291,-2.8291,-2.8291,-2.8291,-2.8291,-2.8291,-2.8291,-2.7568,-2.7012,-2.7012,-2.623,-2.5791,-2.5947,-2.5791,-2.5928,-2.6553,-2.6621,-2.6621,-2.6621,-2.7012,-2.7256,-2.7256,-2.7367,-2.7592,-2.8057,-2.796,-2.7745,-2.7377,-2.6999,-2.6736,-2.6591,-2.6591,-2.6591,-2.6591,-2.6591,-2.6591,-2.6591,-2.6591,-2.6591,-2.6591,-2.6591,-2.6591,-2.6591,-2.6591,-2.6591,-2.6591,-2.6591,-2.6591,-2.6591,-3.3418,-3.3418,-3.3418,-3.3418,-3.3418,-3.3418,-3.3418,-3.3418,-3.3418,-3.3418,-3.3418,-3.3418,-3.3418,-3.3418,-3.3418,-3.3418,-3.3418,-3.3418,-3.3418,-3.3418,-3.3418,-3.3418,-3.3418,-3.3252,-3.29,-3.2832,-3.2373,-3.1514,-3.1162,-3.0957,-3.0889,-3.0889,-3.0889,-3.0889,-3.0889,-3.0889,-3.0889,-3.0889,-3.0889,-3.0889,-3.0889,-3.0889,-3.0889,-3.0889,-3.0889,-3.0889,-3.0889,-3.0889,-3.0889,-3.0889,-3.0889,-3.0889,-3.0889,-3.0889,-3.0889,-3.0889,-3.0889,-3.0889,-3.0889,-3.0547,-3.0019,-2.9287,-2.9062,-2.8906,-2.8476,-2.8389,-2.8369,-2.8301,-2.8291,-2.8291,-2.8291,-2.8291,-2.8252,-2.8125,-2.7383,-2.6826,-2.6826,-2.6152,-2.6005,-2.6914,-2.6816,-2.6963,-2.7738,-2.7816,-2.7816,-2.7816,-2.8096,-2.8291,-2.8291,-2.8077,-2.8014,-2.8237,-2.7906,-2.7584,-2.7269,-2.6854,-2.6591,-2.6591,-2.6591,-2.6591,-2.6591,-2.6591,-2.6591,-2.6591,-2.6591,-2.6591,-2.6591,-2.6591,-2.6591,-2.6591,-2.6591,-2.6591,-2.6591,-2.6591,-2.6591,-2.6591,-3.3418,-3.3418,-3.3418,-3.3418,-3.3418,-3.3418,-3.3418,-3.3418,-3.3418,-3.3418,-3.3418,-3.3418,-3.3418,-3.3418,-3.3418,-3.3418,-3.3418,-3.3418,-3.3418,-3.3418,-3.3418,-3.3418,-3.3418,-3.3389,-3.333,-3.2978,-3.2373,-3.1514,-3.1455,-3.124,-3.0889,-3.0889,-3.0889,-3.0889,-3.0889,-3.0889,-3.0889,-3.0889,-3.0889,-3.0889,-3.0889,-3.0889,-3.0889,-3.0889,-3.0889,-3.0889,-3.0889,-3.0889,-3.0889,-3.0889,-3.0889,-3.0889,-3.0889,-3.0889,-3.0889,-3.0889,-3.0889,-3.0889,-3.0889,-3.0547,-3.0166,-3.0029,-2.9726,-2.9355,-2.8926,-2.8818,-2.8721,-2.8369,-2.8291,-2.8291,-2.8291,-2.8291,-2.8057,-2.7324,-2.6494,-2.5888,-2.5888,-2.5771,-2.6005,-2.6914,-2.7598,-2.8047,-2.8184,-2.8193,-2.8193,-2.8193,-2.8252,-2.8291,-2.8291,-2.8077,-2.7906,-2.796,-2.7422,-2.6999,-2.6745,-2.6636,-2.6591,-2.6591,-2.6591,-2.6591,-2.6591,-2.6591,-2.6591,-2.6591,-2.6591,-2.6591,-2.6591,-2.6591,-2.6591,-2.6591,-2.6591,-2.6591,-2.6591,-2.6591,-2.6591,-2.6591,-3.3418,-3.3418,-3.3418,-3.3418,-3.3418,-3.3418,-3.3418,-3.3418,-3.3418,-3.3418,-3.3418,-3.3418,-3.3418,-3.3418,-3.3418,-3.3418,-3.3418,-3.3418,-3.3418,-3.3418,-3.3418,-3.3418,-3.3418,-3.3418,-3.3418,-3.3008,-3.2598,-3.2207,-3.1748,-3.1426,-3.1221,-3.0996,-3.0889,-3.0889,-3.0889,-3.0889,-3.0889,-3.0889,-3.0889,-3.0889,-3.0889,-3.0889,-3.0889,-3.0889,-3.0889,-3.0889,-3.0889,-3.0889,-3.0889,-3.0889,-3.0889,-3.0889,-3.0889,-3.0889,-3.0889,-3.0889,-3.0889,-3.0889,-3.0889,-3.0732,-3.0508,-3.0264,-3.0049,-2.9795,-2.9365,-2.9092,-2.8867,-2.8672,-2.8447,-2.8291,-2.8291,-2.8291,-2.8008,-2.7158,-2.668,-2.6426,-2.6426,-2.6426,-2.6738,-2.7598,-2.8057,-2.8291,-2.8291,-2.8291,-2.8237,-2.8121,-2.8237,-2.8184,-2.7809,-2.7701,-2.7584,-2.7422,-2.7152,-2.689,-2.6591,-2.6591,-2.6591,-2.6591,-2.6591,-2.6591,-2.6591,-2.6591,-2.6591,-2.6591,-2.6591,-2.6591,-2.6591,-2.6591,-2.6591,-2.6591,-2.6591,-2.6591,-2.6591,-2.6591,-2.6591,-2.6591,-3.3418,-3.3418,-3.3418,-3.3418,-3.3418,-3.3418,-3.3418,-3.3418,-3.3418,-3.3418,-3.3418,-3.3418,-3.3418,-3.3418,-3.3418,-3.3418,-3.3418,-3.3418,-3.3418,-3.3418,-3.3418,-3.3418,-3.3418,-3.3418,-3.3418,-3.3105,-3.2891,-3.2793,-3.2139,-3.1719,-3.1514,-3.1182,-3.0986,-3.0889,-3.0889,-3.0889,-3.0889,-3.0889,-3.0889,-3.0889,-3.0889,-3.0889,-3.0889,-3.0889,-3.0889,-3.0889,-3.0889,-3.0889,-3.0889,-3.0889,-3.0889,-3.0889,-3.0889,-3.0889,-3.0889,-3.0889,-3.0889,-3.0889,-3.0889,-3.0889,-3.0801,-3.0449,-3.0361,-3.0244,-2.9814,-2.9453,-2.916,-2.8955,-2.8662,-2.8408,-2.831,-2.8291,-2.8008,-2.7158,0.0,-2.7012,-2.7012,-2.7012,-2.7334,-2.8193,-2.8291,-2.8291,-2.8291,-2.8237,-2.813,-2.7906,-2.8023,-2.7916,-2.7431,-2.7323,-2.7161,-2.6944,-2.689,-2.6791,-2.6591,-2.6591,-2.6591,-2.6591,-2.6591,-2.6591,-2.6591,-2.6591,-2.6591,-2.6591,-2.6591,-2.6591,-2.6591,-2.6591,-2.6591,-2.6591,-2.6591,-2.6591,-2.6591,-2.6591,-2.6591,-2.6591,-3.3418,-3.3418,-3.3418,-3.3418,-3.3418,-3.3418,-3.3418,-3.3418,-3.3418,-3.3418,-3.3418,-3.3418,-3.3418,-3.3418,-3.3418,-3.3418,-3.3418,-3.3418,-3.3418,-3.3418,-3.3418,-3.3418,-3.3418,-3.3418,-3.3418,-3.3389,-3.3184,-3.2793,-3.2734,-3.2295,-3.1514,-3.1484,-3.126,-3.0889,-3.0889,-3.0889,-3.0889,-3.0889,-3.0889,-3.0889,-3.0889,-3.0889,-3.0889,-3.0889,-3.0889,-3.0889,-3.0889,-3.0889,-3.0889,-3.0889,-3.0889,-3.0889,-3.0889,-3.0889,-3.0889,-3.0889,-3.0889,-3.0889,-3.0889,-3.0889,-3.0889,-3.085,-3.084,-3.0723,-3.0254,-3.0127,-2.9883,-2.9082,-2.8896,-2.875,-2.8369,-2.8291,-2.8008,-2.7158,-2.7012,-2.7012,-2.7012,-2.7012,-2.7334,-2.8193,-2.8291,-2.8291,-2.8291,-2.8067,-2.7906,-2.7906,-2.7638,-2.7431,-2.7377,-2.7152,-2.689,-2.6636,-2.6646,-2.6646,-2.6591,-2.6591,-2.6591,-2.6591,-2.6591,-2.6591,-2.6591,-2.6591,-2.6591,-2.6591,-2.6591,-2.6591,-2.6591,-2.6591,-2.6591,-2.6591,-2.6591,-2.6591,-2.6591,-2.6591,-2.6591,-2.6591,-3.3418,-3.3418,-3.3418,-3.3418,-3.3418,-3.3418,-3.3418,-3.3418,-3.3418,-3.3418,-3.3418,-3.3418,-3.3418,-3.3418,-3.3418,-3.3418,-3.3418,-3.3418,-3.3418,-3.3418,-3.3418,-3.3418,-3.3418,-3.3418,-3.3418,-3.3418,-3.334,-3.3184,-3.292,-3.2627,-3.2295,-3.1768,-3.1435,-3.1269,-3.1006,-3.0889,-3.0889,-3.0889,-3.0889,-3.0889,-3.0889,-3.0889,-3.0889,-3.0889,-3.0889,-3.0889,-3.0889,-3.0889,-3.0889,-3.0889,-3.0889,-3.0889,-3.0889,-3.0889,-3.0889,-3.0889,-3.0889,-3.0889,-3.0889,-3.0889,-3.0889,-3.0889,-3.0889,-3.084,-3.0664,-3.04,-3.0107,-2.9775,-2.9502,-2.9189,-2.876,-2.8682,-2.832,-2.7197,0.0,-2.7617,-2.709,-2.7471,-2.793,-2.8252,-2.8291,-2.8291,-2.8291,-2.8067,-2.7799,-2.7593,-2.7485,-2.7269,-2.6899,-2.6791,-2.6691,-2.6591,-2.6591,-2.6591,-2.6591,-2.6591,-2.6591,-2.6591,-2.6591,-2.6591,-2.6591,-2.6591,-2.6591,-2.6591,-2.6591,-2.6591,-2.6591,-2.6591,-2.6591,-2.6591,-2.6591,-2.6591,-2.6591,-2.6591,-2.6591,-2.6591,-3.3418,-3.3418,-3.3418,-3.3418,-3.3418,-3.3418,-3.3418,-3.3418,-3.3418,-3.3418,-3.3418,-3.3418,-3.3418,-3.3418,-3.3418,-3.3418,-3.3418,-3.3418,-3.3418,-3.3418,-3.3418,-3.3418,-3.3418,-3.3418,-3.3418,-3.3418,-3.3418,-3.3418,-3.3135,-3.292,-3.2783,-3.2187,-3.1777,-3.1504,-3.1211,-3.1016,-3.0889,-3.0889,-3.0889,-3.0889,-3.0889,-3.0889,-3.0889,-3.0889,-3.0889,-3.0889,-3.0889,-3.0889,-3.0889,-3.0889,-3.0889,-3.0889,-3.0889,-3.0889,-3.0889,-3.0889,-3.0889,-3.0889,-3.0889,-3.0889,-3.0889,-3.0889,-3.0889,-3.0889,-3.0889,-3.0644,-3.0371,-3.0225,-2.9971,-2.9639,-2.9199,-2.9014,-2.8633,-2.7754,-2.7998,-2.8086,-2.75,-2.792,-2.8291,-2.8291,-2.8291,-2.8291,-2.8184,-2.7906,-2.7584,-2.7323,-2.7215,-2.7008,-2.6646,-2.6591,-2.6591,-2.6591,-2.6591,-2.6591,-2.6591,-2.6591,-2.6591,-2.6591,-2.6591,-2.6591,-2.6591,-2.6591,-2.6591,-2.6591,-2.6591,-2.6591,-2.6591,-2.6591,-2.6591,-2.6591,-2.6591,-2.6591,-2.6591,-2.6591,-2.6591,-2.6591,-3.3418,-3.3418,-3.3418,-3.3418,-3.3418,-3.3418,-3.3418,-3.3418,-3.3418,-3.3418,-3.3418,-3.3418,-3.3418,-3.3418,-3.3418,-3.3418,-3.3418,-3.3418,-3.3418,-3.3418,-3.3418,-3.3418,-3.3418,-3.3418,-3.3418,-3.3418,-3.3418,-3.3418,-3.3418,-3.3213,-3.2803,-3.2793,-3.2344,-3.1533,-3.1523,-3.1289,-3.0898,-3.0889,-3.0889,-3.0889,-3.0889,-3.0889,-3.0889,-3.0889,-3.0889,-3.0889,-3.0889,-3.0889,-3.0889,-3.0889,-3.0889,-3.0889,-3.0889,-3.0889,-3.0889,-3.0889,-3.0889,-3.0889,-3.0889,-3.0889,-3.0889,-3.0889,-3.0889,-3.0889,-3.0889,-3.0889,-3.0762,-3.0293,-3.0205,-3.0068,-2.9704,-2.9219,-2.8926,-2.8926,-2.8574,-2.8301,-2.8301,-2.8291,-2.8291,-2.8291,-2.8291,-2.8184,-2.7906,-2.7584,-2.7269,-2.7043,-2.6736,-2.6591,-2.6591,-2.6591,-2.6591,-2.6591,-2.6591,-2.6591,-2.6591,-2.6591,-2.6591,-2.6591,-2.6591,-2.6591,-2.6591,-2.6591,-2.6591,-2.6591,-2.6591,-2.6591,-2.6591,-2.6591,-2.6591,-2.6591,-2.6591,-2.6591,-2.6591,-2.6591,-2.6591,-2.6591,-3.3418,-3.3418,-3.3418,-3.3418,-3.3418,-3.3418,-3.3418,-3.3418,-3.3418,-3.3418,-3.3418,-3.3418,-3.3418,-3.3418,-3.3418,-3.3418,-3.3418,-3.3418,-3.3418,-3.3418,-3.3418,-3.3418,-3.3418,-3.3418,-3.3418,-3.3418,-3.3418,-3.3418,-3.3418,-3.3359,-3.3223,-3.293,-3.2656,-3.2393,-3.1787,-3.1445,-3.1309,-3.1016,-3.0889,-3.0889,-3.0889,-3.0889,-3.0889,-3.0889,-3.0889,-3.0889,-3.0889,-3.0889,-3.0889,-3.0889,-3.0889,-3.0889,-3.0889,-3.0889,-3.0889,-3.0889,-3.0889,-3.0889,-3.0889,-3.0889,-3.0889,-3.0889,-3.0889,-3.0889,-3.0889,-3.0889,-3.085,-3.0713,-3.0684,-3.0547,-3.0098,-2.9902,-2.9717,-2.9424,-2.9014,-2.873,-2.873,-2.8476,-2.8291,-2.8291,-2.8291,-2.8184,-2.7906,-2.7584,-2.7269,-2.7043,-2.6736,-2.6591,-2.6591,-2.6591,-2.6591,-2.6591,-2.6591,-2.6591,-2.6591,-2.6591,-2.6591,-2.6591,-2.6591,-2.6591,-2.6591,-2.6591,-2.6591,-2.6591,-2.6591,-2.6591,-2.6591,-2.6591,-2.6591,-2.6591,-2.6591,-2.6591,-2.6591,-2.6591,-2.6591,-2.6591,-3.3418,-3.3418,-3.3418,-3.3418,-3.3418,-3.3418,-3.3418,-3.3418,-3.3418,-3.3418,-3.3418,-3.3418,-3.3418,-3.3418,-3.3418,-3.3418,-3.3418,-3.3418,-3.3418,-3.3418,-3.3418,-3.3418,-3.3418,-3.3418,-3.3418,-3.3418,-3.3418,-3.3418,-3.3418,-3.3418,-3.3418,-3.3164,-3.2949,-3.2773,-3.2256,-3.1836,-3.1504,-3.124,-3.1045,-3.0889,-3.0889,-3.0889,-3.0889,-3.0889,-3.0889,-3.0889,-3.0889,-3.0889,-3.0889,-3.0889,-3.0889,-3.0889,-3.0889,-3.0889,-3.0889,-3.0889,-3.0889,-3.0889,-3.0889,-3.0889,-3.0889,-3.0889,-3.0889,-3.0889,-3.0889,-3.0889,-3.0889,-3.0889,-3.0889,-3.0801,-3.0518,-3.0322,-3.0107,-2.9863,-2.9463,-2.918,-2.918,-2.8955,-2.8686,-2.8412,-2.8393,-2.8153,-2.7603,-2.6916,-2.6427,-2.6154,-2.6409,-2.6591,-2.6591,-2.6591,-2.6591,-2.6591,-2.6591,-2.6591,-2.6591,-2.6591,-2.6591,-2.6591,-2.6591,-2.6591,-2.6591,-2.6591,-2.6591,-2.6591,-2.6591,-2.6591,-2.6591,-2.6591,-2.6591,-2.6591,-2.6591,-2.6591,-2.6591,-2.6591,-2.6591,-2.6591,-3.3418,-3.3418,-3.3418,-3.3418,-3.3418,-3.3418,-3.3418,-3.3418,-3.3418,-3.3418,-3.3418,-3.3418,-3.3418,-3.3418,-3.3418,-3.3418,-3.3418,-3.3418,-3.3418,-3.3418,-3.3418,-3.3418,-3.3418,-3.3418,-3.3418,-3.3418,-3.3418,-3.3418,-3.3418,-3.3418,-3.3418,-3.3418,-3.3213,-3.2851,-3.2812,-3.2363,-3.1631,-3.1553,-3.1299,-3.0947,-3.0908,-3.0889,-3.0889,-3.0889,-3.0889,-3.0889,-3.0889,-3.0889,-3.0889,-3.0889,-3.0889,-3.0889,-3.0889,-3.0889,-3.0889,-3.0889,-3.0889,-3.0889,-3.0889,-3.0889,-3.0889,-3.0889,-3.0889,-3.0889,-3.0889,-3.0889,-3.0889,-3.0889,-3.0889,-3.0889,-3.0889,-3.0547,-3.0264,-3.0264,-2.9902,-2.9629,-2.9629,-2.959,-2.9378,-2.8668,-2.8564,-2.8136,-2.7075,-2.5815,-2.4953,-2.4667,-2.5688,-2.6309,-2.6418,-2.6418,-2.6473,-2.6591,-2.6591,-2.6591,-2.6591,-2.6591,-2.6591,-2.6591,-2.6591,-2.6591,-2.6591,-2.6591,-2.6591,-2.6591,-2.6591,-2.6591,-2.6591,-2.6591,-2.6591,-2.6591,-2.6591,-2.6591,-2.6591,-2.6591,-2.6591,-2.6591,-3.3418,-3.3418,-3.3418,-3.3418,-3.3418,-3.3418,-3.3418,-3.3418,-3.3418,-3.3418,-3.3418,-3.3418,-3.3418,-3.3418,-3.3418,-3.3418,-3.3418,-3.3418,-3.3418,-3.3418,-3.3418,-3.3418,-3.3418,-3.3418,-3.3418,-3.3418,-3.3418,-3.3418,-3.3418,-3.3418,-3.3418,-3.3418,-3.3369,-3.3271,-3.2939,-3.2695,-3.2471,-3.1807,-3.1465,-3.1348,-3.1025,-3.0889,-3.0889,-3.0889,-3.0889,-3.0889,-3.0889,-3.0889,-3.0889,-3.0889,-3.0889,-3.0889,-3.0889,-3.0889,-3.0889,-3.0889,-3.0889,-3.0889,-3.0889,-3.0889,-3.0889,-3.0889,-3.0889,-3.0889,-3.0889,-3.0889,-3.0889,-3.0889,-3.0889,-3.0889,-3.0889,-3.081,-3.0742,-3.0742,-3.0361,-3.0059,-3.0059,-2.9775,-2.9541,-2.9388,-2.9109,-2.838,-2.6897,-2.4954,-2.3658,-2.3392,-2.3656,-2.4214,-2.5119,-2.5174,-2.5624,-2.6582,-2.6591,-2.6591,-2.6591,-2.6591,-2.6591,-2.6591,-2.6591,-2.6591,-2.6591,-2.6591,-2.6591,-2.6591,-2.6591,-2.6591,-2.6591,-2.6591,-2.6591,-2.6591,-2.6591,-2.6591,-2.6591,-2.6591,-2.6591,-2.6591,-3.3418,-3.3418,-3.3418,-3.3418,-3.3418,-3.3418,-3.3418,-3.3418,-3.3418,-3.3418,-3.3418,-3.3418,-3.3418,-3.3418,-3.3418,-3.3418,-3.3418,-3.3418,-3.3418,-3.3418,-3.3418,-3.3418,-3.3418,-3.3418,-3.3418,-3.3418,-3.3418,-3.3418,-3.3418,-3.3418,-3.3418,-3.3418,-3.3418,-3.3408,-3.3193,-3.2978,-3.2764,-3.2314,-3.1885,-3.1504,-3.1279,-3.1064,-3.0889,-3.0889,-3.0889,-3.0889,-3.0889,-3.0889,-3.0889,-3.0889,-3.0889,-3.0889,-3.0889,-3.0889,-3.0889,-3.0889,-3.0889,-3.0889,-3.0889,-3.046,-3.0089,-3.0762,-3.0401,-3.0089,-3.0772,-3.0889,-3.0889,-3.0889,-3.0401,-2.9962,-2.9962,-2.9431,-2.9016,-2.9016,-2.8814,-2.8608,-2.8464,-2.8784,-2.8886,-2.8384,-2.8136,-2.7116,-2.4703,-2.3949,-2.3309,-2.2559,-2.3064,-2.3639,-2.4269,-2.4334,-2.4536,-2.5052,-2.5044,-2.5014,-2.4898,-2.5459,-2.5743,-2.5743,-2.63,-2.6591,-2.6591,-2.6591,-2.6591,-2.6591,-2.6591,-2.6591,-2.6591,-2.6591,-2.6591,-2.6591,-2.6591,-2.6591,-2.6591,-2.6591,-2.6591,-2.6591,-3.3418,-3.3418,-3.3418,-3.3418,-3.3418,-3.3418,-3.3418,-3.3418,-3.3418,-3.3418,-3.3418,-3.3418,-3.3418,-3.3418,-3.3418,-3.3418,-3.3418,-3.3418,-3.3418,-3.3418,-3.3418,-3.3418,-3.3418,-3.3418,-3.3418,-3.3418,-3.3418,-3.3418,-3.3418,-3.3418,-3.3418,-3.3418,-3.3355,-3.3301,-3.3355,-3.317,-3.2838,-3.2822,-3.2383,-3.1719,-3.1572,-3.1309,-3.0986,-3.0918,-3.0889,-3.0889,-3.0889,-3.0889,-3.0889,-3.0889,-3.0889,-3.0889,-3.0889,-3.0889,-3.083,-3.0645,-3.0577,-3.0518,-3.0284,-2.9422,-2.887,-2.9981,-2.9422,-2.887,-2.9981,-3.0587,-3.0889,-3.0889,-2.9844,-2.892,-2.892,-2.7847,-2.7013,-2.7013,-2.7013,-2.6883,-2.6547,-2.7478,-2.78,-2.6864,-2.6474,-2.5193,-2.2407,-2.2789,-2.2833,-2.1766,-2.2647,-2.3291,-2.3469,-2.3476,-2.3462,-2.347,-2.3462,-2.3385,-2.3157,-2.4117,-2.4631,-2.4631,-2.5652,-2.6262,-2.6591,-2.6591,-2.6591,-2.6591,-2.6591,-2.6591,-2.6591,-2.6591,-2.6591,-2.6591,-2.6591,-2.6591,-2.6591,-2.6591,-2.6591,-2.6591,-3.3418,-3.3418,-3.3418,-3.3418,-3.3418,-3.3418,-3.3418,-3.3418,-3.3418,-3.3418,-3.3418,-3.3418,-3.3418,-3.3418,-3.3418,-3.3418,-3.3418,-3.3418,-3.3418,-3.3418,-3.3418,-3.3418,-3.3418,-3.3418,-3.3418,-3.3418,-3.3418,-3.3418,-3.3418,-3.3418,-3.3418,-3.3418,-3.3238,-3.2985,-3.3301,-3.3199,-3.2879,-3.2825,-3.2725,-3.2559,-3.1816,-3.1484,-3.1396,-3.1025,-3.0889,-3.0889,-3.0889,-3.0889,-3.0889,-3.0889,-3.0889,-3.0889,-3.0889,-3.0889,-3.0645,-2.954,-2.9166,-2.8929,-2.7804,-2.7375,-2.7315,-2.7495,-2.7375,-2.7315,-2.7495,-2.9253,-3.0889,-3.0889,-2.9844,-2.892,-2.892,-2.7847,-2.7013,-2.7013,-2.7013,-2.6883,-2.6547,-2.6668,-2.6582,-2.6161,-2.4891,-2.3618,-2.2618,-2.1695,-2.0931,-2.049,-2.0584,-2.1113,-2.2178,-2.2237,-2.2691,-2.3701,-2.3759,-2.3736,-2.3688,-2.3864,-2.3922,-2.3922,-2.4098,-2.5053,-2.6591,-2.6591,-2.6591,-2.6591,-2.6591,-2.6591,-2.6591,-2.6591,-2.6591,-2.6591,-2.6591,-2.6591,-2.6591,-2.6591,-2.6591,-2.6591,-3.3418,-3.3418,-3.3418,-3.3418,-3.3418,-3.3418,-3.3418,-3.3418,-3.3418,-3.3418,-3.3418,-3.3418,-3.3418,-3.3418,-3.3418,-3.3418,-3.3418,-3.3418,-3.3418,-3.3418,-3.3418,-3.3418,-3.3418,-3.3418,-3.3418,-3.3418,-3.3418,-3.3418,-3.3228,-3.3238,-3.3418,-3.3228,-3.3048,-3.2921,-3.3238,-3.3111,-3.2657,-3.2792,-3.2695,-3.2516,-3.2076,-3.1772,-3.1494,-3.1309,-3.1094,-3.0889,-3.0889,-3.0889,-3.0889,-3.0889,-3.0392,-2.9776,-2.9776,-2.9303,-2.8591,-2.8035,-2.7847,-2.7667,-2.6927,-2.6208,-2.579,-2.6313,-2.6017,-2.5851,-2.6564,-2.7787,-2.871,-2.871,-2.7667,-2.6754,-2.6754,-2.5729,-2.4818,-2.4818,-2.4818,-2.4633,-2.4116,-2.4663,-2.497,-2.4471,-2.3745,-2.2901,-2.1839,-2.1277,-2.0862,-2.0735,-2.0722,-2.0963,-2.1444,-2.1506,-2.1668,-2.204,-2.2093,-2.2007,-2.1766,-2.2476,-2.2766,-2.2825,-2.3469,-2.4248,-2.5053,-2.5053,-2.5053,-2.5053,-2.5053,-2.5053,-2.511,-2.5857,-2.6025,-2.5887,-2.6636,-2.6784,-2.6591,-2.6591,-2.6591,-2.6591]},{"header":{"parameterUnit":"m.s-1","parameterCategory":1,"la1":30.6,"la2":28.766,"lo1":-90.7593,"lo2":-88.6598,"dy":0.0162,"dx":0.0183,"nx":116,"ny":114,"refTime":"2023-05-06T00:00:00:Z","depth":0,"parameterNumber":3,"parameterNumberName":"V-component_of_WINDS"},"data":[0.0,0.0,0.0,0.0,0.0,0.0,0.0,0.0,0.0,0.0,0.0,0.0,0.0,0.0,0.0,0.0,0.0,0.0,0.0,0.0,0.0,0.0,0.0,0.0,0.0,0.0,0.0,0.0,0.0,0.0,0.0,0.0,0.0,0.0,0.0,0.0,0.0,0.0,0.0,0.0,0.0,0.0,0.0,0.0,0.0,0.0,0.0,0.0,0.0,0.0,0.0,0.0,0.0,0.0,0.0,0.0,0.0,0.0,0.0,0.0,0.0,0.0,0.0,0.0,0.0,0.0,0.0,0.0,0.0,0.0,0.0,0.0,0.0,0.0,0.0,0.0,0.0,0.0,0.0,0.0,0.0,0.0,0.0,0.0,0.0,0.0,0.0,0.0,0.0,0.0,0.0,0.0,0.0,0.0,0.0,0.0,0.0,0.0,0.0,0.0,0.0,0.0,0.0,0.0,0.0,0.0,0.0,0.0,0.0,0.0,0.0,0.0,0.0,0.0,0.0,0.0,0.0,0.0,0.0,0.0,0.0,0.0,0.0,0.0,0.0,0.0,0.0,0.0,0.0,0.0,0.0,0.0,0.0,0.0,0.0,0.0,0.0,0.0,0.0,0.0,0.0,0.0,0.0,0.0,0.0,0.0,0.0,0.0,0.0,0.0,0.0,0.0,0.0,0.0,0.0,0.0,0.0,0.0,0.0,0.0,0.0,0.0,0.0,0.0,0.0,0.0,0.0,0.0,0.0,0.0,0.0,0.0,0.0,0.0,0.0,0.0,0.0,0.0,0.0,0.0,0.0,0.0,0.0,0.0,0.0,0.0,0.0,0.0,0.0,0.0,0.0,0.0,0.0,0.0,0.0,0.0,0.0,0.0,0.0,0.0,0.0,0.0,0.0,0.0,0.0,0.0,0.0,0.0,0.0,0.0,0.0,0.0,0.0,0.0,0.0,0.0,0.0,0.0,0.0,0.0,0.0,0.0,0.0,0.0,0.0,0.0,0.0,0.0,0.0,0.0,0.0,0.0,0.0,0.0,0.0,0.0,0.0,0.0,0.0,0.0,0.0,0.0,0.0,0.0,0.0,0.0,0.0,0.0,0.0,0.0,0.0,0.0,0.0,0.0,0.0,0.0,0.0,0.0,0.0,0.0,0.0,0.0,0.0,0.0,0.0,0.0,0.0,0.0,0.0,0.0,0.0,0.0,0.0,0.0,0.0,0.0,0.0,0.0,0.0,0.0,0.0,0.0,0.0,0.0,0.0,0.0,0.0,0.0,0.0,0.0,0.0,0.0,0.0,0.0,0.0,0.0,0.0,0.0,0.0,0.0,0.0,0.0,0.0,0.0,0.0,0.0,0.0,0.0,0.0,0.0,0.0,0.0,0.0,0.0,0.0,0.0,0.0,0.0,0.0,0.0,0.0,0.0,0.0,0.0,0.0,0.0,0.0,0.0,0.0,0.0,0.0,0.0,0.0,0.0,0.0,0.0,0.0,0.0,0.0,0.0,0.0,0.0,0.0,0.0,0.0,0.0,0.0,0.0,0.0,0.0,0.0,0.0,0.0,0.0,0.0,0.0,0.0,0.0,0.0,0.0,0.0,0.0,0.0,0.0,0.0,0.0,0.0,0.0,0.0,0.0,0.0,0.0,0.0,0.0,0.0,0.0,0.0,0.0,0.0,0.0,0.0,0.0,0.0,0.0,0.0,0.0,0.0,0.0,0.0,0.0,0.0,0.0,0.0,0.0,0.0,0.0,0.0,0.0,0.0,0.0,0.0,0.0,0.0,0.0,0.0,0.0,0.0,0.0,0.0,0.0,0.0,0.0,0.0,0.0,0.0,0.0,0.0,0.0,0.0,0.0,0.0,0.0,0.0,0.0,0.0,0.0,0.0,0.0,0.0,0.0,0.0,0.0,0.0,0.0,0.0,0.0,0.0,0.0,0.0,0.0,0.0,0.0,0.0,0.0,0.0,0.0,0.0,0.0,0.0,0.0,0.0,0.0,0.0,0.0,0.0,0.0,0.0,0.0,0.0,0.0,0.0,0.0,0.0,0.0,0.0,0.0,0.0,0.0,0.0,0.0,0.0,0.0,0.0,0.0,0.0,0.0,0.0,0.0,0.0,0.0,0.0,0.0,0.0,0.0,0.0,0.0,0.0,0.0,0.0,0.0,0.0,0.0,0.0,0.0,0.0,0.0,0.0,0.0,0.0,0.0,0.0,0.0,0.0,0.0,0.0,0.0,0.0,0.0,0.0,0.0,0.0,0.0,0.0,0.0,0.0,0.0,0.0,0.0,0.0,0.0,0.0,0.0,0.0,0.0,0.0,0.0,0.0,0.0,0.0,0.0,0.0,0.0,0.0,0.0,0.0,0.0,0.0,0.0,0.0,0.0,0.0,0.0,0.0,0.0,0.0,0.0,0.0,0.0,0.0,0.0,0.0,0.0,0.0,0.0,0.0,0.0,0.0,0.0,0.0,0.0,0.0,0.0,0.0,0.0,0.0,0.0,0.0,0.0,0.0,0.0,0.0,0.0,0.0,0.0,0.0,0.0,0.0,0.0,0.0,0.0,0.0,0.0,0.0,0.0,0.0,0.0,0.0,0.0,0.0,0.0,0.0,0.0,0.0,0.0,0.0,0.0,0.0,0.0,0.0,0.0,0.0,0.0,0.0,0.0,0.0,0.0,0.0,0.0,0.0,0.0,0.0,0.0,0.0,0.0,0.0,0.0,0.0,0.0,0.0,0.0,0.0,0.0,0.0,0.0,0.0,0.0,0.0,0.0,0.0,0.0,0.0,0.0,0.0,0.0,0.0,0.0,0.0,0.0,0.0,0.0,0.0,0.0,0.0,0.0,0.0,0.0,0.0,0.0,0.0,0.0,0.0,0.0,0.0,0.0,0.0,0.0,0.0,0.0,0.0,0.0,0.0,0.0,0.0,0.0,0.0,0.0,0.0,0.0,0.0,0.0,0.0,0.0,0.0,0.0,0.0,0.0,0.0,0.0,0.0,0.0,0.0,0.0,0.0,0.0,0.0,0.0,0.0,0.0,0.0,0.0,0.0,0.0,0.0,0.0,0.0,0.0,0.0,0.0,0.0,0.0,0.0,0.0,0.0,0.0,0.0,0.0,0.0,0.0,0.0,0.0,0.0,0.0,0.0,0.0,0.0,0.0,0.0,0.0,0.0,0.0,0.0,0.0,0.0,0.0,0.0,0.0,0.0,0.0,0.0,0.0,0.0,0.0,0.0,0.0,0.0,0.0,0.0,0.0,0.0,0.0,0.0,0.0,0.0,0.0,0.0,0.0,0.0,0.0,0.0,0.0,0.0,0.0,0.0,0.0,0.0,0.0,0.0,0.0,0.0,0.0,0.0,0.0,0.0,0.0,0.0,0.0,0.0,0.0,0.0,0.0,0.0,0.0,0.0,0.0,0.0,0.0,0.0,0.0,0.0,0.0,0.0,0.0,0.0,0.0,0.0,0.0,0.0,0.0,0.0,0.0,0.0,0.0,0.0,0.0,0.0,0.0,0.0,0.0,0.0,0.0,0.0,0.0,0.0,0.0,0.0,0.0,0.0,0.0,0.0,0.0,0.0,0.0,0.0,0.0,0.0,0.0,0.0,0.0,0.0,0.0,0.0,0.0,0.0,0.0,0.0,0.0,0.0,0.0,0.0,0.0,0.0,0.0,0.0,0.0,0.0,0.0,0.0,0.0,0.0,0.0,0.0,0.0,0.0,0.0,0.0,0.0,0.0,0.0,0.0,0.0,0.0,0.0,0.0,0.0,0.0,0.0,0.0,0.0,0.0,0.0,0.0,0.0,0.0,0.0,0.0,0.0,0.0,0.0,0.0,0.0,0.0,0.0,0.0,0.0,0.0,0.0,0.0,0.0,0.0,0.0,0.0,0.0,0.0,0.0,0.0,0.0,0.0,0.0,0.0,0.0,0.0,0.0,0.0,0.0,0.0,0.0,0.0,0.0,0.0,0.0,0.0,0.0,0.0,0.0,0.0,0.0,0.0,0.0,0.0,0.0,0.0,0.0,0.0,0.0,0.0,0.0,0.0,0.0,0.0,0.0,0.0,0.0,0.0,0.0,0.0,0.0,0.0,0.0,0.0,0.0,0.0,0.0,0.0,0.0,0.0,0.0,0.0,0.0,0.0,0.0,0.0,0.0,0.0,0.0,0.0,0.0,0.0,0.0,0.0,0.0,0.0,0.0,0.0,0.0,0.0,0.0,0.0,0.0,0.0,0.0,0.0,0.0,0.0,0.0,0.0,0.0,0.0,0.0,0.0,0.0,0.0,0.0,0.0,0.0,0.0,0.0,0.0,0.0,0.0,0.0,0.0,0.0,0.0,0.0,0.0,0.0,0.0,0.0,0.0,0.0,0.0,0.0,0.0,0.0,0.0,0.0,0.0,0.0,0.0,0.0,0.0,0.0,0.0,0.0,0.0,0.0,0.0,0.0,0.0,0.0,0.0,0.0,0.0,0.0,0.0,0.0,0.0,0.0,0.0,0.0,0.0,0.0,0.0,0.0,0.0,0.0,0.0,0.0,0.0,0.0,0.0,0.0,0.0,0.0,0.0,0.0,0.0,0.0,0.0,0.0,0.0,0.0,0.0,0.0,0.0,0.0,0.0,0.0,0.0,0.0,0.0,0.0,0.0,0.0,0.0,0.0,0.0,0.0,0.0,0.0,0.0,0.0,0.0,0.0,0.0,0.0,0.0,0.0,0.0,0.0,0.0,0.0,0.0,0.0,0.0,0.0,0.0,0.0,0.0,0.0,0.0,0.0,0.0,0.0,0.0,0.0,0.0,0.0,0.0,0.0,0.0,0.0,0.0,0.0,0.0,0.0,0.0,0.0,0.0,0.0,0.0,0.0,0.0,0.0,0.0,0.0,0.0,0.0,0.0,0.0,0.0,0.0,0.0,0.0,0.0,0.0,0.0,0.0,0.0,0.0,0.0,0.0,0.0,0.0,0.0,0.0,0.0,0.0,0.0,0.0,0.0,0.0,0.0,0.0,0.0,0.0,0.0,0.0,0.0,0.0,0.0,0.0,0.0,0.0,0.0,0.0,0.0,0.0,0.0,0.0,0.0,0.0,0.0,0.0,0.0,0.0,0.0,0.0,0.0,0.0,0.0,0.0,0.0,0.0,0.0,0.0,0.0,0.0,0.0,0.0,0.0,0.0,0.0,0.0,0.0,0.0,0.0,0.0,0.0,0.0,0.0,0.0,0.0,0.0,0.0,0.0,0.0,0.0,0.0,0.0,0.0,0.0,0.0,0.0,0.0,0.0,0.0,0.0,0.0,0.0,0.0,0.0,0.0,0.0,0.0,0.0,0.0,0.0,0.0,0.0,0.0,0.0,0.0,0.0,0.0,0.0,0.0,0.0,0.0,0.0,0.0,0.0,0.0,0.0,0.0,0.0,0.0,0.0,0.0,0.0,0.0,0.0,0.0,0.0,0.0,0.0,0.0,0.0,0.0,0.0,0.0,0.0,0.0,0.0,0.0,0.0,0.0,0.0,0.0,0.0,0.0,0.0,0.0,0.0,0.0,0.0,0.0,0.0,0.0,0.0,0.0,0.0,0.0,0.0,0.0,0.0,0.0,0.0,0.0,0.0,0.0,0.0,0.0,0.0,0.0,0.0,0.0,0.0,0.0,0.0,0.0,0.0,0.0,0.0,0.0,0.0,0.0,0.0,0.0,0.0,0.0,0.0,0.0,0.0,0.0,0.0,0.0,0.0,0.0,0.0,0.0,0.0,0.0,0.0,0.0,0.0,0.0,0.0,0.0,0.0,0.0,0.0,0.0,0.0,0.0,0.0,0.0,0.0,0.0,0.0,0.0,0.0,0.0,0.0,0.0,0.0,0.0,0.0,0.0,0.0,0.0,0.0,0.0,0.0,0.0,0.0,0.0,0.0,0.0,0.0,0.0,0.0,0.0,0.0,0.0,0.0,0.0,0.0,0.0,0.0,0.0,0.0,0.0,0.0,0.0,0.0,0.0,0.0,0.0,0.0,0.0,0.0,0.0,0.0,0.0,0.0,0.0,0.0,0.0,0.0,0.0,0.0,0.0,0.0,0.0,0.0,0.0,0.0,0.0,0.0,1.9533,1.8238,0.0,0.0,0.0,0.0,0.0,0.0,0.0,0.0,0.0,0.0,0.0,0.0,0.0,0.0,0.0,0.0,0.0,0.0,0.0,0.0,0.0,0.0,0.0,0.0,0.0,0.0,0.0,0.0,0.0,0.0,0.0,0.0,0.0,0.0,0.0,0.0,0.0,0.0,3.0304,3.1351,3.2422,3.2601,3.2048,3.0821,0.0,0.0,0.0,0.0,0.0,0.0,0.0,0.0,0.0,0.0,0.0,0.0,0.0,0.0,0.0,0.0,0.0,0.0,0.0,0.0,0.0,0.0,0.0,0.0,0.0,0.0,0.0,0.0,0.0,0.0,0.0,0.0,0.0,0.0,0.0,0.0,0.0,0.0,0.0,0.0,0.0,0.0,0.0,0.0,0.0,0.0,0.0,0.0,0.0,0.0,0.0,0.0,0.0,0.0,0.0,0.0,0.0,0.0,0.0,0.0,0.0,0.0,0.0,0.0,0.0,0.0,0.0,0.0,0.0,0.0,2.0974,1.9581,0.0,0.0,0.0,0.0,0.0,0.0,0.0,0.0,0.0,0.0,0.0,0.0,0.0,0.0,0.0,0.0,0.0,0.0,0.0,0.0,0.0,0.0,0.0,0.0,3.1773,3.1503,3.1446,3.1161,0.0,0.0,0.0,0.0,0.0,0.0,0.0,2.8594,2.8748,2.9132,3.0503,3.2377,3.4698,3.5235,3.4211,3.1856,3.1826,0.0,0.0,0.0,0.0,0.0,0.0,0.0,0.0,0.0,0.0,0.0,0.0,0.0,0.0,0.0,0.0,0.0,0.0,0.0,0.0,0.0,0.0,0.0,0.0,0.0,0.0,0.0,0.0,0.0,0.0,0.0,0.0,0.0,0.0,0.0,0.0,0.0,0.0,0.0,0.0,0.0,0.0,0.0,0.0,0.0,0.0,0.0,0.0,0.0,0.0,0.0,0.0,0.0,0.0,0.0,0.0,0.0,0.0,0.0,0.0,0.0,0.0,0.0,2.4203,2.4283,2.4283,2.449,2.4619,2.4566,2.3652,2.2174,2.0323,1.9972,0.0,0.0,0.0,0.0,0.0,0.0,0.0,0.0,0.0,0.0,0.0,0.0,0.0,0.0,0.0,0.0,0.0,0.0,0.0,0.0,0.0,3.1331,3.1338,3.1404,3.1311,3.0979,0.0,0.0,0.0,0.0,0.0,0.0,2.8952,2.8609,2.9341,3.1191,3.3063,3.4442,3.537,3.5459,3.5292,3.4916,3.4611,3.3768,3.2583,0.0,0.0,0.0,0.0,0.0,0.0,0.0,0.0,0.0,0.0,0.0,0.0,0.0,0.0,0.0,0.0,0.0,0.0,0.0,0.0,0.0,0.0,0.0,0.0,0.0,0.0,0.0,0.0,0.0,0.0,0.0,0.0,0.0,0.0,0.0,0.0,0.0,0.0,0.0,0.0,0.0,2.9239,2.7293,0.0,0.0,0.0,0.0,0.0,0.0,0.0,0.0,0.0,0.0,0.0,0.0,0.0,2.613,2.6515,2.666,2.6695,2.6608,2.7736,2.8261,2.8285,2.9326,2.9821,2.974,2.8804,0.0,2.2511,2.1807,0.0,0.0,0.0,0.0,0.0,0.0,0.0,0.0,0.0,0.0,0.0,0.0,0.0,0.0,0.0,0.0,0.0,0.0,0.0,0.0,0.0,3.1697,3.2496,3.2412,3.3325,3.3174,3.1481,3.1386,0.0,0.0,0.0,2.8861,2.9004,2.9633,3.1693,3.519,3.6795,3.8138,3.9151,3.9021,3.8776,3.8394,3.8174,3.6688,3.429,3.3502,0.0,0.0,0.0,0.0,0.0,0.0,0.0,0.0,0.0,0.0,0.0,0.0,0.0,0.0,0.0,0.0,0.0,0.0,0.0,0.0,0.0,0.0,0.0,0.0,0.0,0.0,0.0,0.0,0.0,0.0,0.0,0.0,0.0,0.0,0.0,0.0,0.0,0.0,0.0,2.8185,2.7921,2.5699,2.5749,2.5481,0.0,0.0,0.0,0.0,0.0,0.0,0.0,0.0,0.0,2.6569,2.7656,2.8386,2.8633,2.9215,2.9512,2.9524,3.0087,3.035,3.0375,3.0888,3.1141,3.11,3.058,2.9273,2.7392,2.534,2.4187,2.3666,0.0,0.0,0.0,0.0,2.1182,2.0651,0.0,0.0,0.0,0.0,0.0,0.0,0.0,0.0,0.0,0.0,0.0,0.0,3.0526,3.2703,3.4068,3.3894,3.5141,3.4865,3.2308,3.2124,0.0,0.0,2.8645,2.8904,2.9307,3.1517,3.4525,3.8365,3.9794,4.1004,4.1997,4.1869,4.1495,4.1013,4.0909,3.917,3.6185,3.5016,3.4418,3.4091,0.0,0.0,0.0,0.0,0.0,0.0,0.0,0.0,0.0,0.0,0.0,0.0,0.0,0.0,0.0,0.0,0.0,0.0,0.0,0.0,0.0,0.0,0.0,0.0,0.0,0.0,0.0,0.0,0.0,0.0,0.0,0.0,0.0,0.0,0.0,0.0,0.0,2.7331,2.7318,2.5109,2.5674,2.5812,0.0,0.0,0.0,0.0,0.0,0.0,2.6914,2.7934,2.8599,2.875,2.9829,3.0482,3.0633,3.1424,3.1813,3.1813,3.1813,3.1813,3.1813,3.1813,3.1813,3.1825,3.1672,3.1631,3.1394,2.841,2.679,2.6123,2.5536,2.4955,2.4328,2.408,2.3489,2.2909,0.0,0.0,0.0,0.0,0.0,0.0,0.0,0.0,0.0,0.0,0.0,3.2134,3.2761,3.4483,3.5639,3.5742,3.5732,3.4661,3.2165,3.1883,3.0931,2.8952,2.9296,2.975,3.023,3.4427,3.7494,3.9314,4.1049,4.1917,4.1997,4.1997,4.1965,4.1933,4.1933,4.0591,3.8288,3.753,3.6892,3.6168,3.4166,0.0,0.0,0.0,0.0,0.0,0.0,0.0,0.0,0.0,0.0,0.0,0.0,0.0,0.0,0.0,0.0,0.0,0.0,0.0,0.0,0.0,0.0,0.0,0.0,0.0,0.0,0.0,0.0,0.0,0.0,0.0,0.0,0.0,0.0,0.0,0.0,0.0,0.0,2.7381,2.762,0.0,0.0,0.0,0.0,2.7858,2.7996,2.8021,2.8021,2.9101,2.9942,3.047,3.1537,3.2353,3.2948,3.3011,3.2993,3.2993,3.2993,3.2993,3.2993,3.2993,3.2993,3.2993,3.2993,3.2993,3.2787,3.0003,2.8846,2.8626,2.6905,2.5789,2.5071,2.4558,2.3904,2.336,0.0,0.0,0.0,0.0,0.0,0.0,0.0,0.0,2.9098,2.9098,3.0782,3.2087,3.2322,3.512,3.7002,3.7049,3.8114,3.7897,3.5806,3.4379,3.2746,3.0857,2.9706,3.0577,3.3707,3.7727,4.0535,4.2045,4.3148,4.3663,4.3663,4.3529,4.3243,4.2816,4.2691,4.2182,4.1276,3.9277,3.822,3.7714,3.5305,3.3862,0.0,0.0,0.0,0.0,0.0,0.0,0.0,0.0,0.0,0.0,0.0,0.0,0.0,0.0,0.0,0.0,0.0,0.0,0.0,0.0,0.0,0.0,0.0,0.0,0.0,0.0,0.0,0.0,0.0,0.0,0.0,0.0,0.0,0.0,0.0,0.0,0.0,2.8486,2.885,0.0,2.8122,2.8047,2.836,2.9139,2.9829,3.0218,3.0218,3.1286,3.2001,3.219,3.2566,3.2867,3.3124,3.3124,3.3124,3.3124,3.3124,3.3124,3.3124,3.3124,3.3124,3.3124,3.3124,3.3124,3.3018,3.2047,3.1427,3.0963,2.9831,2.9211,2.8901,2.8261,2.7849,2.7583,0.0,0.0,0.0,0.0,0.0,0.0,0.0,0.0,2.9281,2.9942,3.169,3.3146,3.3848,3.6754,3.8639,3.8639,3.9773,3.9403,3.6817,3.5348,3.3426,3.0824,3.0455,3.251,3.7177,3.9986,4.2206,4.3869,4.4367,4.4615,4.4615,4.4468,4.415,4.3739,4.3588,4.3542,4.3416,4.1392,4.0371,3.9929,3.728,3.5446,3.4106,0.0,0.0,0.0,0.0,0.0,0.0,0.0,0.0,0.0,0.0,0.0,0.0,0.0,0.0,0.0,0.0,0.0,0.0,0.0,0.0,0.0,0.0,0.0,0.0,0.0,0.0,0.0,0.0,0.0,0.0,0.0,0.0,0.0,0.0,2.9628,3.0118,2.9527,2.9993,3.0181,2.9792,2.9754,3.008,3.0846,3.1562,3.1951,3.1951,3.2667,3.3156,3.3345,3.3357,3.3445,3.3633,3.3633,3.3633,3.3633,3.3633,3.3533,3.3357,3.3357,3.3257,3.3124,3.3124,3.3124,3.3124,3.3124,3.2855,3.2441,3.1735,3.1481,3.1365,3.0707,3.0468,3.0394,0.0,0.0,0.0,0.0,0.0,0.0,0.0,2.8904,2.961,3.1555,3.3448,3.5393,3.7482,3.9375,4.0489,4.0489,4.0489,3.8864,3.4946,3.4579,3.2773,2.8876,3.1758,3.5638,4.0281,4.1098,4.2511,4.4615,4.4615,4.4615,4.4632,4.4632,4.4649,4.4682,4.4682,4.4666,4.4575,4.3873,4.3363,4.2806,4.0166,3.7826,3.5725,0.0,0.0,0.0,0.0,0.0,0.0,0.0,0.0,0.0,0.0,0.0,0.0,0.0,0.0,0.0,0.0,0.0,0.0,0.0,0.0,0.0,0.0,0.0,0.0,0.0,0.0,0.0,0.0,0.0,0.0,0.0,0.0,0.0,3.0343,3.0826,3.1276,3.0786,3.1175,3.1449,3.1461,3.1461,3.1926,3.3086,3.3174,3.3174,3.3174,3.3174,3.337,3.3909,3.3922,3.4173,3.4668,3.468,3.468,3.468,3.468,3.4449,3.3922,3.3922,3.3633,3.3174,3.3106,3.3106,3.3106,3.3124,3.3124,3.3018,3.2453,3.224,3.2177,3.1625,3.1399,3.1323,0.0,0.0,0.0,0.0,0.0,0.0,0.0,2.8967,2.9634,3.1674,3.3491,3.5393,3.7482,3.9375,4.0489,4.0489,4.0627,3.9665,3.7142,3.5708,3.3711,3.1052,3.4877,3.7923,3.9703,4.1834,4.3484,4.4615,4.4615,4.4886,4.5399,4.5399,4.5669,4.6194,4.6194,4.5889,4.5399,4.5192,4.474,4.4013,4.2145,4.0353,3.867,0.0,0.0,0.0,0.0,0.0,0.0,0.0,0.0,0.0,0.0,0.0,0.0,0.0,0.0,0.0,0.0,0.0,0.0,0.0,0.0,0.0,0.0,0.0,0.0,0.0,0.0,0.0,0.0,0.0,0.0,0.0,3.4917,3.5025,3.3499,3.3198,3.3245,3.3532,3.2995,3.2767,3.3169,3.3206,3.3508,3.4223,3.4274,3.4274,3.4274,3.4274,3.4336,3.45,3.45,3.4562,3.468,3.468,3.468,3.468,3.468,3.4638,3.45,3.45,3.4412,3.4248,3.3847,3.3671,3.3646,3.3244,3.3124,3.3056,3.2905,3.2842,3.2767,3.2202,3.1738,3.1373,0.0,0.0,0.0,0.0,0.0,0.0,0.0,2.8943,2.9899,3.2714,3.3963,3.5688,3.8577,3.985,4.0524,4.0627,3.999,3.8633,3.6422,3.446,3.3678,3.4363,3.7162,3.9413,4.0939,4.2778,4.4059,4.4776,4.4776,4.5139,4.5869,4.5869,4.6231,4.6874,4.6874,4.6607,4.616,4.616,4.5737,4.4987,4.4085,4.2274,4.0019,3.895,3.7732,3.6492,3.5721,3.5593,3.571,3.4906,0.0,0.0,0.0,0.0,0.0,0.0,0.0,0.0,0.0,0.0,0.0,0.0,0.0,0.0,0.0,0.0,0.0,0.0,0.0,0.0,0.0,0.0,0.0,0.0,3.6847,3.7469,3.7094,3.5983,3.5346,3.5709,3.5076,3.4749,3.4953,3.4622,3.4476,3.47,3.468,3.468,3.468,3.468,3.4781,3.5019,3.5019,3.5177,3.5403,3.5416,3.5416,3.5416,3.5416,3.529,3.5019,3.5019,3.4893,3.4655,3.4387,3.4248,3.4198,3.3658,3.342,3.3395,0.0,0.0,0.0,0.0,3.2215,3.1738,0.0,0.0,0.0,0.0,0.0,0.0,0.0,2.8881,3.0223,3.3919,3.4517,3.6075,3.9925,4.0455,4.0593,4.0799,3.9037,3.6859,3.4368,3.2719,3.3701,3.7857,3.8818,4.0414,4.2949,4.3571,4.4259,4.5005,4.5005,4.5432,4.6236,4.6236,4.6613,4.7287,4.7257,4.7136,4.695,4.695,4.6447,4.5703,4.5616,4.3668,4.0702,3.9958,3.8434,3.6718,3.6542,3.6493,3.6446,3.6148,0.0,0.0,0.0,0.0,0.0,0.0,0.0,0.0,0.0,0.0,0.0,0.0,0.0,0.0,0.0,0.0,0.0,0.0,0.0,0.0,0.0,0.0,0.0,0.0,3.8878,3.9965,4.0449,3.8937,3.7695,3.7504,3.7192,3.6909,3.6774,3.6012,3.5411,3.5115,3.507,3.5037,3.4914,3.4901,0.0,0.0,0.0,3.5868,3.6405,3.6405,3.6405,3.6405,3.6405,3.6107,3.5596,3.5596,3.532,3.4901,3.4839,3.4768,3.4731,3.4223,3.396,3.3847,3.3294,3.3124,3.3124,3.3124,3.2754,3.2303,0.0,0.0,0.0,0.0,0.0,0.0,0.0,2.8701,2.9917,3.2795,3.4014,3.5845,3.9184,4.0111,4.0593,4.0799,3.9135,3.7303,3.5479,3.6358,3.7363,3.826,3.9863,4.1438,4.2982,4.312,4.3806,4.5005,4.5005,4.5678,4.6994,4.6994,4.7699,4.9014,4.8865,4.8434,4.7827,4.7742,4.6921,4.5645,4.5096,4.4449,4.3628,4.2362,4.1626,4.1103,4.0011,3.955,3.928,3.798,3.7449,3.7056,3.5599,3.4367,0.0,0.0,0.0,0.0,0.0,0.0,0.0,0.0,0.0,0.0,0.0,0.0,0.0,0.0,0.0,0.0,0.0,0.0,0.0,3.7553,3.9148,4.0479,4.1138,4.1302,4.0862,3.9466,3.8473,3.8074,3.8471,3.8355,3.8011,3.7481,3.7429,3.7045,3.6137,3.6091,3.6141,3.6194,3.6207,3.6304,3.6405,3.6405,3.6405,3.6405,3.6405,0.0,3.6207,3.6207,3.6144,3.6019,3.5579,3.5345,3.5295,3.4788,3.4299,3.3847,3.3294,3.3124,3.3124,3.3124,3.3048,3.2918,0.0,0.0,0.0,0.0,0.0,0.0,0.0,2.7972,2.8925,3.1278,3.2307,3.3634,3.5892,3.7044,3.762,3.7557,3.6823,3.622,3.5728,3.7136,3.8586,3.9945,4.0855,4.1802,4.2785,4.2785,4.3273,4.4243,4.4586,4.549,4.6952,4.7301,4.8209,4.9607,4.95,4.9206,4.8788,4.8625,4.7687,4.6285,4.5571,4.4767,4.3943,4.2909,4.23,4.1917,4.1243,4.0749,4.0259,3.9448,3.9082,3.8751,3.7216,3.6293,3.5586,0.0,0.0,0.0,0.0,0.0,0.0,0.0,0.0,0.0,0.0,0.0,0.0,0.0,0.0,3.5207,3.5964,0.0,3.8202,3.8917,4.0381,4.1527,4.1856,4.2432,4.244,4.1219,4.0519,4.015,4.028,3.9872,3.944,3.9023,3.9006,3.8572,3.752,3.7441,3.7268,3.6781,3.6734,3.6734,3.6734,3.6734,3.6734,3.6734,3.6734,3.6687,3.6534,3.6534,3.6499,3.6392,3.6069,3.5956,3.5918,3.5366,3.465,3.3872,3.3596,3.3319,3.3124,3.3124,3.3124,3.3124,0.0,0.0,0.0,0.0,0.0,0.0,0.0,2.7272,2.7984,2.9776,3.052,3.1369,3.2676,3.3924,3.4463,3.3959,3.4872,3.5553,3.568,3.7385,3.9343,4.1526,4.1588,4.19,4.2585,4.2617,4.2911,4.3512,4.4042,4.499,4.6347,4.713,4.8152,4.9338,4.9415,4.9394,4.9243,4.8768,4.777,4.6481,4.5566,4.4428,4.3227,4.2552,4.1981,4.1492,4.136,4.0818,4.017,4.0289,4.0128,3.9761,3.8716,3.8208,3.7679,3.6041,3.5885,0.0,0.0,0.0,0.0,0.0,0.0,0.0,0.0,3.5295,3.6028,3.7165,3.7509,3.7764,3.8287,3.905,3.9783,4.0307,4.1542,4.244,4.2575,4.3,4.3135,4.265,4.2389,4.2181,4.1932,4.1239,4.0646,4.0275,4.0232,3.9798,3.881,3.8765,3.8419,3.7684,3.7638,3.7546,3.7374,3.7374,3.7281,3.7108,3.7108,3.7015,3.6769,3.6769,3.6675,3.6546,3.6499,3.6452,3.6414,3.5768,3.5014,3.4274,3.3985,3.3677,3.3305,3.3162,3.3124,3.3124,0.0,0.0,0.0,0.0,0.0,0.0,0.0,0.0,2.7748,2.8512,2.9697,3.0894,3.1982,3.3317,3.3675,3.262,3.6045,3.7539,3.5808,3.9119,4.1305,4.1573,4.1588,4.19,4.2585,4.2617,4.2911,4.3512,4.3571,4.4062,4.4953,4.6233,4.7259,4.8107,4.8413,4.8543,4.843,4.6832,4.5701,4.4854,4.3569,4.2864,4.2552,4.1868,4.1558,4.1426,4.0836,3.9874,3.904,4.0002,3.9535,3.8742,3.9554,3.8948,3.7877,3.7187,3.5782,3.4331,3.3725,3.3905,3.4379,3.4742,3.5187,3.5639,0.0,3.6312,3.6567,3.727,3.7868,3.8302,3.8377,3.9424,4.0307,4.0382,4.1542,4.2605,4.3135,4.3245,4.326,4.32,4.3165,4.313,4.3115,4.3036,4.2508,4.1504,4.142,4.0916,3.9812,3.9724,3.9681,3.9593,3.9593,3.921,3.8328,3.8328,3.7946,3.7108,3.7108,3.7062,3.7062,3.7062,3.7062,3.7015,3.6769,3.6675,3.6624,3.5814,3.5558,3.556,3.4363,3.4004,3.4065,3.3343,3.3124,3.3124,0.0,0.0,0.0,0.0,0.0,0.0,0.0,0.0,0.0,2.6819,2.7524,2.8077,2.8186,2.9399,3.0216,3.0206,3.4187,3.6368,3.5538,3.9125,4.1339,4.1423,4.1423,4.1606,4.1997,4.2029,4.2142,4.2396,4.2771,4.3362,4.4128,4.5089,4.5895,4.6505,4.6649,4.6656,4.6528,4.5685,4.4919,4.4139,4.3114,4.239,4.182,4.1176,4.0938,4.0863,4.025,3.9479,0.0,3.9221,3.9003,3.8772,3.9937,3.9431,3.8212,3.7294,3.6369,3.5753,3.6454,3.6447,3.6438,3.7312,3.7638,3.7853,3.8123,3.8197,3.8482,3.9514,3.9933,4.0284,4.0673,4.1197,4.1669,4.2043,4.2566,4.3015,4.3245,4.329,4.329,4.329,4.329,4.329,4.329,4.329,4.3115,4.2629,4.2942,4.2721,4.1753,4.2024,4.2006,4.1509,4.1465,4.1288,4.0887,4.0515,4.0114,3.9712,3.8759,3.8251,3.8141,3.7572,3.7261,3.7108,3.6968,3.6922,3.6896,3.6574,3.6281,3.6075,3.5525,3.4952,3.4359,3.3455,3.3124,3.3124,0.0,0.0,0.0,0.0,0.0,0.0,0.0,0.0,0.0,0.0,2.5988,2.6042,2.5743,2.668,2.7675,2.8519,3.1935,3.4425,3.5247,3.8294,4.0411,4.1207,4.1239,4.1323,4.1522,4.1522,4.1522,4.1522,4.1981,4.2494,4.2992,4.3873,4.4485,4.4865,4.4998,4.4983,4.4886,4.4316,4.3748,4.3201,4.2412,4.1731,4.1176,4.0681,4.0293,3.9967,3.9548,3.8764,3.7917,3.7917,3.77,3.7654,3.8839,3.8749,3.8011,3.6984,3.6471,3.6553,3.7956,3.8187,3.828,3.9294,3.9766,3.9963,3.9963,4.0098,4.0502,4.1497,4.1788,4.2058,4.2551,4.2626,4.2776,4.3215,4.329,4.329,4.329,4.329,4.329,4.329,4.329,4.329,4.329,4.329,4.329,4.329,4.3902,4.4017,4.3368,4.3954,4.3992,4.3356,4.3356,4.3225,4.2947,4.2321,4.1865,4.159,4.0233,3.9387,3.8926,3.8031,3.7505,3.7307,3.7261,3.7214,3.7201,3.7108,3.6911,3.663,3.6385,3.5718,3.4807,3.3842,3.3379,3.3197,0.0,0.0,0.0,0.0,0.0,0.0,0.0,0.0,0.0,0.0,0.0,0.0,0.0,2.6666,2.7297,2.8216,2.9911,3.2176,3.5124,3.6692,3.8609,4.099,4.1117,4.1153,4.1323,4.1323,4.1323,4.1323,4.1323,4.1272,4.1216,4.26,4.3249,4.3281,4.3754,4.3956,4.384,4.2342,4.1672,4.161,4.0867,4.0539,4.0524,4.0489,3.9776,3.8735,3.8736,3.7561,3.5974,3.5974,3.5203,3.4441,3.566,3.6471,3.6844,3.6289,3.5804,3.5644,3.6596,3.7619,3.8632,3.9611,4.0639,4.1324,4.1324,4.1856,4.2321,4.2366,4.2836,4.3245,4.326,4.326,4.3275,4.329,4.329,4.329,4.329,4.329,4.329,4.329,4.329,4.329,4.329,4.329,4.329,4.329,4.3902,4.4276,4.4276,4.4889,4.5248,4.5206,4.5206,4.48,4.3877,4.3239,4.2495,4.159,4.0898,4.0073,3.9166,3.8272,3.79,3.7854,3.7598,3.7505,3.7459,3.7214,3.7248,3.7381,3.6585,3.6084,3.568,3.4863,3.404,3.3398,0.0,0.0,0.0,0.0,0.0,0.0,0.0,0.0,0.0,0.0,0.0,0.0,0.0,0.0,0.0,0.0,2.9483,3.0958,3.1975,3.4704,3.6938,3.8444,3.9531,4.0459,4.1153,4.1169,4.1169,4.1169,4.1169,4.1135,4.1117,4.1574,4.1736,4.1619,4.1787,4.176,4.1607,4.111,4.0858,4.0863,4.0597,4.0489,4.0397,3.9624,3.9058,3.8473,0.0,3.5623,3.4632,3.4135,3.3705,3.3685,3.5363,3.5502,3.5021,3.4923,3.5723,3.6913,3.8337,3.9884,4.1331,4.219,4.2795,4.3036,4.271,4.2983,4.3226,4.3039,4.2836,4.2686,4.2686,4.2686,4.2686,4.2686,4.3045,4.329,4.329,4.329,4.329,4.329,4.329,4.329,4.329,4.329,4.329,4.329,4.3902,4.4317,4.4317,4.5379,4.5978,4.5978,4.6396,4.6284,4.5524,4.4857,4.4128,4.338,4.2114,4.1029,4.0116,3.9839,3.937,3.876,3.8657,3.8277,3.7762,3.7657,3.7703,3.7736,3.7449,3.7053,3.6499,3.5825,3.5081,3.4324,0.0,0.0,0.0,0.0,0.0,0.0,0.0,0.0,0.0,0.0,0.0,0.0,0.0,0.0,0.0,0.0,0.0,2.9234,3.0335,3.2354,3.4392,3.6297,3.6972,3.8026,3.9522,3.9142,3.9142,3.957,4.002,4.0235,4.0184,4.0665,4.0814,4.0696,4.0696,4.0627,4.0489,4.047,4.0159,3.9714,3.9699,3.9441,3.8985,3.8269,3.7762,0.0,3.537,3.4195,3.337,3.2898,3.2741,3.3024,3.4504,3.4795,3.4691,3.5471,3.6593,3.8013,4.0142,4.1555,4.2695,4.3576,4.391,4.391,4.3542,4.3596,4.3596,4.3384,4.2626,4.2126,4.2351,4.1826,4.1384,4.1662,4.1818,4.2049,4.2566,4.2626,4.2806,4.3245,4.329,4.329,4.329,4.329,4.329,4.329,4.3902,4.4317,4.4317,4.5364,4.5963,4.5963,4.6367,4.6381,4.5963,4.5289,4.4616,4.3917,4.2606,4.1686,4.1071,4.0774,4.0289,3.9681,3.9329,3.8881,3.8349,3.8024,3.79,3.79,3.79,3.7534,3.6959,3.6567,3.5852,3.4938,0.0,0.0,0.0,0.0,0.0,0.0,0.0,0.0,0.0,0.0,0.0,0.0,0.0,0.0,0.0,0.0,0.0,0.0,2.9972,2.9783,3.1072,3.4514,3.3707,3.43,3.6662,3.5661,3.5661,3.6785,3.8057,3.8596,3.8431,3.969,4.029,4.029,4.029,4.029,4.029,4.0132,3.9363,3.82,3.8121,3.7454,3.6492,3.6554,3.5959,3.5002,3.4309,3.3318,3.2339,3.226,3.2339,3.2566,3.3251,3.4451,3.5938,3.776,3.8325,3.9013,4.1769,4.2565,4.2809,4.3784,4.4026,4.3988,4.3769,4.3729,4.3675,4.3379,4.2291,4.1542,4.2179,4.0711,3.9679,4.0307,3.9963,4.0053,4.1309,4.1489,4.1938,4.314,4.329,4.329,4.329,4.329,4.329,4.329,4.3873,4.4272,4.4272,4.4885,4.5244,4.5244,4.5274,4.5274,4.5244,4.4586,4.3943,4.329,4.2456,4.2073,4.2032,4.1155,4.0717,4.0646,3.9724,3.9285,3.9121,3.8317,3.7946,3.79,3.79,3.7547,3.705,3.7011,3.6292,3.5217,0.0,0.0,0.0,0.0,0.0,0.0,0.0,0.0,0.0,0.0,0.0,0.0,0.0,0.0,0.0,0.0,0.0,0.0,2.6997,2.8107,2.9505,3.1314,3.2327,3.3761,3.5785,3.5539,3.5776,3.6585,3.6924,3.7062,3.7015,3.7353,3.7523,3.7523,3.7523,3.7459,3.7378,3.7345,3.705,3.6586,3.6571,3.6484,3.6275,3.5518,3.5105,3.4839,3.3841,3.3314,3.2882,3.1839,3.2762,3.4572,3.5652,3.6889,3.82,3.923,4.0175,4.1143,4.2386,4.3389,4.4103,4.419,4.4358,4.4358,4.3988,4.4026,4.399,4.3358,4.1964,4.0842,4.0634,4.0356,4.0202,4.0367,4.1489,4.2408,4.2751,4.2836,4.2955,4.326,4.329,4.329,4.329,4.329,4.329,4.329,4.3454,4.3544,4.3544,4.4212,4.4556,4.4556,4.5035,4.5065,4.4571,4.3873,4.3469,4.329,4.3076,4.2955,4.2955,4.2739,4.2278,4.1645,4.138,4.0504,3.9166,3.8957,3.8472,3.79,3.79,3.7808,3.7625,3.7168,3.6541,3.5822,0.0,0.0,0.0,0.0,0.0,0.0,0.0,0.0,0.0,0.0,0.0,0.0,0.0,0.0,0.0,0.0,0.0,0.0,0.0,2.6856,2.8098,2.9404,3.0069,3.1478,3.3787,3.3072,3.3349,3.4691,3.511,3.537,3.5508,3.6122,3.6367,3.6289,3.6289,3.6241,3.6147,3.6099,3.5701,0.0,0.0,3.4744,3.4347,3.3802,3.3795,3.3954,3.3352,3.3543,3.4125,3.4397,3.5513,3.7029,3.8309,3.9227,4.0004,4.0948,4.1717,4.2432,4.3355,4.4062,4.4572,4.4473,4.4511,4.4457,4.3899,4.3647,4.3232,4.2178,4.0522,3.926,3.9287,3.9057,3.9053,3.964,4.077,4.178,4.2387,4.2476,4.2686,4.323,4.329,4.329,4.329,4.329,4.329,4.329,4.329,4.329,4.329,4.3648,4.3843,4.3843,4.4242,4.4257,4.3843,4.3484,4.329,4.329,4.329,4.329,4.329,4.329,4.3036,4.2537,4.2155,4.138,4.0375,3.9986,3.9533,3.9087,3.9087,3.9087,3.9002,3.8265,3.7581,3.6967,0.0,0.0,0.0,0.0,0.0,0.0,0.0,0.0,0.0,0.0,0.0,0.0,0.0,0.0,0.0,0.0,0.0,0.0,0.0,0.0,2.6916,2.8183,2.7832,2.8839,3.1436,3.009,3.0337,3.2342,3.3149,3.3667,3.3934,3.5171,3.5629,3.5473,3.5473,3.5442,3.5411,3.5315,3.4588,3.3502,3.3442,3.2838,3.1996,0.0,0.0,3.2831,3.2952,3.3911,3.5486,3.793,3.8953,3.9442,4.0873,4.1351,4.1662,4.2715,4.3035,4.3283,4.4339,4.461,4.461,4.461,4.461,4.4372,4.3602,4.2971,4.2109,4.0555,3.8736,3.7583,3.7983,3.7539,3.7491,3.8717,3.9435,4.0269,4.1459,4.1639,4.2058,4.3155,4.329,4.329,4.329,4.329,4.329,4.329,4.329,4.329,4.329,4.329,4.329,4.329,4.329,4.329,4.329,4.329,4.329,4.329,4.329,4.329,4.329,4.329,4.329,4.325,4.2496,4.2114,4.1949,4.1113,4.0731,4.0603,4.0603,4.0603,4.0504,3.9549,3.8844,3.8201,0.0,0.0,0.0,0.0,0.0,0.0,0.0,0.0,0.0,0.0,2.5715,2.6126,0.0,0.0,0.0,0.0,0.0,0.0,0.0,0.0,0.0,2.6816,2.7732,2.8907,3.027,3.0542,3.1115,3.2066,3.2224,3.233,3.2403,3.2631,3.2724,3.268,3.268,3.2637,3.2536,3.2507,3.2269,3.1913,3.1869,3.185,3.1841,3.1996,0.0,0.0,3.3147,3.4181,3.56,3.8236,3.9591,4.0474,4.2324,4.3269,4.3813,4.4194,4.4293,4.4317,4.4548,4.461,4.461,4.461,4.461,4.4324,4.3184,4.285,4.2116,3.9869,3.8462,3.7358,3.6489,3.7325,3.8323,3.8823,4.0813,4.2432,4.292,4.2961,4.3035,4.326,4.329,4.329,4.329,4.329,4.329,4.329,4.329,4.329,4.329,4.329,4.329,4.329,4.329,4.329,4.329,4.329,4.329,4.329,4.329,4.329,4.329,4.329,4.329,4.329,4.313,4.2659,4.199,4.1811,4.1296,4.0603,4.0603,4.0603,4.0504,3.9549,3.8844,3.8269,0.0,0.0,0.0,0.0,0.0,0.0,0.0,2.3559,2.4038,2.5186,2.5529,2.5923,2.6492,2.6348,2.6102,0.0,0.0,0.0,0.0,0.0,0.0,0.0,2.8071,2.9128,2.9625,3.0297,3.0896,3.148,0.0,3.1726,3.1898,3.1898,3.1826,3.1741,3.1741,3.1712,3.1641,3.1641,3.1597,3.1511,3.1511,3.1778,3.2135,0.0,0.0,0.0,3.3157,3.4234,3.5447,3.7162,3.9005,4.0902,4.3015,4.396,4.432,4.4435,4.4511,4.461,4.461,4.461,4.461,4.461,4.461,4.4216,4.2756,4.188,4.0642,3.823,3.6787,3.5743,3.5156,3.613,3.7341,3.8212,4.0289,4.1987,4.2491,4.2974,4.329,4.329,4.329,4.329,4.329,4.329,4.329,4.329,4.329,4.329,4.329,4.329,4.329,4.329,4.329,4.329,4.329,4.329,4.329,4.329,4.329,4.329,4.329,4.329,4.329,4.329,4.329,4.3036,4.2659,4.2659,4.24,4.2003,4.2003,4.2003,4.1879,4.0986,4.0506,4.0013,0.0,0.0,0.0,0.0,0.0,0.0,0.0,2.3458,2.399,2.5,2.5373,2.5665,2.6021,2.6019,2.5941,0.0,0.0,0.0,0.0,0.0,0.0,0.0,0.0,0.0,2.9546,0.0,0.0,3.1116,3.1278,0.0,0.0,0.0,0.0,0.0,3.138,3.138,3.138,3.138,3.1438,0.0,0.0,3.2019,3.2452,0.0,0.0,0.0,0.0,3.3827,3.4973,3.5889,3.7858,4.0221,4.2281,4.351,4.4182,4.3907,4.4167,4.4572,4.4549,4.4572,4.461,4.461,4.461,4.4084,4.2085,4.0785,3.9231,3.6524,3.5078,3.4257,3.4099,3.4968,3.611,3.7265,3.9103,4.0705,4.1546,4.2446,4.3054,4.326,4.329,4.329,4.329,4.329,4.329,4.329,4.329,4.329,4.329,4.329,4.329,4.329,4.329,4.329,4.329,4.329,4.329,4.329,4.329,4.329,4.329,4.329,4.329,4.329,4.329,4.329,4.329,4.329,4.329,4.329,4.329,4.329,4.321,4.2319,4.199,4.1711,0.0,0.0,0.0,0.0,0.0,0.0,0.0,2.4119,2.4613,2.5203,2.531,2.5498,2.5871,2.5768,2.5657,0.0,0.0,0.0,0.0,0.0,0.0,0.0,0.0,0.0,0.0,0.0,0.0,3.1438,3.1467,0.0,0.0,0.0,0.0,0.0,0.0,3.1058,3.1058,3.1058,0.0,0.0,0.0,0.0,0.0,0.0,0.0,0.0,0.0,3.2526,3.383,3.5167,3.6336,3.7516,3.894,4.1507,4.3783,4.2568,4.3371,4.4572,4.4396,4.4473,4.461,4.461,4.461,4.3837,4.0873,4.01,3.895,3.5247,3.4383,3.4099,3.3498,3.4514,3.5556,3.591,3.7732,3.9501,4.0719,4.1533,4.2342,4.3195,4.329,4.329,4.329,4.329,4.329,4.329,4.329,4.329,4.329,4.329,4.329,4.329,4.329,4.329,4.329,4.329,4.329,4.329,4.329,4.329,4.329,4.329,4.329,4.329,4.329,4.329,4.329,4.329,4.329,4.329,4.329,4.329,4.321,4.2319,4.199,4.1852,0.0,0.0,0.0,0.0,0.0,0.0,2.4097,2.4398,2.4676,2.524,2.5418,2.55,2.5535,2.5563,2.5738,2.6045,0.0,0.0,0.0,0.0,0.0,0.0,0.0,0.0,0.0,0.0,3.0896,3.0896,3.1307,0.0,0.0,0.0,0.0,0.0,0.0,3.1117,3.1307,3.1307,0.0,0.0,0.0,0.0,0.0,0.0,0.0,0.0,0.0,0.0,3.3545,3.3864,3.5574,3.7337,3.6467,3.8583,4.1423,4.1452,4.2456,4.3636,4.4167,4.4473,4.461,4.461,4.3738,4.2381,4.0453,3.8793,3.6995,3.4755,3.3972,3.3625,3.3356,3.3767,3.4297,3.4804,3.6436,3.7964,3.8926,4.0163,4.1365,4.2342,4.2469,4.2655,4.3254,4.329,4.329,4.329,4.329,4.329,4.329,4.329,4.329,4.329,4.329,4.329,4.329,4.329,4.329,4.329,4.329,4.329,4.329,4.329,4.329,4.329,4.329,4.329,4.329,4.329,4.329,4.329,4.329,4.329,4.325,4.2915,4.2795,4.2659,0.0,0.0,0.0,0.0,0.0,2.3676,2.4376,2.4616,2.4891,2.5334,2.55,2.5571,2.55,2.5606,2.5816,2.6151,2.585,0.0,0.0,0.0,0.0,0.0,0.0,0.0,0.0,0.0,3.051,3.0807,3.1278,3.1511,0.0,0.0,3.1117,3.1322,0.0,0.0,0.0,0.0,0.0,0.0,0.0,0.0,0.0,0.0,0.0,0.0,0.0,0.0,0.0,0.0,0.0,3.6831,3.4972,3.626,3.86,3.9447,4.1043,4.2644,4.3284,4.4012,4.461,4.461,4.3173,4.145,3.9987,3.781,3.5705,3.4281,3.3625,3.3309,3.3309,3.3309,3.3451,3.3925,3.5357,3.6686,3.7483,3.8951,4.0313,4.1334,4.1465,4.1871,4.2898,4.3223,4.3384,4.329,4.329,4.329,4.329,4.329,4.329,4.329,4.329,4.329,4.329,4.329,4.329,4.329,4.329,4.329,4.329,4.329,4.329,4.329,4.329,4.329,4.329,4.329,4.329,4.329,4.329,4.329,4.329,4.329,4.329,4.321,0.0,0.0,0.0,0.0,0.0,0.0,2.4484,2.4963,2.5382,2.5571,2.5606,2.5688,2.5875,2.591,2.5828,2.5641,2.5793,0.0,0.0,0.0,0.0,0.0,0.0,0.0,0.0,0.0,3.048,3.1511,3.1511,3.1511,3.1511,3.1161,3.0999,3.097,0.0,0.0,0.0,0.0,0.0,0.0,0.0,0.0,0.0,0.0,0.0,0.0,0.0,0.0,0.0,0.0,0.0,0.0,0.0,3.4898,3.5568,3.626,3.899,4.1778,4.1581,4.3027,4.461,4.461,4.3173,4.1275,3.9349,3.7451,3.5579,3.3698,3.3309,3.3309,3.3309,3.3309,3.3309,3.3309,3.4494,3.5757,3.6782,3.8075,3.9298,4.0301,4.0436,4.0902,4.2068,4.3099,4.3596,4.3329,4.329,4.329,4.329,4.329,4.329,4.329,4.329,4.329,4.329,4.329,4.329,4.329,4.329,4.329,4.329,4.329,4.329,4.329,4.329,4.329,4.329,4.329,4.329,4.329,4.329,4.329,4.329,4.329,4.329,4.329,0.0,0.0,0.0,0.0,0.0,0.0,0.0,2.5204,2.5312,2.5382,2.55,2.5606,2.5688,2.5828,2.5875,2.5793,2.5863,0.0,0.0,0.0,0.0,0.0,0.0,0.0,0.0,3.0054,3.0056,3.1161,3.1161,3.1073,3.0881,3.0552,3.0598,3.097,3.0598,3.0791,0.0,0.0,0.0,0.0,0.0,0.0,3.5429,0.0,0.0,0.0,0.0,0.0,0.0,0.0,0.0,0.0,0.0,0.0,0.0,3.5046,3.6731,3.8792,3.9349,4.0093,4.0709,4.0709,3.9287,3.7732,3.7122,3.5532,3.4017,3.3409,3.3309,3.3309,3.3309,3.3309,3.3282,3.3176,3.4298,3.5279,3.5502,3.7514,3.9348,4.0355,4.1882,4.2993,4.3381,4.359,4.3651,4.3596,4.3384,4.329,4.329,4.329,4.329,4.329,4.329,4.329,4.329,4.329,4.329,4.329,4.329,4.329,4.329,4.329,4.329,4.329,4.329,4.329,4.329,4.329,4.329,4.329,4.329,4.329,4.329,4.329,4.329,4.329,0.0,0.0,0.0,0.0,0.0,0.0,0.0,2.5312,2.5347,2.5382,2.5535,2.5641,2.5688,2.5828,2.591,2.591,2.598,0.0,0.0,0.0,0.0,0.0,0.0,0.0,3.1009,3.0095,3.0108,3.1188,3.1188,3.0981,3.0598,3.0264,3.0371,3.0822,3.0552,3.0893,0.0,0.0,0.0,0.0,0.0,0.0,3.5459,0.0,0.0,0.0,0.0,0.0,0.0,0.0,0.0,0.0,0.0,0.0,0.0,0.0,3.4963,3.6003,3.7312,3.8276,3.8899,3.8899,3.7498,3.6101,3.6101,3.4643,3.3282,3.3229,3.3229,3.3203,3.315,3.315,3.3123,3.3032,3.4159,3.5167,3.5595,3.7592,3.9428,4.056,4.237,4.3517,4.3442,4.3723,4.3871,4.3729,4.3636,4.3503,4.329,4.3384,4.3384,4.329,4.329,4.329,4.329,4.329,4.329,4.329,4.329,4.329,4.329,4.329,4.329,4.329,4.329,4.329,0.0,4.329,4.329,4.329,4.329,4.329,4.329,4.329,4.329,4.329,0.0,0.0,0.0,0.0,0.0,0.0,0.0,2.5312,2.5382,2.5535,2.5571,2.5641,2.5875,2.591,2.5923,2.5994,0.0,0.0,0.0,0.0,0.0,0.0,0.0,0.0,3.0942,3.033,3.0469,3.1521,3.149,3.1172,3.058,3.026,3.0307,3.0582,3.0337,3.094,3.2269,3.3855,3.4533,3.4638,3.525,3.5504,0.0,0.0,0.0,0.0,0.0,0.0,0.0,0.0,0.0,0.0,0.0,0.0,0.0,0.0,0.0,0.0,0.0,3.7169,3.8496,3.8496,3.7201,3.5911,3.5911,3.4561,0.0,3.3123,3.3096,3.3058,3.2924,3.2897,3.2912,3.2932,3.4023,3.5363,3.6767,3.8278,3.9741,4.1112,4.2229,4.286,4.2658,4.3646,4.4143,4.3769,4.391,4.3817,4.3369,4.3557,4.3596,4.3329,4.329,4.329,4.329,4.329,4.329,4.329,4.329,4.329,4.329,4.329,4.329,4.329,4.329,4.329,4.329,4.329,4.329,4.329,4.329,4.329,4.329,4.329,4.329,4.329,0.0,0.0,0.0,0.0,0.0,0.0,0.0,0.0,0.0,0.0,2.5382,2.55,2.5875,2.591,2.6175,0.0,0.0,0.0,0.0,0.0,0.0,0.0,0.0,0.0,3.1045,3.0076,3.0269,3.1808,3.134,3.0899,3.0528,3.0432,3.0492,3.0627,3.106,3.2244,3.3929,3.4337,3.4786,3.528,3.5444,3.5504,0.0,0.0,0.0,0.0,3.507,3.4921,0.0,0.0,0.0,0.0,0.0,0.0,0.0,0.0,3.462,3.4051,3.3981,0.0,3.4624,3.4624,3.429,3.3954,0.0,3.363,3.3256,3.3123,3.3096,3.3058,3.2924,3.2897,3.3041,3.3445,3.4193,3.5374,3.711,3.9887,4.2232,4.3575,4.4007,4.417,4.4095,4.4197,4.4243,4.4181,4.4065,4.3949,4.3817,4.3754,4.369,4.3596,4.3423,4.329,4.329,4.329,4.329,4.329,4.329,4.329,4.329,4.329,4.329,4.329,4.329,4.329,4.329,4.329,4.329,4.329,4.329,4.329,4.329,4.329,4.329,4.329,0.0,0.0,0.0,0.0,0.0,0.0,0.0,0.0,0.0,0.0,0.0,2.5382,2.5606,2.5606,0.0,0.0,0.0,0.0,0.0,0.0,0.0,0.0,0.0,2.9401,3.0561,3.0164,3.0529,3.1736,3.1455,3.1279,3.1179,3.1067,3.1155,3.1435,3.2309,3.3362,3.4533,3.4816,3.516,3.5504,3.5504,0.0,0.0,0.0,0.0,0.0,3.4906,3.4801,0.0,3.4906,3.5699,3.6492,0.0,0.0,0.0,0.0,3.4873,3.4146,3.3482,3.3309,3.3309,3.3309,3.3309,3.3309,3.3309,3.3256,3.3176,3.3032,3.2935,3.2827,3.2703,3.2939,3.3209,3.3509,3.4946,3.6662,3.86,4.0478,4.2155,4.351,4.3679,4.391,4.4526,4.4496,4.4396,4.432,4.4281,4.4205,4.4026,4.3988,4.3871,4.3729,4.3675,4.3542,4.329,4.329,4.3384,4.3463,4.3463,4.3542,4.3621,4.3621,4.3581,4.3463,4.3463,4.3423,4.329,4.329,4.329,4.329,4.329,4.329,4.329,4.329,4.329,4.329,0.0,0.0,0.0,0.0,0.0,0.0,0.0,0.0,0.0,0.0,0.0,0.0,0.0,0.0,0.0,0.0,0.0,0.0,0.0,0.0,0.0,0.0,2.9258,2.9845,3.0063,3.0398,3.0958,3.1667,3.18,3.1933,3.2125,3.1947,3.2125,3.2543,3.3463,3.4188,3.4698,3.525,3.5504,3.5504,3.5504,0.0,0.0,0.0,0.0,0.0,0.0,0.0,0.0,3.4506,3.5366,3.6384,3.6523,0.0,0.0,0.0,0.0,0.0,3.3514,3.3503,3.365,3.3388,3.3266,3.3282,3.3282,3.3176,3.3032,3.2897,3.2718,3.2582,3.2564,3.3013,3.3475,3.369,3.6107,3.8646,4.0536,4.0981,4.1586,4.2771,4.291,4.334,4.4502,4.461,4.4534,4.4358,4.4496,4.4473,4.4089,4.4205,4.4127,4.3793,4.391,4.3817,4.3409,4.3423,4.3503,4.3769,4.3769,4.3847,4.3988,4.3988,4.391,4.3729,4.3729,4.3557,4.3384,4.3329,4.3329,4.3384,4.3384,4.3384,4.3384,4.3384,4.3329,4.329,0.0,0.0,0.0,0.0,0.0,0.0,0.0,0.0,0.0,0.0,0.0,0.0,0.0,0.0,0.0,0.0,0.0,0.0,0.0,0.0,0.0,2.8697,2.9186,2.9694,3.0252,3.047,3.1238,3.2501,3.2549,3.2618,3.2768,3.2735,3.2986,3.3463,3.3421,3.4135,3.5355,3.5459,3.5504,3.5504,3.5504,0.0,0.0,0.0,0.0,0.0,0.0,0.0,0.0,3.4439,3.5232,3.5798,3.666,0.0,0.0,0.0,0.0,0.0,3.3656,3.4451,3.5294,3.3698,3.3203,3.3123,3.3123,3.3032,3.287,3.2676,3.2621,3.2721,3.318,3.3336,3.3783,3.4968,3.7923,4.0551,4.2078,4.3248,4.4033,4.4249,4.4279,4.4356,4.4594,4.461,4.4587,4.4549,4.4572,4.4572,4.4511,4.4396,4.4281,4.4205,4.405,4.3988,4.3895,4.3895,4.3895,4.3949,4.3949,4.3988,4.3988,4.3988,4.3988,4.3949,4.3754,4.369,4.3596,4.3384,4.3423,4.3636,4.3636,4.3636,4.3636,4.3636,4.3503,4.329,0.0,0.0,0.0,0.0,0.0,0.0,0.0,0.0,0.0,0.0,0.0,0.0,0.0,0.0,0.0,0.0,0.0,0.0,0.0,0.0,2.8815,2.8945,2.9239,2.9416,2.9484,3.054,3.1397,3.2062,3.2493,3.2937,3.3439,3.3493,3.3696,3.3902,3.4086,3.4552,3.518,3.5407,3.5504,3.5504,0.0,0.0,0.0,0.0,0.0,0.0,0.0,0.0,0.0,0.0,3.4927,3.566,3.669,0.0,0.0,0.0,0.0,0.0,3.4042,3.4308,3.4966,3.5179,3.5748,3.6247,3.6247,3.6129,3.5698,3.4523,3.422,3.4023,3.3475,3.4321,3.6014,3.8862,4.0001,4.0981,4.2417,4.2479,4.2679,4.3417,4.351,4.3787,4.4548,4.461,4.461,4.461,4.461,4.461,4.461,4.4511,4.4396,4.4281,4.432,4.4281,4.4166,4.4281,4.4281,4.4166,4.4166,4.4205,4.432,4.432,4.4243,4.4166,4.405,4.3949,4.3832,4.3738,4.3754,4.3871,4.3871,4.3871,4.3832,4.3729,4.3596,4.3518,0.0,0.0,0.0,0.0,0.0,0.0,0.0,0.0,0.0,0.0,0.0,0.0,0.0,0.0,0.0,0.0,0.0,0.0,0.0,2.868,2.8946,2.8975,2.9277,2.9375,2.9145,3.0677,3.1632,3.1841,3.2607,3.3271,3.3805,3.3768,3.3802,3.3965,3.4368,3.4655,3.4802,3.5195,3.5359,3.5359,0.0,0.0,0.0,0.0,0.0,0.0,0.0,0.0,0.0,0.0,0.0,0.0,0.0,0.0,0.0,3.5805,3.549,3.5338,3.4336,3.4381,3.5114,3.6619,3.7297,3.7826,3.8666,3.8381,3.7636,3.6585,3.6276,3.5814,3.4583,3.5784,3.8092,4.1555,4.1458,4.1494,4.2879,4.2155,4.1878,4.294,4.3063,4.3464,4.4479,4.461,4.461,4.461,4.461,4.461,4.461,4.461,4.4534,4.4396,4.4511,4.4549,4.4358,4.4534,4.4534,4.4358,4.4358,4.4473,4.461,4.461,4.4511,4.4358,4.432,4.4205,4.4065,4.4026,4.4026,4.4065,4.4065,4.4065,4.4065,4.3832,4.3769,4.3769,0.0,0.0,0.0,0.0,0.0,0.0,0.0,0.0,0.0,0.0,0.0,0.0,0.0,0.0,0.0,0.0,0.0,0.0,0.0,2.8367,2.8526,2.853,2.9266,2.9841,3.0169,3.1066,3.1944,3.281,3.3491,3.3709,3.3529,3.2901,3.2916,3.3452,3.3485,3.3852,3.4448,3.4802,3.4935,3.4968,3.5359,0.0,0.0,0.0,0.0,0.0,0.0,0.0,0.0,0.0,0.0,0.0,0.0,0.0,3.7225,3.5805,3.5708,3.5733,3.4294,3.5535,3.7264,3.7275,3.5503,3.4672,3.7965,3.7172,3.623,3.7923,3.8292,3.8061,3.7338,3.7846,3.8877,4.0397,4.1643,4.2925,4.4249,4.4356,4.4326,4.4456,4.4471,4.4502,4.461,4.461,4.461,4.461,4.461,4.461,4.461,4.461,4.4572,4.4587,4.4572,4.4572,4.4587,4.4572,4.4572,4.4587,4.4587,4.4587,4.461,4.461,4.4572,4.4572,4.4396,4.4281,4.4243,4.4065,4.4089,4.4281,4.4281,4.4281,4.4243,4.4065,4.3988,4.3988,0.0,0.0,0.0,0.0,0.0,0.0,0.0,0.0,0.0,0.0,0.0,0.0,0.0,0.0,0.0,0.0,0.0,0.0,0.0,2.8548,2.8697,2.8704,2.9212,2.9932,3.0845,3.1534,3.1916,3.2023,3.2263,3.2516,3.2685,3.2643,3.2778,3.312,3.3303,3.3736,3.428,3.4428,3.4795,3.5294,3.5439,3.5504,0.0,0.0,0.0,0.0,0.0,0.0,0.0,0.0,3.3773,3.4684,3.5808,3.6465,3.6627,3.5679,3.5443,3.5299,3.4553,3.5892,3.7551,3.7738,3.6744,3.6633,4.0192,4.0355,4.0044,4.0943,4.0743,4.0093,3.897,4.0016,4.1232,4.174,4.2956,4.4002,4.4548,4.461,4.461,4.461,4.461,4.461,4.461,4.461,4.461,4.461,4.461,4.461,4.461,4.461,4.461,4.461,4.461,4.461,4.461,4.461,4.461,4.461,4.461,4.461,4.461,4.461,4.461,4.4587,4.4511,4.4511,4.4473,4.4396,4.4435,4.4511,4.4511,4.4396,4.4281,4.4205,4.4166,4.4166,0.0,0.0,0.0,0.0,0.0,0.0,0.0,0.0,0.0,0.0,0.0,0.0,0.0,0.0,0.0,0.0,0.0,0.0,2.821,2.8521,2.8829,2.9088,2.9345,3.0017,3.1192,3.1527,3.1789,3.188,3.1552,3.1535,3.1861,3.206,3.218,3.2242,3.267,3.3039,3.3346,3.3574,3.3999,3.4572,3.4765,3.4876,0.0,0.0,0.0,0.0,0.0,0.0,0.0,0.0,3.3351,3.4315,3.5085,3.5687,3.5963,3.5252,3.5235,3.5309,3.4822,3.5882,3.7281,3.7998,3.7741,3.8246,4.1634,4.2076,4.2132,4.3379,4.3076,4.2235,4.1044,4.2004,4.2967,4.2967,4.388,4.461,4.461,4.461,4.461,4.461,4.461,4.461,4.461,4.461,4.461,4.461,4.461,4.461,4.461,4.461,4.461,4.461,4.461,4.461,4.461,4.461,4.461,4.461,4.461,4.461,4.461,4.461,4.461,4.461,4.461,4.461,4.461,4.461,4.461,4.461,4.461,4.4511,4.4381,4.4381,4.4381,4.4381,0.0,0.0,0.0,0.0,0.0,0.0,0.0,0.0,0.0,0.0,0.0,0.0,0.0,0.0,0.0,0.0,0.0,0.0,2.769,2.8222,2.8843,2.9665,2.9691,3.0173,3.117,3.1015,3.1486,3.267,3.1604,3.1071,3.1103,3.1043,3.0948,3.0832,3.1423,3.1622,3.1551,3.2213,3.2486,3.2564,3.3238,3.3499,3.3425,0.0,0.0,0.0,0.0,0.0,0.0,0.0,3.2665,3.3545,3.3796,3.4588,3.5236,3.451,3.5128,3.5889,3.5116,3.5595,3.6654,3.7965,3.8106,3.8743,4.17,4.1374,4.1415,4.4985,4.5252,4.4607,4.3833,4.3712,4.3712,4.3696,4.4216,4.461,4.461,4.461,4.461,4.461,4.461,4.461,4.461,4.461,4.461,4.461,4.461,4.461,4.461,4.461,4.461,4.461,4.461,4.461,4.461,4.461,4.461,4.461,4.461,4.461,4.461,4.461,4.461,4.461,4.461,4.461,4.461,4.461,4.461,4.461,4.461,4.461,4.461,4.461,4.461,4.461,0.0,0.0,0.0,0.0,0.0,0.0,0.0,0.0,0.0,0.0,0.0,0.0,0.0,0.0,0.0,0.0,0.0,0.0,2.8246,2.8426,2.8618,2.8843,2.9151,2.9629,3.0322,3.0528,3.0768,3.1012,3.0277,3.0072,3.0397,3.07,3.0845,3.0797,3.112,3.1452,3.1705,3.1676,3.2111,3.2866,3.3068,3.3285,3.3469,0.0,0.0,0.0,0.0,0.0,0.0,0.0,0.0,0.0,3.353,3.3951,3.434,3.4297,3.4388,3.443,3.4124,3.6252,3.8377,3.7648,3.9287,4.131,4.2212,4.2108,4.2542,4.5179,4.6387,4.6471,4.4769,4.5246,4.5584,4.4636,4.4957,4.5384,4.5384,4.4933,4.461,4.461,4.461,4.461,4.461,4.461,4.461,4.461,4.461,4.461,4.461,4.461,4.461,4.461,4.461,4.461,4.461,4.461,4.461,4.461,4.461,4.461,4.461,4.461,4.461,4.461,4.461,4.461,4.461,4.461,4.461,4.461,4.461,4.461,4.461,4.461,4.461,4.461,0.0,0.0,0.0,0.0,0.0,0.0,0.0,0.0,0.0,0.0,2.8041,0.0,0.0,0.0,0.0,0.0,0.0,0.0,0.0,2.857,2.8748,2.9083,2.9404,2.9754,3.0105,3.0088,3.0023,2.9927,2.9628,2.9696,3.0095,3.0404,3.0516,3.0522,3.0651,3.0793,3.0933,3.084,3.1304,3.204,3.2162,3.2421,3.2721,0.0,0.0,0.0,0.0,0.0,0.0,0.0,0.0,0.0,3.2988,3.3268,3.3619,3.4128,3.4366,3.458,3.5292,3.7327,3.9246,3.9326,4.0876,4.2545,4.3129,4.3709,4.4596,4.6226,4.7506,4.7862,4.6323,4.6699,4.696,4.6176,4.5832,4.5697,4.5697,4.5067,4.461,4.461,4.461,4.461,4.461,4.461,4.461,4.461,4.461,4.461,4.461,4.461,4.461,4.461,4.461,4.461,4.461,4.461,4.461,4.461,4.461,4.461,4.461,4.461,4.461,4.461,4.461,4.461,4.461,4.461,4.461,4.461,4.461,4.461,4.461,4.461,4.461,4.461,0.0,0.0,0.0,0.0,0.0,0.0,0.0,0.0,0.0,0.0,2.851,2.851,0.0,0.0,0.0,0.0,0.0,0.0,0.0,2.8716,2.9176,3.0051,3.0223,3.0289,3.0234,2.9694,2.9415,2.9415,2.954,2.9772,3.008,3.008,3.008,3.008,3.008,2.9896,2.9602,2.9927,3.0249,3.0582,3.0822,3.1131,3.1409,3.1453,0.0,0.0,0.0,0.0,0.0,0.0,0.0,0.0,3.2274,3.2594,3.3033,3.3912,3.4782,3.5814,3.7525,3.8509,3.9645,4.2066,4.2657,4.3005,4.4477,4.5841,4.6983,4.7655,4.845,4.8798,4.8129,4.7982,4.7982,4.7982,4.6761,4.5805,4.5805,4.5104,4.461,4.461,4.461,4.461,4.461,4.461,4.461,4.461,4.461,4.461,4.461,4.461,4.461,4.461,4.461,4.461,4.461,4.461,4.461,4.461,4.461,4.461,4.461,4.461,4.461,4.461,4.461,4.461,4.461,4.461,4.461,4.461,4.461,4.461,4.461,4.461,4.461,4.461,0.0,0.0,0.0,0.0,0.0,0.0,0.0,0.0,0.0,0.0,0.0,0.0,0.0,0.0,0.0,0.0,0.0,0.0,0.0,2.889,2.9193,3.0624,3.045,3.0131,2.9764,2.961,2.954,2.954,2.9477,2.9665,3.008,2.9834,2.9865,3.008,2.9834,2.9665,2.9602,2.9806,2.9991,3.0233,3.0387,3.0598,3.0821,3.1043,3.1117,0.0,0.0,0.0,0.0,0.0,0.0,0.0,3.1981,3.2274,3.2609,3.3053,3.4432,3.5886,3.628,3.8634,4.1121,4.1723,4.3009,4.4501,4.598,4.6569,4.6846,4.7017,4.8081,4.894,4.8798,4.875,4.875,4.875,4.7522,4.6569,4.6569,4.5421,4.461,4.461,4.461,4.461,4.461,4.461,4.461,4.461,4.461,4.461,4.461,4.461,4.461,4.461,4.461,4.461,4.461,4.461,4.461,4.461,4.461,4.461,4.461,4.461,4.461,4.461,4.461,4.461,4.461,4.461,4.461,4.461,4.461,4.461,4.461,4.461,4.461,4.461,0.0,0.0,0.0,0.0,0.0,0.0,0.0,0.0,0.0,0.0,0.0,0.0,0.0,0.0,0.0,0.0,0.0,0.0,0.0,0.0,2.9816,3.1132,3.0678,3.0275,3.0034,2.9757,2.9602,2.9602,2.954,2.9789,3.0341,3.0296,3.0357,3.0507,3.0357,3.0113,2.982,2.9898,3.0005,3.0111,3.0158,3.0371,3.0612,3.0747,3.0881,3.1029,3.119,0.0,0.0,0.0,0.0,0.0,0.0,0.0,3.2364,3.3161,3.4073,3.5305,3.7312,3.9282,4.1121,4.2653,4.3802,4.4783,4.5551,4.6005,4.6359,4.6708,4.7967,4.9032,4.9077,4.9032,4.9032,4.9094,4.8096,4.7322,4.7322,4.6076,4.5142,4.5142,4.4821,4.461,4.461,4.461,4.461,4.461,4.461,4.461,4.461,4.461,4.461,4.461,4.461,4.461,4.461,4.461,4.461,4.461,4.461,4.461,4.461,4.461,4.461,4.461,4.461,4.461,4.461,4.461,4.461,4.461,4.461,4.461,4.461,4.461,4.461,4.461,0.0,0.0,0.0,0.0,0.0,0.0,0.0,0.0,0.0,0.0,0.0,0.0,0.0,0.0,0.0,0.0,0.0,0.0,0.0,0.0,0.0,3.1419,3.1068,3.0708,3.0498,3.0024,2.9715,2.9602,2.9665,3.0005,3.0598,3.0777,3.0881,3.094,3.094,3.0569,2.9954,2.9984,2.9852,2.9706,2.9722,2.9961,3.0288,3.0408,3.0645,3.094,3.1058,3.1248,3.1511,3.1511,0.0,0.0,0.0,0.0,3.2216,3.3315,3.3817,3.4771,3.8339,3.9703,4.0835,4.384,4.461,4.4648,4.4761,4.5237,4.5913,4.6638,4.7869,4.8892,4.9107,4.9077,4.9032,4.9138,4.8465,4.7885,4.7885,4.6726,4.5913,4.5913,4.5253,4.4783,4.4783,4.4685,4.461,4.461,4.461,4.461,4.461,4.461,4.461,4.461,4.461,4.461,4.461,4.461,4.461,4.461,4.461,4.461,4.461,4.461,4.461,4.461,4.461,4.461,4.461,4.461,4.461,4.461,4.461,4.461,4.461,4.461,4.461,4.461,0.0,0.0,0.0,0.0,0.0,0.0,0.0,0.0,0.0,0.0,2.851,2.851,0.0,0.0,0.0,0.0,0.0,0.0,0.0,0.0,0.0,3.1299,3.1819,3.164,3.0512,3.0413,3.0105,2.9602,2.9896,3.0233,3.0598,3.0341,3.0371,3.0657,3.0657,3.0158,2.9341,2.9431,2.8968,2.8117,2.8222,2.8547,2.9013,2.9535,3.0133,3.0717,3.1234,3.1467,3.1511,3.1511,3.1511,0.0,0.0,0.0,3.2081,3.2478,3.3856,3.5442,3.6239,3.8862,4.1883,4.4071,4.461,4.4761,4.5421,4.5624,4.5913,4.6638,4.7456,4.8242,4.8892,4.9001,4.9001,4.9032,4.8401,4.7885,4.7885,4.7171,4.6638,4.6638,4.6005,4.5551,4.5551,4.4971,4.461,4.461,4.461,4.461,4.461,4.461,4.461,4.461,4.461,4.461,4.461,4.461,4.461,4.461,4.461,4.461,4.461,4.461,4.461,4.461,4.461,4.461,4.461,4.461,4.461,4.461,4.461,4.461,4.461,4.461,4.461,4.461,0.0,0.0,0.0,0.0,0.0,0.0,0.0,0.0,0.0,0.0,0.0,2.8657,0.0,0.0,0.0,0.0,0.0,0.0,0.0,0.0,0.0,3.2387,3.2395,3.2145,3.1597,3.0783,3.0293,3.0091,2.9722,2.982,3.0325,3.0249,3.0522,3.1117,3.1117,3.0778,3.0191,2.9901,2.9407,2.8798,2.8667,2.9236,3.0121,2.9736,3.0391,3.1432,3.113,3.1073,3.1248,3.1438,3.1511,3.1511,3.1511,0.0,0.0,0.0,3.289,3.4201,3.677,3.949,4.2078,4.4117,4.461,4.4685,4.4993,4.5067,4.5274,4.6005,4.6448,4.7019,4.8289,4.8781,4.9032,4.9077,4.8781,4.8513,4.8513,4.7901,4.7422,4.7422,4.6777,4.6147,4.5733,4.5421,4.503,4.4648,4.461,4.461,4.461,4.461,4.461,4.461,4.461,4.461,4.461,4.461,4.461,4.461,4.461,4.461,4.461,4.461,4.461,4.461,4.461,4.461,4.461,4.461,4.461,4.461,4.461,4.461,4.461,4.461,4.461,4.461,0.0,0.0,0.0,0.0,0.0,0.0,0.0,0.0,0.0,0.0,0.0,0.0,0.0,0.0,0.0,0.0,0.0,0.0,0.0,0.0,0.0,3.3276,3.289,3.2497,3.2188,3.1147,3.0485,3.0227,2.9638,2.9634,3.0172,3.0387,3.0822,3.1511,3.1511,3.1217,3.0748,3.0129,2.9519,2.9016,2.9129,2.9902,3.0891,3.0438,3.1176,3.2317,3.1309,3.1188,3.153,3.1692,3.175,3.175,3.175,3.1645,0.0,0.0,0.0,3.297,3.6785,3.8846,4.0543,4.3187,4.3818,4.3956,4.4502,4.461,4.4761,4.5311,4.5551,4.606,4.7273,4.8144,4.8813,4.9107,4.9063,4.9001,4.9001,4.8513,4.8161,4.8161,4.7522,4.6864,4.6308,4.6076,4.566,4.4933,4.4896,4.4783,4.461,4.461,4.461,4.461,4.461,4.461,4.461,4.461,4.461,4.461,4.461,4.461,4.461,4.461,4.461,4.461,4.461,4.461,4.461,4.461,4.461,4.461,4.461,4.461,4.461,4.461,4.461,4.461,0.0,0.0,0.0,0.0,0.0,0.0,0.0,0.0,0.0,0.0,0.0,0.0,3.082,3.0857,3.0857,3.0895,3.1599,0.0,0.0,0.0,0.0,3.329,3.3262,0.0,3.1555,3.1471,3.0788,2.9471,2.9848,3.0127,3.0282,3.0762,3.1161,3.1511,3.1511,3.1008,3.0099,2.9422,2.85,2.7524,2.8857,2.9614,3.0128,3.1539,3.2529,3.3042,3.2227,3.2354,3.2843,3.2557,3.2437,3.2437,3.2437,3.2004,3.1568,0.0,0.0,0.0,3.4759,3.5354,3.6374,4.0685,4.1755,4.2248,4.4194,4.461,4.461,4.4648,4.5216,4.5733,4.5805,4.7001,4.8193,4.8909,4.9001,4.9001,4.9001,4.897,4.894,4.894,4.8306,4.7819,4.7787,4.7153,4.6429,4.5697,4.5624,4.5348,4.4648,4.461,4.461,4.461,4.461,4.461,4.461,4.461,4.461,4.461,4.461,4.461,4.461,4.461,4.461,4.461,4.461,4.461,4.461,4.461,4.461,4.461,4.461,4.461,4.461,4.461,4.461,4.461,0.0,0.0,0.0,0.0,0.0,0.0,0.0,0.0,0.0,0.0,0.0,0.0,0.0,3.0503,3.0729,3.1232,3.1903,0.0,0.0,0.0,0.0,3.329,3.329,3.308,3.2665,3.1764,3.1114,3.0746,3.0105,3.0036,3.0507,3.0762,3.1087,3.1481,3.1047,3.0929,3.0904,2.9401,2.8996,2.9453,3.0469,3.1745,3.3032,3.3083,3.4415,3.6028,3.4057,3.3267,3.3176,3.3499,3.2688,3.156,3.1693,3.1558,3.1394,3.1625,3.1682,3.2176,3.4349,3.5018,3.5812,3.8656,4.0477,4.1786,4.2509,4.3648,4.461,4.461,4.5179,4.5841,4.6324,4.7204,4.7982,4.8242,4.8688,4.9001,4.9001,4.9001,4.9001,4.9001,4.8767,4.8401,4.795,4.7655,4.7204,4.6464,4.6394,4.6288,4.602,4.5551,4.5311,4.5311,4.4858,4.461,4.461,4.461,4.461,4.461,4.5067,4.5311,4.5311,4.5311,4.5311,4.5274,4.4821,4.461,4.461,4.461,4.461,4.461,4.461,4.461,4.461,4.461,4.461,4.461,0.0,0.0,0.0,0.0,0.0,0.0,0.0,0.0,0.0,3.0677,0.0,0.0,0.0,0.0,3.1447,3.1775,3.2174,3.2581,3.2988,3.3016,3.3066,3.3276,3.329,3.3192,3.3016,3.189,3.1226,3.1096,3.0312,3.0113,3.0507,3.0881,3.119,3.1466,3.0597,3.0687,3.1406,2.9894,2.9675,3.0517,3.2208,3.3577,3.4664,3.4623,3.5705,3.7022,3.5065,3.4187,3.4105,3.5211,3.4649,3.3384,3.2868,3.2065,3.1307,3.1365,3.1336,3.1604,3.3201,3.3713,3.4303,3.6491,3.8226,3.9757,4.1243,4.2617,4.3756,4.4471,4.4993,4.5567,4.6288,4.7035,4.7688,4.8193,4.8688,4.9001,4.9001,4.9001,4.9001,4.9001,4.9001,4.8798,4.8306,4.8274,4.7967,4.7221,4.7187,4.7051,4.6811,4.6076,4.5604,4.5348,4.4858,4.461,4.461,4.461,4.4723,4.4971,4.5458,4.5841,4.6056,4.5805,4.5697,4.566,4.4933,4.461,4.461,4.461,4.461,4.461,4.461,4.461,4.461,4.461,4.4761,4.4971,0.0,0.0,0.0,0.0,0.0,0.0,0.0,0.0,3.1094,3.1435,0.0,0.0,0.0,0.0,0.0,3.2426,3.2384,3.237,3.237,3.237,3.2637,3.3206,0.0,0.0,3.2398,3.178,3.1115,3.0322,3.052,3.0507,3.0357,3.1117,3.1466,3.1421,3.0163,3.0298,3.1436,3.0746,3.0324,3.0437,3.3858,3.4946,3.4656,3.6134,3.6425,3.5935,3.5297,3.5277,3.5828,3.7808,3.8377,3.7943,3.5965,3.3481,3.1263,3.1132,3.0955,3.0881,0.0,0.0,0.0,3.4242,3.4926,3.6131,4.0439,4.1463,4.2078,4.4117,4.4533,4.4796,4.5588,4.6324,4.7288,4.8767,4.9001,4.9001,4.9001,4.9001,4.9001,4.9001,4.9001,4.9001,4.9001,4.9001,4.8688,4.7982,4.7917,4.7622,4.6914,4.6147,4.5421,4.4648,4.4648,4.461,4.461,4.461,4.4993,4.5697,4.5733,4.6147,4.6811,4.6076,4.5769,4.5733,4.5008,4.4648,4.4648,4.461,4.461,4.461,4.461,4.461,4.461,4.461,4.5067,4.5697,0.0,0.0,0.0,0.0,0.0,3.2399,3.2077,3.129,3.0738,0.0,0.0,0.0,3.13,3.1489,3.1748,3.208,3.1905,3.1738,3.1738,3.1738,3.1822,3.1991,3.2005,3.1921,3.1738,3.1367,3.1023,3.0821,3.0858,3.0851,3.0807,3.0787,3.0791,3.0746,2.9939,3.0028,3.0688,2.9594,2.9899,3.1395,3.4557,3.6339,3.7255,3.8818,3.9988,4.0647,3.9381,3.8722,3.8568,3.9358,3.7664,3.4863,3.2923,3.1678,3.091,3.0791,3.0762,3.0791,3.0777,0.0,0.0,0.0,0.0,0.0,3.6558,3.8144,3.9955,4.2001,4.2836,4.3911,4.6086,4.7119,4.7901,4.8829,4.9001,4.9001,4.9001,4.9001,4.9001,4.9001,4.9001,4.9001,4.9001,4.9001,4.894,4.8719,4.8688,4.8625,4.8386,4.7688,4.6726,4.5458,4.5384,4.5142,4.461,4.5142,4.5494,4.5697,4.6795,4.7406,4.7589,4.7372,4.7305,4.7238,4.6534,4.6182,4.6127,4.503,4.461,4.461,4.461,4.461,4.461,4.461,4.5067,4.5697,0.0,0.0,0.0,0.0,0.0,3.3427,3.2469,3.1907,3.1437,0.0,0.0,0.0,3.138,3.1729,3.195,3.1806,3.1615,3.1436,3.1306,3.1292,3.1354,3.1471,3.1485,3.1485,3.1485,3.118,3.0997,3.0997,3.1009,3.0999,3.0984,3.0934,3.0776,3.0477,2.9864,2.9816,3.0073,2.9325,2.9983,3.1809,3.5252,3.7074,3.7911,3.9757,4.0855,4.1298,4.0701,4.0132,3.9902,4.105,3.8918,3.5566,3.4108,3.2753,3.1584,3.0892,3.0891,3.1007,3.0685,3.0807,3.1014,3.0999,0.0,0.0,3.5821,3.7308,3.914,4.2232,4.32,4.4153,4.6378,4.7153,4.7787,4.8829,4.9001,4.9001,4.9001,4.9001,4.9001,4.9001,4.9001,4.9001,4.9001,4.9001,4.9001,4.9001,4.9001,4.8877,4.8545,4.8129,4.7372,4.6198,4.5877,4.5494,4.5067,4.5494,4.5841,4.6182,4.7339,4.8064,4.8338,4.8032,4.7885,4.7852,4.7119,4.6811,4.6742,4.5877,4.5531,4.5494,4.5179,4.5067,4.5067,4.5067,4.5531,4.6218,0.0,0.0,3.4934,3.523,3.528,3.4861,3.3574,3.3091,3.2493,0.0,3.1558,3.188,3.2562,3.3085,3.2879,3.1791,3.1627,3.1488,3.1191,3.116,3.1276,3.149,3.1575,3.1589,3.1519,3.1304,3.1194,3.1123,3.1142,3.1132,3.1058,3.1261,3.1032,3.0372,2.9846,2.9606,2.9621,2.9744,3.0597,3.2153,3.5908,3.7371,3.7604,3.9875,4.0426,4.0071,4.0539,4.0524,4.0543,4.236,4.1055,3.8417,3.7337,3.5352,3.3151,3.1495,3.1416,3.1716,3.1004,3.0816,3.0861,3.1013,3.1073,0.0,3.6297,3.7248,3.8476,4.2661,4.3534,4.4044,4.569,4.6013,4.6485,4.7917,4.8368,4.8652,4.8968,4.9001,4.9001,4.9001,4.9001,4.9001,4.9001,4.9001,4.9001,4.9001,4.9001,4.8719,4.8064,4.8015,4.7688,4.6949,4.6288,4.5897,4.5841,4.5897,4.6288,4.6914,4.7655,4.837,4.897,4.8306,4.8015,4.7999,4.7322,4.7051,4.7051,4.7051,4.6949,4.6742,4.6092,4.5841,4.5841,4.5841,4.6288,4.7017,0.0,3.4034,3.4439,3.3978,3.3888,3.3619,3.2826,3.2198,3.1721,3.154,3.1975,3.2749,3.3955,3.348,3.2983,3.2735,3.247,3.228,3.2217,3.2217,3.2011,3.1604,3.2049,3.2078,3.1604,3.2265,3.2363,3.1804,3.2064,3.193,3.1394,3.0928,3.0372,2.9786,2.9666,2.9606,2.9681,3.0702,3.2213,3.4113,3.6462,3.8028,3.9233,4.1765,4.2682,4.2604,4.2682,4.2682,4.2449,4.1331,4.0546,3.9478,3.6499,3.5941,3.5874,3.3184,3.3206,3.3802,3.2472,3.2135,3.2004,3.1515,3.1598,0.0,3.2272,3.2572,3.3563,3.6295,3.6862,3.7723,4.0499,4.0992,4.1415,4.275,4.4515,4.6471,4.8686,4.9001,4.9001,4.9001,4.9001,4.9001,4.9001,4.9001,4.9001,4.9001,4.9001,4.894,4.8798,4.8798,4.845,4.7721,4.7539,4.7171,4.6604,4.7171,4.7539,4.7688,4.845,4.8861,4.9001,4.8861,4.8798,4.8798,4.8625,4.8562,4.8562,4.8562,4.7869,4.6777,4.6638,4.6569,4.6569,4.6569,4.7035,4.7721,3.3006,3.3799,3.4399,3.4038,3.4547,3.4515,3.3093,3.2885,3.2452,3.1441,3.1872,3.2377,3.2763,3.2626,3.237,3.2076,3.1909,3.1756,3.1649,3.1649,3.1487,3.1122,3.1382,3.1411,3.1122,3.1688,3.1839,3.1515,3.1842,3.1824,3.1496,3.1152,3.0823,3.0537,3.0193,3.0238,3.0582,3.0853,3.2557,3.516,3.712,3.8706,4.0157,4.2423,4.329,4.329,4.329,4.329,4.314,4.2154,4.0995,3.9642,3.8227,3.7516,3.6773,3.465,3.4556,3.4848,3.3109,3.2591,3.2408,3.206,3.1882,0.0,0.0,3.2894,3.3452,3.5793,3.6313,3.6941,3.9015,3.9393,3.978,4.0914,4.323,4.499,4.5211,4.743,4.9001,4.9001,4.9001,4.9001,4.9001,4.9001,4.9001,4.9001,4.9001,4.9001,4.9001,4.9001,4.8829,4.845,4.8096,4.7721,4.7355,4.7721,4.7885,4.7917,4.8656,4.9001,4.9001,4.9001,4.9001,4.9001,4.9001,4.9001,4.9001,4.9001,4.8562,4.7869,4.7489,4.7355,4.7355,4.7355,4.7589,4.795,3.2348,3.3183,3.4035,3.4035,3.4916,3.5046,3.3327,3.3355,3.3026,3.1471,3.1795,3.2032,3.1575,3.2284,3.2608,3.2182,3.2359,3.2328,3.1925,3.188,3.1554,3.0966,3.1068,3.1068,3.0921,3.1293,3.1427,3.1279,3.1573,3.163,3.1511,3.1511,3.1511,3.1496,3.1345,3.1435,3.169,3.1674,3.3365,3.6207,3.7898,3.9394,4.0786,4.2587,4.329,4.329,4.329,4.329,4.326,4.3006,4.1511,3.9798,3.9813,3.9009,3.763,3.5751,3.5758,3.5903,3.375,3.3051,3.2864,3.2585,3.2075,3.2111,0.0,0.0,0.0,3.592,3.6315,3.663,3.7623,3.7795,3.8117,3.9111,4.1638,4.2858,4.1089,4.4812,4.7716,4.7716,4.8477,4.8832,4.8409,4.8359,4.8545,4.8968,4.8612,4.8562,4.8984,4.9001,4.9001,4.9001,4.8401,4.8129,4.8129,4.8129,4.8129,4.8129,4.8719,4.9001,4.9001,4.9001,4.9001,4.9001,4.9001,4.9001,4.9001,4.9001,4.9001,4.894,4.8338,4.8129,4.8129,4.8129,4.8129,4.821,3.1294,3.1811,3.2269,3.2269,3.2402,3.2431,3.2164,3.1737,3.156,3.1854,3.2473,3.2933,3.3029,3.4664,3.5751,3.5872,3.6922,3.7067,3.5932,3.5677,3.454,3.2197,3.2687,3.2731,3.2108,3.2824,3.2915,3.2348,3.2378,3.2079,3.1511,3.1511,3.1511,3.157,3.3275,3.3425,3.2557,3.4831,3.6686,3.8138,3.8975,4.0098,4.1414,4.2806,4.329,4.329,4.329,4.329,4.3125,4.1998,4.1414,4.0756,3.8467,3.9215,4.018,3.6316,3.6872,3.8071,3.5253,3.4478,3.4134,3.2835,3.2423,3.215,3.1313,0.0,3.1141,3.1648,0.0,3.1961,3.2678,0.0,0.0,3.3936,3.6411,3.833,3.8553,4.1167,4.3047,4.3047,4.6583,4.824,4.6278,4.6075,4.6887,4.8849,4.7192,4.6938,4.89,4.9001,4.9001,4.9001,4.894,4.8861,4.8861,4.8861,4.8861,4.8861,4.897,4.9001,4.9001,4.9001,4.9001,4.9001,4.9001,4.9001,4.9001,4.9001,4.9001,4.9001,4.8909,4.8861,4.8861,4.8861,4.8861,4.8892,3.1263,3.1649,3.1987,3.1987,3.2327,3.2429,3.1953,3.1261,3.1085,3.1776,3.2129,3.2514,3.3069,3.3839,3.467,3.5555,3.6119,3.6064,3.5207,3.51,3.4072,3.1945,3.2109,3.2124,3.1841,3.2169,3.2183,3.1914,3.1914,3.175,3.138,3.138,3.1797,3.2601,3.3809,3.4496,3.4876,3.5609,3.6866,3.8407,3.8706,3.9858,4.1519,4.2796,4.329,4.329,4.329,4.329,4.3215,4.2701,4.1504,4.0307,4.0689,4.0023,3.8901,3.7913,3.7828,3.7451,3.5078,3.5167,3.5521,3.3652,3.378,3.3999,3.2605,3.1961,3.1615,3.1344,0.0,0.0,0.0,0.0,0.0,0.0,3.5293,3.6891,3.6299,3.9731,4.2286,4.2286,4.3961,4.5263,4.5669,4.5703,4.6633,4.8832,4.6955,4.6684,4.8883,4.9001,4.9001,4.9001,4.9001,4.9001,4.9001,4.9001,4.9001,4.9001,4.9001,4.9001,4.9001,4.9001,4.9001,4.9001,4.9001,4.9001,4.9001,4.9001,4.9001,4.9001,4.9001,4.9001,4.9001,4.9001,4.9001,4.9001,3.228,3.1946,3.1676,3.1615,3.2028,3.2217,3.1861,3.1286,3.1213,3.2009,3.2289,3.2645,3.3275,3.4312,3.5348,3.6393,3.7297,3.7218,3.571,3.541,3.446,3.2602,3.1826,3.1691,3.2229,3.193,3.1765,3.1765,3.175,3.1854,3.2092,3.1514,3.2154,3.3768,3.4237,3.5311,3.6679,3.6593,3.7599,3.9215,3.9215,4.0119,4.1519,4.2796,4.329,4.329,4.329,4.329,4.3245,4.2886,4.1534,4.0232,4.1735,4.0494,3.8616,3.923,3.8883,3.7873,3.5633,3.5993,3.6419,3.4097,3.4387,3.4852,3.3369,3.2794,3.237,3.1656,3.1635,0.0,0.0,0.0,3.1608,3.2749,0.0,3.5699,3.4831,3.8011,4.046,4.046,4.1018,4.2269,4.4553,4.4231,4.4959,4.7597,4.5737,4.5618,4.8257,4.8392,4.8392,4.8392,4.8595,4.8714,4.8714,4.89,4.9001,4.9001,4.9001,4.9001,4.9001,4.9001,4.9001,4.9001,4.9001,4.9001,4.9001,4.9001,4.9001,4.9001,4.9001,4.9001,4.9001,4.9001,4.9001,4.9001,3.4581,3.2569,3.0791,3.0671,3.0641,3.092,3.1684,3.1772,3.2038,3.2842,3.3537,3.3982,3.4127,3.7575,3.9951,4.0195,4.315,4.3344,3.9463,3.8504,3.7198,3.5157,3.2659,3.2199,3.4055,3.3034,3.2482,3.2482,3.2333,3.2886,3.4056,3.2049,3.2437,3.4864,3.5053,3.5915,3.7287,3.8695,4.0068,4.128,4.128,4.1324,4.1519,4.2796,4.329,4.329,4.329,4.329,4.3095,4.1878,4.1384,4.1115,3.9918,4.0337,4.101,3.9783,4.0292,4.0644,3.7838,3.7149,3.6501,3.3714,3.3534,3.3665,3.22,3.2328,3.2528,3.1687,3.1956,3.2258,3.1944,3.1879,3.2188,3.3134,3.3513,0.0,0.0,3.5265,3.5802,3.5802,3.777,3.9969,4.2185,4.046,4.073,4.4462,4.2625,4.2963,4.6667,4.6853,4.6853,4.6853,4.7564,4.7922,4.7922,4.8646,4.9001,4.9001,4.9001,4.9001,4.9001,4.9001,4.9001,4.9001,4.9001,4.9001,4.9001,4.9001,4.9001,4.9001,4.9001,4.9001,4.9001,4.9001,4.9001,4.9001,3.5027,3.4425,3.3648,3.2634,3.2529,3.2886,3.373,3.3515,3.4014,3.6161,3.6249,3.6832,3.877,4.0158,4.1323,4.2228,4.3359,4.288,4.0232,3.9382,3.8271,3.6738,3.3721,3.3019,3.5004,3.293,3.1999,3.23,3.2258,3.2778,3.3849,3.2645,3.3303,3.5445,3.5466,3.7124,3.9884,3.9399,4.0347,4.2016,4.0633,4.0532,4.1262,4.1825,4.2043,4.2147,4.2991,4.329,4.323,4.2821,4.2102,4.1459,4.1878,4.1077,4.0172,4.0591,4.0801,4.0578,3.9154,4.0112,4.0597,3.6785,3.7033,3.7409,3.4499,3.4027,3.388,3.2729,3.2586,3.2478,3.1876,3.1709,3.2046,3.3293,3.3563,3.3928,0.0,3.535,3.56,3.56,3.7618,3.9276,4.0037,4.0324,4.161,4.4395,4.3386,4.3876,4.665,4.6786,4.6786,4.6786,4.7039,4.7411,4.7889,4.8156,4.8528,4.9001,4.9001,4.9001,4.9001,4.9001,4.9001,4.9001,4.9001,4.9001,4.9001,4.9001,4.9001,4.9001,4.9001,4.9001,4.9001,4.9001,4.9001,4.9001,3.664,3.6556,3.6017,3.4363,3.4154,3.45,3.5361,3.4852,3.5523,3.8708,3.8467,3.9067,4.1964,4.2934,4.3677,4.4495,4.4929,4.4043,4.1373,4.1222,4.0555,3.9016,3.6945,3.6767,3.879,3.5615,3.4111,3.4401,3.3257,3.3259,3.4316,3.3091,3.3743,3.5876,3.5447,3.7461,4.116,4.0255,4.1347,4.3417,4.104,4.0522,4.121,4.1334,4.1529,4.1859,4.2929,4.3472,4.3669,4.3409,4.2776,4.2222,4.3021,4.2124,4.0943,4.1818,4.2045,4.1795,4.0874,4.2144,4.2853,3.9371,3.966,3.992,3.6529,3.5938,3.5576,3.3611,3.3191,3.2989,3.2346,3.2046,3.2296,3.3563,3.3751,3.4128,0.0,3.5509,3.56,3.56,3.6907,3.8007,3.8565,3.8971,4.0257,4.2821,4.2523,4.3098,4.5077,4.5703,4.6007,4.6007,4.6261,4.6633,4.7124,4.7635,4.8125,4.8612,4.8883,4.9001,4.9001,4.9001,4.9001,4.9001,4.9001,4.9001,4.9001,4.9001,4.9001,4.9001,4.9001,4.9001,4.9001,4.9001,4.9001,4.9001,3.9232,3.8728,3.7712,3.5876,3.5498,3.5764,3.6614,3.5904,3.6646,4.0498,4.0188,4.0779,4.3849,4.5897,4.7051,4.7051,4.8034,4.7,4.3107,4.4019,4.388,4.2096,4.1948,4.2871,4.49,4.0657,3.8398,3.8366,3.5203,3.4288,3.5506,3.3462,3.393,3.6342,3.5205,3.7032,4.0986,4.1133,4.2839,4.5218,4.243,4.1309,4.1276,4.1372,4.1828,4.2502,4.3186,4.3927,4.4434,4.3669,4.3409,4.3409,4.3369,4.3369,4.3369,4.3369,4.3927,4.4293,4.3055,4.329,4.3423,4.139,4.1406,4.11,3.8178,3.8015,3.7625,3.4576,3.4091,3.4053,3.3491,3.3079,3.309,3.3949,3.4061,3.4399,3.5447,3.56,3.56,3.56,3.56,3.6174,3.7628,3.6529,3.6941,3.9893,4.0096,4.079,4.232,4.3735,4.453,4.4615,4.528,4.5669,4.5703,4.7141,4.7855,4.7889,4.8663,4.9001,4.9001,4.9001,4.9001,4.9001,4.9001,4.9001,4.9001,4.9001,4.9001,4.9001,4.9001,4.9001,4.9001,4.9001,4.9001,4.9001,3.9582,3.9587,3.9446,3.8938,3.8162,3.7906,3.8782,3.8181,3.9103,4.3234,4.3059,4.4004,4.7852,4.8737,4.9054,4.9054,4.9308,4.8647,4.667,4.6386,4.6292,4.6329,4.396,4.357,4.5596,4.1007,3.8446,3.8097,3.5689,3.5037,3.6066,3.4974,3.5679,3.7798,3.646,3.7735,4.0786,3.9737,4.0378,4.2075,4.1525,4.1227,4.1205,4.2561,4.3468,4.4081,4.4815,4.5221,4.5369,4.5147,4.5073,4.4999,4.4373,4.4182,4.4182,4.4182,4.4774,4.5421,4.5649,4.6277,4.6405,4.435,4.3945,4.346,4.11,4.07,4.0447,3.9172,3.8827,3.8228,3.6302,3.5772,3.5307,3.4267,3.4431,3.4842,3.5297,3.5503,3.56,3.56,3.56,3.5752,3.614,3.6867,3.8091,3.996,4.0104,4.1238,4.3887,4.3311,4.343,4.4564,4.4801,4.5145,4.5703,4.6616,4.7361,4.7889,4.8663,4.9001,4.9001,4.9001,4.9001,4.9001,4.9001,4.9001,4.9001,4.9001,4.9001,4.9001,4.9001,4.9001,4.9001,4.9001,4.9001,4.9001,3.9867,4.0011,4.0096,4.0096,4.0364,4.0755,4.1237,3.9758,4.025,4.492,4.4805,4.5665,4.9305,5.0577,5.1166,5.1166,5.0751,4.9823,4.8216,4.8508,4.8498,4.799,4.7389,4.758,4.8725,4.4772,4.2064,4.0764,3.8201,3.6734,3.6303,3.6173,3.681,3.8072,3.7592,3.891,4.1511,4.2253,4.2666,4.2905,4.3794,4.4052,0.0,4.5105,4.5925,4.6616,4.7022,4.6753,4.6111,4.5805,4.5697,4.5624,4.5184,4.5036,4.5036,4.5036,4.5572,4.6253,4.6673,4.7371,4.7737,4.6553,4.6241,4.5685,4.3589,4.3104,4.2719,4.1355,4.0879,4.0351,3.9178,3.7834,3.6383,3.4717,3.4804,3.5158,3.5389,3.5532,3.56,3.56,3.56,3.56,3.56,3.6377,3.7533,3.9022,3.914,3.9884,4.1576,4.2066,4.2719,4.3582,4.3599,4.4265,4.5703,4.5788,4.6532,4.7889,4.8663,4.9001,4.9001,4.9001,4.9001,4.9001,4.9001,4.9001,4.9001,4.9001,4.9001,4.9001,4.9001,4.9001,4.9001,4.9001,4.9001,4.9001,4.0096,4.0096,4.0096,4.0096,4.1931,4.3527,4.3916,4.1577,4.1463,4.6294,4.6208,4.6813,4.9708,5.1731,5.2903,5.2903,5.2112,5.0841,4.9081,5.0468,5.057,4.8786,5.1138,5.248,5.248,4.9557,4.6846,4.4397,4.1409,3.8846,3.6702,3.7286,3.778,3.822,3.886,4.0388,4.266,4.5793,4.6437,4.5454,4.7128,4.7803,4.782,4.8051,4.858,4.9243,4.9243,4.8261,4.6862,4.6234,4.5985,4.5985,4.5877,4.5841,4.5841,4.5841,4.6288,4.6811,4.6931,4.7488,4.8001,4.8001,4.8001,4.7523,4.5734,4.531,4.4772,4.2865,4.2195,4.1951,4.2038,3.9445,3.6884,3.5604,3.5485,3.5736,3.6134,3.6191,3.6124,3.5921,3.5904,0.0,3.5616,3.56,3.6225,3.7787,3.7719,3.7872,3.8447,4.0713,4.2185,4.2574,4.2591,4.3453,4.5246,4.4993,4.5754,4.7496,4.8511,4.9001,4.9001,4.9001,4.9001,4.9001,4.9001,4.9001,4.9001,4.9001,4.9001,4.9001,4.9001,4.9001,4.9001,4.9001,4.9001,4.9001,4.0096,4.0096,4.0096,4.0096,4.1931,4.422,4.6722,4.6026,4.6193,4.8889,4.8969,4.9724,5.2049,5.2686,5.2903,5.2903,5.2764,5.2476,5.2127,5.2391,5.2441,5.2076,5.2547,5.2799,5.2799,5.0476,4.7823,4.487,4.2496,4.047,3.8778,3.8894,3.9605,4.0834,4.0966,4.1853,4.3254,4.3897,4.4628,4.5519,4.7144,4.7803,4.7935,4.9258,4.9871,5.0021,5.0021,4.9043,4.7787,4.7638,4.7605,4.7488,4.6828,4.6604,4.6604,4.6604,4.6708,4.6931,4.7588,4.7886,4.8001,4.8001,4.8001,4.7902,4.7539,4.7473,4.739,4.7105,4.699,4.6426,4.4714,4.0912,3.8022,3.7962,3.7484,3.7616,3.9099,3.9309,3.8862,3.7628,3.7516,3.6986,3.5718,3.56,3.6225,3.7787,3.6715,3.7635,4.1322,4.0882,4.1627,4.4124,4.4209,4.3785,4.2895,4.5229,4.5991,4.5196,4.7784,4.9001,4.9001,4.9001,4.9001,4.9001,4.9001,4.9001,4.9001,4.9001,4.9001,4.9001,4.9001,4.9001,4.9001,4.9001,4.9001,4.9001,4.1247,4.1247,4.1619,4.2794,4.484,4.7192,4.9796,5.0832,5.1256,5.1121,5.1039,5.1411,5.2472,5.3633,5.4188,5.3801,5.3698,5.3461,5.3075,5.2972,5.2903,5.2903,5.2903,5.2903,5.2903,5.1848,4.9623,4.6141,4.5073,4.3148,4.0437,4.0801,4.1233,4.1755,4.2906,4.3748,4.4441,4.629,4.7453,4.8199,4.9792,5.0458,5.0524,5.1325,5.1358,5.1008,5.1008,5.0275,4.9194,4.873,4.858,4.8431,4.767,4.7404,4.7404,4.7404,4.7404,4.7521,4.7886,4.8001,4.8001,4.8001,4.8001,4.8001,4.8001,4.8049,4.8147,4.8324,4.8436,4.783,4.5557,4.2819,4.0635,3.988,3.8925,3.8713,3.9927,4.0104,3.9851,3.9123,3.8362,3.7618,3.6867,3.6073,3.5904,3.6648,3.6022,3.6884,3.9851,4.0087,4.1136,4.3345,4.3775,4.4181,4.4621,4.5686,4.6447,4.6887,4.8325,4.9001,4.9001,4.9001,4.9001,4.9001,4.9001,4.9001,4.9001,4.9001,4.9032,4.9094,4.9032,4.9032,4.9094,4.9032,4.9001,4.9001,4.2929,4.2625,4.3166,4.5923,4.7851,4.9796,5.2198,5.4482,5.5243,5.3281,5.3027,5.3027,5.3027,5.4634,5.548,5.4871,5.4681,5.4291,5.355,5.3345,5.3175,5.3024,5.3024,5.3024,5.3024,5.3024,5.133,4.7833,4.7483,4.5581,4.2177,4.2532,4.2779,4.3032,4.4749,4.5891,4.6602,4.9439,5.0744,5.111,5.24,5.2903,5.2903,5.2903,5.2535,5.2016,5.2016,5.1546,5.0809,4.9959,4.9426,4.9011,4.8431,4.8133,4.8001,4.8001,4.8001,4.8001,4.8001,4.8001,4.8001,4.8001,4.8033,4.8017,4.8017,4.8147,4.8324,4.8515,4.869,4.8161,4.603,4.4665,4.332,4.1631,4.0551,4.0138,4.0704,4.0941,4.0933,4.062,3.9276,3.8379,3.8379,3.6681,3.5735,3.6056,3.609,3.6772,3.8294,3.9454,4.0865,4.2472,4.3115,4.4198,4.5821,4.6058,4.6887,4.8308,4.8781,4.9001,4.9001,4.9001,4.9001,4.9001,4.9001,4.9001,4.9001,4.9001,4.9094,4.9199,4.9077,4.9138,4.926,4.9155,4.9094,4.9094,4.4976,4.3707,4.3639,4.7953,4.8866,4.9999,5.2942,5.5277,5.6393,5.5513,5.5395,5.5395,5.5395,5.5581,5.5683,5.5615,5.558,5.5259,5.4532,5.4447,5.416,5.345,5.3433,5.3433,5.3433,5.3433,5.2251,4.9818,4.85,4.6642,4.4294,4.3624,4.4384,4.635,4.6553,4.8068,5.0486,5.0807,5.1615,5.2684,5.2853,5.2903,5.2903,5.2903,5.287,5.2803,5.2803,5.2718,5.2551,5.1798,5.0442,4.9094,4.9028,4.8547,4.8001,4.8001,4.8001,4.8001,4.8001,4.8001,4.8001,4.8001,4.8082,4.8163,4.8163,4.8324,4.8515,4.8738,4.8894,4.8497,4.6942,4.6041,4.4964,4.3399,4.3071,4.3003,4.3071,4.3724,4.3667,4.2252,4.0798,3.9893,3.9893,3.729,3.6174,3.7584,3.7686,3.8328,3.9808,4.002,4.1076,4.3223,4.3358,4.3183,4.2726,4.6041,4.7141,4.6041,4.8054,4.9001,4.9001,4.9001,4.9001,4.9001,4.9001,4.9001,4.9001,4.9001,4.9094,4.9199,4.9199,4.929,4.9488,4.9458,4.9458,4.9458,4.8832,4.8274,4.8646,5.1809,5.235,5.3213,5.575,5.6884,5.734,5.7053,5.7019,5.7019,5.7019,5.7019,5.685,5.641,5.6376,5.6055,5.531,5.4854,5.4465,5.416,5.3737,5.3501,5.3501,5.3501,5.2604,5.076,4.9289,4.7648,4.5906,4.5585,4.6397,4.8156,4.9052,5.0086,5.1188,5.2116,5.2809,5.3246,5.3246,5.3246,5.3246,5.3246,5.3246,5.3246,5.3246,5.3195,5.3042,5.274,5.1781,5.0643,5.0193,4.9559,4.8975,4.8975,4.8659,4.8308,4.8308,4.8308,4.8308,4.8308,4.8324,4.8388,4.8388,4.8532,4.8707,4.8769,4.8894,4.8815,4.8223,4.7158,4.6312,4.6114,4.5382,4.479,4.479,4.506,4.4519,4.2523,4.0984,4.0104,4.0096,3.7358,3.6225,3.7787,3.7036,3.7195,3.87,3.9631,4.0704,4.2049,4.4282,4.5094,4.435,4.7158,4.8274,4.7699,4.8578,4.9001,4.9001,4.9001,4.9001,4.9001,4.9001,4.9001,4.9001,4.9094,4.9229,4.9381,4.9381,4.9471,4.9619,4.9547,4.9518,4.9518,5.208,5.1674,5.2131,5.5057,5.5023,5.5344,5.7543,5.7881,5.7881,5.7881,5.7881,5.7881,5.7881,5.7881,5.7679,5.7171,5.712,5.6816,5.6089,5.5547,5.504,5.4617,5.4093,5.3721,5.3501,5.3501,5.2976,5.1894,5.0388,4.9001,4.775,4.7327,4.8037,4.9695,5.076,5.1471,5.1961,5.3044,5.3501,5.3501,5.3501,5.3501,5.3501,5.3501,5.3501,5.3501,5.3501,5.3416,5.3298,5.3298,5.2842,5.2135,5.1313,5.0509,4.9906,4.9906,4.9387,4.8802,4.8802,4.8651,4.8515,4.8515,4.8547,4.8595,4.8595,4.8721,4.8863,4.8863,4.8909,4.9001,4.9001,4.8156,4.7479,4.7564,4.6887,4.621,4.5771,4.5703,4.4942,4.2861,4.1145,4.0282,4.0713,3.8058,3.7094,3.9056,3.778,3.7391,3.8497,3.9724,4.0984,4.2151,4.4976,4.6329,4.6024,4.8003,4.9001,4.9001,4.9001,4.9001,4.9001,4.9001,4.9032,4.9063,4.9063,4.9063,4.9063,4.9229,4.9398,4.956,4.956,4.9666,4.9784,4.9666,4.9654,4.9654,5.411,5.2756,5.2621,5.707,5.6038,5.5344,5.7543,5.7881,5.7881,5.7881,5.7881,5.7881,5.7881,5.7881,5.7881,5.7881,5.7881,5.756,5.6833,5.6782,5.6122,5.4651,5.4583,5.4245,5.3518,5.3501,5.3501,5.3467,5.1944,5.0794,5.0016,4.8578,4.9055,5.1183,5.1185,5.2063,5.3467,5.3501,5.3501,5.3501,5.3501,5.3501,5.3501,5.3501,5.3501,5.3501,5.3501,5.3501,5.3501,5.3501,5.3501,5.3281,5.2152,5.1296,5.0693,5.0693,5.0141,4.9588,4.9588,4.9036,4.8515,4.8515,4.8658,4.8818,4.8818,4.8894,4.9001,4.9001,4.9001,4.9001,4.9001,4.8984,4.8494,4.7039,4.7411,4.7348,4.5906,4.5703,4.5128,4.3561,4.1441,4.0671,4.2117,3.9597,3.9089,4.2016,4.0882,4.0045,4.0062,4.0798,4.2219,4.4496,4.5314,4.6058,4.6769,4.8257,4.9001,4.9001,4.9001,4.9001,4.9001,4.9001,4.9063,4.9199,4.9199,4.9199,4.9199,4.9411,4.9577,4.9708,4.9708,4.9813,5.0011,5.0011,5.0011,5.0011,5.6697,5.6258,5.6224,5.7645,5.7306,5.707,5.778,5.7881,5.7881,5.7881,5.7881,5.7881,5.7881,5.7881,5.7881,5.7881,5.7881,5.7797,5.756,5.707,5.6596,5.6122,5.5141,5.4482,5.4245,5.3754,5.3501,5.3501,5.1978,5.1099,5.0845,5.0357,5.1099,5.2773,5.2773,5.3044,5.3501,5.3501,5.3501,5.3501,5.3501,5.3501,5.3501,5.3501,5.3501,5.3501,5.3501,5.3501,5.3501,5.3501,5.3501,5.3433,5.3079,5.2421,5.178,5.178,5.1274,5.0583,5.0077,4.9757,4.9453,4.8964,4.8877,4.8956,4.8956,4.897,4.9001,4.9001,4.9001,4.9001,4.9001,4.9001,4.8849,4.8376,4.8511,4.8325,4.7344,4.6346,4.4756,4.2219,4.0392,3.9732,4.0713,3.9056,3.8717,4.0637,3.9901,3.98,4.0815,4.2033,4.3047,4.3775,4.6007,4.7073,4.6786,4.8331,4.9138,4.9138,4.9277,4.9337,4.9337,4.9337,4.935,4.9381,4.9381,4.9381,4.9428,4.956,4.9649,4.9708,4.986,4.9935,5.0011,5.0011,5.0011,5.0011,5.7881,5.7881,5.7881,5.7881,5.7881,5.7881,5.7881,5.7881,5.7881,5.7881,5.7881,5.7881,5.7881,5.7881,5.7881,5.7881,5.7881,5.7881,5.7881,5.7459,5.7087,5.6816,5.5919,5.5158,5.46,5.4143,5.3788,5.3501,5.2553,5.208,5.208,5.208,5.2587,5.3501,5.3501,5.3501,5.3501,5.3501,5.3501,5.3501,5.3501,5.3501,5.3501,5.3501,5.3501,5.3501,5.3501,5.3501,5.3501,5.3501,5.3501,5.3501,5.3501,5.3162,5.2756,5.2756,5.2215,5.1522,5.1048,5.0507,4.9982,4.9526,4.9204,4.9001,4.9001,4.9001,4.9001,4.9001,4.9001,4.9001,4.9001,4.9001,4.9001,4.9001,4.9001,4.8663,4.7631,4.6464,4.479,4.2337,4.073,4.0223,4.1229,4.0502,4.0595,4.2074,4.2033,4.2439,4.3656,4.3511,4.3916,4.5049,4.7179,4.8135,4.7704,4.871,4.9229,4.932,4.9458,4.9518,4.956,4.95,4.9518,4.9577,4.9577,4.9577,4.9607,4.9755,4.9813,4.983,4.9935,5.0011,5.0011,5.0011,5.0011,5.0011,5.7881,5.7881,5.7881,5.7881,5.7881,5.7881,5.7881,5.7881,5.7881,5.7881,5.7881,5.7881,5.7881,5.7881,5.7881,5.7881,5.7881,5.7881,5.7881,5.7881,5.7577,5.6917,5.6833,5.6156,5.4769,5.4634,5.4228,5.3501,5.3501,5.3501,5.3501,5.3501,5.3501,5.3501,5.3501,5.3501,5.3501,5.3501,5.3501,5.3501,5.3501,5.3501,5.3501,5.3501,5.3501,5.3501,5.3501,5.3501,5.3501,5.3501,5.3501,5.3501,5.3501,5.3501,5.3501,5.3501,5.2976,5.2367,5.2317,5.1302,5.0219,5.0118,4.9543,4.9001,4.9001,4.9001,4.9001,4.9001,4.9001,4.9001,4.9001,4.9001,4.9001,4.9001,4.8917,4.8376,4.6989,4.6126,4.5077,4.3561,4.2202,4.1914,4.3325,4.3477,4.4096,4.5517,4.6312,4.7022,4.7703,4.5116,4.4976,4.7902,4.8646,4.9094,4.9229,4.9229,4.932,4.9547,4.9547,4.9607,4.9708,4.9607,4.9607,4.9708,4.9708,4.9708,4.9737,4.9935,5.0011,5.0011,5.0011,5.0011,5.0011,5.0011,5.0011,5.0011,5.7881,5.7881,5.7881,5.7881,5.7881,5.7881,5.7881,5.7881,5.7881,5.7881,5.7881,5.7881,5.7881,5.7881,5.7881,5.7881,5.7881,5.7881,5.7881,5.7881,5.7814,5.7645,5.7103,5.6647,5.6292,5.5175,5.4228,5.3501,5.3501,5.3501,5.3501,5.3501,5.3501,5.3501,5.3501,5.3501,5.3501,5.3501,5.3501,5.3501,5.3501,5.3501,5.3501,5.3501,5.3501,5.3501,5.3501,5.3501,5.3501,5.3501,5.3501,5.3501,5.3501,5.3501,5.3501,5.3501,5.3365,5.3078,5.2469,5.2046,5.1505,5.0371,4.9543,4.9001,4.9001,4.9001,4.9001,4.9001,4.9001,4.9001,4.9001,4.9001,4.9001,4.9001,4.8054,4.7192,4.6836,4.5669,4.4502,4.3511,4.3088,4.3267,4.4215,4.4316,4.4479,4.4852,4.5534,4.6041,4.621,4.6075,4.6895,4.8833,4.9053,4.9229,4.9428,4.953,4.9696,4.9877,4.9877,4.9906,4.9935,4.9906,4.9906,4.9935,4.9935,4.9935,4.9935,4.9982,5.0011,5.0011,5.0011,5.0011,5.0011,5.0011,5.0011,5.0011,5.7881,5.7881,5.7881,5.7881,5.7881,5.7881,5.7881,5.7881,5.7881,5.7881,5.7881,5.7881,5.7881,5.7881,5.7881,5.7881,5.7881,5.7881,5.7881,5.7881,5.7881,5.7881,5.7509,5.7154,5.6816,5.6021,5.5074,5.3991,5.367,5.3501,5.3501,5.3501,5.3501,5.3501,5.3501,5.3501,5.3501,5.3501,5.3501,5.3501,5.3501,5.3501,5.3501,5.3501,5.3501,5.3501,5.3501,5.3501,5.3501,5.3501,5.3501,5.3501,5.3501,5.3501,5.3501,5.3501,5.3501,5.3399,5.2976,5.2587,5.1944,5.0456,4.9796,4.9407,4.9086,4.9001,4.9001,4.9001,4.9001,4.9001,4.9001,4.9001,4.9001,4.9001,4.775,4.6786,4.6786,4.5546,4.4671,4.4942,4.4671,4.4908,4.5991,4.6109,4.6109,4.6109,4.6786,4.7208,4.7208,4.764,4.8276,4.909,4.9168,4.929,4.9518,4.9725,4.9889,5.0011,5.0011,5.0011,5.0011,5.0011,5.0011,5.0011,5.0011,5.0011,5.0011,5.0011,5.0011,5.0011,5.0011,5.0011,5.0011,5.0011,5.0011,5.0011,5.7881,5.7881,5.7881,5.7881,5.7881,5.7881,5.7881,5.7881,5.7881,5.7881,5.7881,5.7881,5.7881,5.7881,5.7881,5.7881,5.7881,5.7881,5.7881,5.7881,5.7881,5.7881,5.7881,5.7594,5.6985,5.6867,5.6072,5.4583,5.3974,5.3619,5.3501,5.3501,5.3501,5.3501,5.3501,5.3501,5.3501,5.3501,5.3501,5.3501,5.3501,5.3501,5.3501,5.3501,5.3501,5.3501,5.3501,5.3501,5.3501,5.3501,5.3501,5.3501,5.3501,5.3501,5.3501,5.3501,5.3501,5.3501,5.3501,5.2909,5.1995,5.0727,5.0338,5.0067,4.9323,4.9171,4.9137,4.9018,4.9001,4.9001,4.9001,4.9001,4.8934,4.8714,4.7428,4.6464,4.6464,4.541,4.5156,4.6616,4.6447,4.6701,4.7922,4.8058,4.8058,4.8058,4.8663,4.9001,4.9001,4.9124,4.9138,4.9032,4.9199,4.9381,4.9577,4.9848,5.0011,5.0011,5.0011,5.0011,5.0011,5.0011,5.0011,5.0011,5.0011,5.0011,5.0011,5.0011,5.0011,5.0011,5.0011,5.0011,5.0011,5.0011,5.0011,5.0011,5.7881,5.7881,5.7881,5.7881,5.7881,5.7881,5.7881,5.7881,5.7881,5.7881,5.7881,5.7881,5.7881,5.7881,5.7881,5.7881,5.7881,5.7881,5.7881,5.7881,5.7881,5.7881,5.7881,5.7831,5.7729,5.712,5.6072,5.4583,5.4482,5.411,5.3501,5.3501,5.3501,5.3501,5.3501,5.3501,5.3501,5.3501,5.3501,5.3501,5.3501,5.3501,5.3501,5.3501,5.3501,5.3501,5.3501,5.3501,5.3501,5.3501,5.3501,5.3501,5.3501,5.3501,5.3501,5.3501,5.3501,5.3501,5.3501,5.2909,5.2249,5.2012,5.1488,5.0845,5.0101,4.9915,4.9746,4.9137,4.9001,4.9001,4.9001,4.9001,4.8595,4.7327,4.5889,4.4953,4.4953,4.475,4.5156,4.6616,4.78,4.8578,4.8815,4.8832,4.8832,4.8832,4.8934,4.9001,4.9001,4.9124,4.9199,4.9168,4.9471,4.9725,4.9906,4.9964,5.0011,5.0011,5.0011,5.0011,5.0011,5.0011,5.0011,5.0011,5.0011,5.0011,5.0011,5.0011,5.0011,5.0011,5.0011,5.0011,5.0011,5.0011,5.0011,5.0011,5.7881,5.7881,5.7881,5.7881,5.7881,5.7881,5.7881,5.7881,5.7881,5.7881,5.7881,5.7881,5.7881,5.7881,5.7881,5.7881,5.7881,5.7881,5.7881,5.7881,5.7881,5.7881,5.7881,5.7881,5.7881,5.7171,5.6461,5.5784,5.4989,5.4431,5.4076,5.3687,5.3501,5.3501,5.3501,5.3501,5.3501,5.3501,5.3501,5.3501,5.3501,5.3501,5.3501,5.3501,5.3501,5.3501,5.3501,5.3501,5.3501,5.3501,5.3501,5.3501,5.3501,5.3501,5.3501,5.3501,5.3501,5.3501,5.3501,5.323,5.2841,5.2418,5.2046,5.1606,5.0862,5.0388,4.9999,4.9661,4.9272,4.9001,4.9001,4.9001,4.8511,4.7039,4.621,4.5771,4.5771,4.5771,4.6312,4.78,4.8595,4.9001,4.9001,4.9001,4.9032,4.9077,4.9032,4.9063,4.9277,4.9337,4.9381,4.9471,4.9619,4.9784,5.0011,5.0011,5.0011,5.0011,5.0011,5.0011,5.0011,5.0011,5.0011,5.0011,5.0011,5.0011,5.0011,5.0011,5.0011,5.0011,5.0011,5.0011,5.0011,5.0011,5.0011,5.0011,5.7881,5.7881,5.7881,5.7881,5.7881,5.7881,5.7881,5.7881,5.7881,5.7881,5.7881,5.7881,5.7881,5.7881,5.7881,5.7881,5.7881,5.7881,5.7881,5.7881,5.7881,5.7881,5.7881,5.7881,5.7881,5.734,5.6968,5.6799,5.5666,5.4938,5.4583,5.4008,5.367,5.3501,5.3501,5.3501,5.3501,5.3501,5.3501,5.3501,5.3501,5.3501,5.3501,5.3501,5.3501,5.3501,5.3501,5.3501,5.3501,5.3501,5.3501,5.3501,5.3501,5.3501,5.3501,5.3501,5.3501,5.3501,5.3501,5.3501,5.3348,5.2739,5.2587,5.2384,5.164,5.1014,5.0507,5.0152,4.9644,4.9204,4.9035,4.9001,4.8511,4.7039,0.0,4.6786,4.6786,4.6786,4.7344,4.8832,4.9001,4.9001,4.9001,4.9032,4.9094,4.9199,4.9155,4.9216,4.9488,4.9547,4.9637,4.9755,4.9784,4.986,5.0011,5.0011,5.0011,5.0011,5.0011,5.0011,5.0011,5.0011,5.0011,5.0011,5.0011,5.0011,5.0011,5.0011,5.0011,5.0011,5.0011,5.0011,5.0011,5.0011,5.0011,5.0011,5.7881,5.7881,5.7881,5.7881,5.7881,5.7881,5.7881,5.7881,5.7881,5.7881,5.7881,5.7881,5.7881,5.7881,5.7881,5.7881,5.7881,5.7881,5.7881,5.7881,5.7881,5.7881,5.7881,5.7881,5.7881,5.7831,5.7476,5.6799,5.6697,5.5936,5.4583,5.4532,5.4143,5.3501,5.3501,5.3501,5.3501,5.3501,5.3501,5.3501,5.3501,5.3501,5.3501,5.3501,5.3501,5.3501,5.3501,5.3501,5.3501,5.3501,5.3501,5.3501,5.3501,5.3501,5.3501,5.3501,5.3501,5.3501,5.3501,5.3501,5.3501,5.3433,5.3416,5.3213,5.2401,5.2181,5.1758,5.0371,5.005,4.9796,4.9137,4.9001,4.8511,4.7039,4.6786,4.6786,4.6786,4.6786,4.7344,4.8832,4.9001,4.9001,4.9001,4.9107,4.9199,4.9199,4.935,4.9488,4.9518,4.9619,4.9784,4.9964,4.9982,4.9982,5.0011,5.0011,5.0011,5.0011,5.0011,5.0011,5.0011,5.0011,5.0011,5.0011,5.0011,5.0011,5.0011,5.0011,5.0011,5.0011,5.0011,5.0011,5.0011,5.0011,5.0011,5.0011,5.7881,5.7881,5.7881,5.7881,5.7881,5.7881,5.7881,5.7881,5.7881,5.7881,5.7881,5.7881,5.7881,5.7881,5.7881,5.7881,5.7881,5.7881,5.7881,5.7881,5.7881,5.7881,5.7881,5.7881,5.7881,5.7881,5.7746,5.7476,5.7019,5.6511,5.5936,5.5023,5.4448,5.416,5.3704,5.3501,5.3501,5.3501,5.3501,5.3501,5.3501,5.3501,5.3501,5.3501,5.3501,5.3501,5.3501,5.3501,5.3501,5.3501,5.3501,5.3501,5.3501,5.3501,5.3501,5.3501,5.3501,5.3501,5.3501,5.3501,5.3501,5.3501,5.3501,5.3416,5.3112,5.2655,5.2147,5.1572,5.1099,5.0557,4.9813,4.9678,4.9052,4.7107,0.0,4.7834,4.6921,4.7581,4.8376,4.8934,4.9001,4.9001,4.9001,4.9107,4.926,4.9398,4.9458,4.9577,4.9801,4.986,4.9935,5.0011,5.0011,5.0011,5.0011,5.0011,5.0011,5.0011,5.0011,5.0011,5.0011,5.0011,5.0011,5.0011,5.0011,5.0011,5.0011,5.0011,5.0011,5.0011,5.0011,5.0011,5.0011,5.0011,5.0011,5.0011,5.7881,5.7881,5.7881,5.7881,5.7881,5.7881,5.7881,5.7881,5.7881,5.7881,5.7881,5.7881,5.7881,5.7881,5.7881,5.7881,5.7881,5.7881,5.7881,5.7881,5.7881,5.7881,5.7881,5.7881,5.7881,5.7881,5.7881,5.7881,5.7391,5.7019,5.6782,5.575,5.504,5.4566,5.4059,5.3721,5.3501,5.3501,5.3501,5.3501,5.3501,5.3501,5.3501,5.3501,5.3501,5.3501,5.3501,5.3501,5.3501,5.3501,5.3501,5.3501,5.3501,5.3501,5.3501,5.3501,5.3501,5.3501,5.3501,5.3501,5.3501,5.3501,5.3501,5.3501,5.3501,5.3078,5.2604,5.235,5.1911,5.1336,5.0574,5.0253,4.9593,4.8071,4.8494,4.8646,4.7631,4.8359,4.9001,4.9001,4.9001,4.9001,4.9063,4.9199,4.9381,4.9547,4.9607,4.9742,4.9982,5.0011,5.0011,5.0011,5.0011,5.0011,5.0011,5.0011,5.0011,5.0011,5.0011,5.0011,5.0011,5.0011,5.0011,5.0011,5.0011,5.0011,5.0011,5.0011,5.0011,5.0011,5.0011,5.0011,5.0011,5.0011,5.0011,5.0011,5.7881,5.7881,5.7881,5.7881,5.7881,5.7881,5.7881,5.7881,5.7881,5.7881,5.7881,5.7881,5.7881,5.7881,5.7881,5.7881,5.7881,5.7881,5.7881,5.7881,5.7881,5.7881,5.7881,5.7881,5.7881,5.7881,5.7881,5.7881,5.7881,5.7526,5.6816,5.6799,5.6021,5.4617,5.46,5.4194,5.3518,5.3501,5.3501,5.3501,5.3501,5.3501,5.3501,5.3501,5.3501,5.3501,5.3501,5.3501,5.3501,5.3501,5.3501,5.3501,5.3501,5.3501,5.3501,5.3501,5.3501,5.3501,5.3501,5.3501,5.3501,5.3501,5.3501,5.3501,5.3501,5.3501,5.3281,5.2469,5.2317,5.208,5.132,5.0608,5.0101,5.0101,4.9492,4.9018,4.9018,4.9001,4.9001,4.9001,4.9001,4.9063,4.9199,4.9381,4.9577,4.9679,4.9889,5.0011,5.0011,5.0011,5.0011,5.0011,5.0011,5.0011,5.0011,5.0011,5.0011,5.0011,5.0011,5.0011,5.0011,5.0011,5.0011,5.0011,5.0011,5.0011,5.0011,5.0011,5.0011,5.0011,5.0011,5.0011,5.0011,5.0011,5.0011,5.0011,5.7881,5.7881,5.7881,5.7881,5.7881,5.7881,5.7881,5.7881,5.7881,5.7881,5.7881,5.7881,5.7881,5.7881,5.7881,5.7881,5.7881,5.7881,5.7881,5.7881,5.7881,5.7881,5.7881,5.7881,5.7881,5.7881,5.7881,5.7881,5.7881,5.778,5.7543,5.7036,5.6562,5.6105,5.5057,5.4465,5.4228,5.3721,5.3501,5.3501,5.3501,5.3501,5.3501,5.3501,5.3501,5.3501,5.3501,5.3501,5.3501,5.3501,5.3501,5.3501,5.3501,5.3501,5.3501,5.3501,5.3501,5.3501,5.3501,5.3501,5.3501,5.3501,5.3501,5.3501,5.3501,5.3501,5.3433,5.3196,5.3145,5.2909,5.2131,5.1792,5.1471,5.0963,5.0253,4.9763,4.9763,4.9323,4.9001,4.9001,4.9001,4.9063,4.9199,4.9381,4.9577,4.9679,4.9889,5.0011,5.0011,5.0011,5.0011,5.0011,5.0011,5.0011,5.0011,5.0011,5.0011,5.0011,5.0011,5.0011,5.0011,5.0011,5.0011,5.0011,5.0011,5.0011,5.0011,5.0011,5.0011,5.0011,5.0011,5.0011,5.0011,5.0011,5.0011,5.0011,5.7881,5.7881,5.7881,5.7881,5.7881,5.7881,5.7881,5.7881,5.7881,5.7881,5.7881,5.7881,5.7881,5.7881,5.7881,5.7881,5.7881,5.7881,5.7881,5.7881,5.7881,5.7881,5.7881,5.7881,5.7881,5.7881,5.7881,5.7881,5.7881,5.7881,5.7881,5.7442,5.707,5.6765,5.5869,5.5141,5.4566,5.411,5.3771,5.3501,5.3501,5.3501,5.3501,5.3501,5.3501,5.3501,5.3501,5.3501,5.3501,5.3501,5.3501,5.3501,5.3501,5.3501,5.3501,5.3501,5.3501,5.3501,5.3501,5.3501,5.3501,5.3501,5.3501,5.3501,5.3501,5.3501,5.3501,5.3501,5.3501,5.3348,5.2858,5.252,5.2147,5.1725,5.1031,5.0541,5.0541,5.0152,4.9811,4.9585,4.9551,4.9508,4.9415,4.9703,4.9965,5.0108,5.0063,5.0011,5.0011,5.0011,5.0011,5.0011,5.0011,5.0011,5.0011,5.0011,5.0011,5.0011,5.0011,5.0011,5.0011,5.0011,5.0011,5.0011,5.0011,5.0011,5.0011,5.0011,5.0011,5.0011,5.0011,5.0011,5.0011,5.0011,5.0011,5.0011,5.7881,5.7881,5.7881,5.7881,5.7881,5.7881,5.7881,5.7881,5.7881,5.7881,5.7881,5.7881,5.7881,5.7881,5.7881,5.7881,5.7881,5.7881,5.7881,5.7881,5.7881,5.7881,5.7881,5.7881,5.7881,5.7881,5.7881,5.7881,5.7881,5.7881,5.7881,5.7881,5.7526,5.69,5.6833,5.6055,5.4786,5.4651,5.4211,5.3602,5.3534,5.3501,5.3501,5.3501,5.3501,5.3501,5.3501,5.3501,5.3501,5.3501,5.3501,5.3501,5.3501,5.3501,5.3501,5.3501,5.3501,5.3501,5.3501,5.3501,5.3501,5.3501,5.3501,5.3501,5.3501,5.3501,5.3501,5.3501,5.3501,5.3501,5.3501,5.2909,5.2418,5.2418,5.1792,5.1319,5.1319,5.1251,5.1012,5.0541,5.0487,5.037,4.9995,5.0393,5.0739,5.0857,5.0415,5.0138,5.008,5.008,5.0051,5.0011,5.0011,5.0011,5.0011,5.0011,5.0011,5.0011,5.0011,5.0011,5.0011,5.0011,5.0011,5.0011,5.0011,5.0011,5.0011,5.0011,5.0011,5.0011,5.0011,5.0011,5.0011,5.0011,5.0011,5.0011,5.7881,5.7881,5.7881,5.7881,5.7881,5.7881,5.7881,5.7881,5.7881,5.7881,5.7881,5.7881,5.7881,5.7881,5.7881,5.7881,5.7881,5.7881,5.7881,5.7881,5.7881,5.7881,5.7881,5.7881,5.7881,5.7881,5.7881,5.7881,5.7881,5.7881,5.7881,5.7881,5.7797,5.7628,5.7053,5.663,5.6241,5.5091,5.4499,5.4296,5.3737,5.3501,5.3501,5.3501,5.3501,5.3501,5.3501,5.3501,5.3501,5.3501,5.3501,5.3501,5.3501,5.3501,5.3501,5.3501,5.3501,5.3501,5.3501,5.3501,5.3501,5.3501,5.3501,5.3501,5.3501,5.3501,5.3501,5.3501,5.3501,5.3501,5.3501,5.3365,5.3247,5.3247,5.2587,5.2063,5.2063,5.1572,5.1166,5.1029,5.1189,5.1463,5.1945,5.2171,5.2064,5.1477,5.1314,5.1052,5.0657,5.063,5.0425,4.9993,5.0011,5.0011,5.0011,5.0011,5.0011,5.0011,5.0011,5.0011,5.0011,5.0011,5.0011,5.0011,5.0011,5.0011,5.0011,5.0011,5.0011,5.0011,5.0011,5.0011,5.0011,5.0011,5.0011,5.0011,5.7881,5.7881,5.7881,5.7881,5.7881,5.7881,5.7881,5.7881,5.7881,5.7881,5.7881,5.7881,5.7881,5.7881,5.7881,5.7881,5.7881,5.7881,5.7881,5.7881,5.7881,5.7881,5.7881,5.7881,5.7881,5.7881,5.7881,5.7881,5.7881,5.7881,5.7881,5.7881,5.7881,5.7865,5.7492,5.712,5.6748,5.597,5.5226,5.4566,5.4177,5.3805,5.3501,5.3501,5.3501,5.3501,5.3501,5.3501,5.3501,5.3501,5.3501,5.3501,5.3501,5.3501,5.3501,5.3501,5.3501,5.3501,5.3501,5.3701,5.3865,5.3551,5.3734,5.3865,5.3568,5.3501,5.3501,5.3501,5.3734,5.3913,5.3913,5.4205,5.4428,5.4428,5.4049,5.3804,5.3815,5.329,5.2789,5.2551,5.264,5.2931,5.3584,5.3476,5.3289,5.3145,5.2885,5.263,5.2343,5.2334,5.2024,5.1365,5.1347,5.1144,5.0766,5.0509,5.0387,5.0387,5.012,5.0011,5.0011,5.0011,5.0011,5.0011,5.0011,5.0011,5.0011,5.0011,5.0011,5.0011,5.0011,5.0011,5.0011,5.0011,5.0011,5.0011,5.7881,5.7881,5.7881,5.7881,5.7881,5.7881,5.7881,5.7881,5.7881,5.7881,5.7881,5.7881,5.7881,5.7881,5.7881,5.7881,5.7881,5.7881,5.7881,5.7881,5.7881,5.7881,5.7881,5.7881,5.7881,5.7881,5.7881,5.7881,5.7881,5.7881,5.7881,5.7881,5.7918,5.7971,5.7918,5.7596,5.7021,5.685,5.6089,5.4938,5.4685,5.4228,5.367,5.3551,5.3501,5.3501,5.3501,5.3501,5.3501,5.3501,5.3501,5.3501,5.3501,5.3501,5.3534,5.3618,5.3634,5.3668,5.38,5.4188,5.444,5.3948,5.4188,5.444,5.3948,5.3651,5.3501,5.3501,5.3979,5.4391,5.4391,5.4948,5.5385,5.5385,5.5385,5.5426,5.5501,5.5112,5.4709,5.4326,5.443,5.4648,5.4942,5.4679,5.4618,5.4905,5.4506,5.4212,5.4136,5.4154,5.3798,5.3026,5.3008,5.2679,5.2011,5.1573,5.1351,5.1351,5.0893,5.0449,5.0011,5.0011,5.0011,5.0011,5.0011,5.0011,5.0011,5.0011,5.0011,5.0011,5.0011,5.0011,5.0011,5.0011,5.0011,5.0011,5.7881,5.7881,5.7881,5.7881,5.7881,5.7881,5.7881,5.7881,5.7881,5.7881,5.7881,5.7881,5.7881,5.7881,5.7881,5.7881,5.7881,5.7881,5.7881,5.7881,5.7881,5.7881,5.7881,5.7881,5.7881,5.7881,5.7881,5.7881,5.7881,5.7881,5.7881,5.7881,5.8007,5.8152,5.7971,5.794,5.7965,5.7141,5.6681,5.6393,5.5108,5.4532,5.438,5.3737,5.3501,5.3501,5.3501,5.3501,5.3501,5.3501,5.3501,5.3501,5.3501,5.3501,5.3618,5.4124,5.4281,5.4408,5.5013,5.5207,5.5236,5.5147,5.5207,5.5236,5.5147,5.4301,5.3501,5.3501,5.3979,5.4391,5.4391,5.4948,5.5385,5.5385,5.5385,5.5426,5.5501,5.5443,5.5419,5.5468,5.6071,5.6323,5.5805,5.615,5.6168,5.554,5.5422,5.5181,5.4719,5.4695,5.4445,5.3864,5.3838,5.3784,5.3677,5.3599,5.3573,5.3573,5.3495,5.2232,5.0011,5.0011,5.0011,5.0011,5.0011,5.0011,5.0011,5.0011,5.0011,5.0011,5.0011,5.0011,5.0011,5.0011,5.0011,5.0011,5.7881,5.7881,5.7881,5.7881,5.7881,5.7881,5.7881,5.7881,5.7881,5.7881,5.7881,5.7881,5.7881,5.7881,5.7881,5.7881,5.7881,5.7881,5.7881,5.7881,5.7881,5.7881,5.7881,5.7881,5.7881,5.7881,5.7881,5.7881,5.7991,5.8007,5.7881,5.7991,5.8116,5.8188,5.8007,5.808,5.8314,5.7812,5.735,5.6891,5.6264,5.5449,5.4549,5.4228,5.3856,5.3501,5.3501,5.3501,5.3501,5.3501,5.3717,5.3994,5.3994,5.4252,5.4631,5.4874,5.4948,5.5039,5.5361,5.5727,5.5943,5.5634,5.5794,5.5915,5.5536,5.4978,5.4568,5.4568,5.5039,5.5467,5.5467,5.5971,5.6402,5.6402,5.6402,5.6483,5.6642,5.6385,5.6249,5.6447,5.6799,5.7039,5.7078,5.729,5.7317,5.6969,5.6932,5.6823,5.6601,5.6578,5.6265,5.5595,5.5553,5.5335,5.4905,5.4598,5.4456,5.4431,5.4136,5.3362,5.2232,5.2232,5.2232,5.2232,5.2232,5.2232,5.2204,5.1861,5.1492,5.1081,5.076,5.0373,5.0011,5.0011,5.0011,5.0011]}]]